GFSMA_850_thetae_000.txt.gz
Theta_e
343 343 345 343 342 341 340 340 339 340 340 338 337 335 334 334 337 340 340 339 339 341 340 342 343 342 330 328 326 332 338 329 323 323 325 324 322 322 322 323 325 326 327
343 343 344 343 341 341 341 342 341 340 340 339 335 333 332 332 332 335 341 340 339 338 339 340 343 343 341 334 330 333 330 335 326 323 323 329 322 323 324 325 325 326 328
343 344 343 342 342 342 343 342 341 340 339 334 331 329 326 325 326 327 333 341 340 340 341 340 341 343 343 342 341 335 330 330 339 330 327 326 326 326 326 328 328 329 332
345 346 343 342 343 343 344 343 341 338 334 332 330 328 328 325 326 327 323 328 338 342 342 341 341 342 343 343 342 342 341 333 330 330 337 334 327 327 327 326 328 331 333
346 345 344 344 343 344 342 339 338 336 334 331 328 331 330 327 327 329 329 327 328 334 340 342 342 341 341 341 341 342 342 340 337 336 331 336 330 328 327 327 327 326 327
343 343 344 343 344 340 337 333 331 334 331 332 333 331 330 330 332 334 336 335 334 334 332 337 342 343 342 343 342 341 341 342 340 337 336 331 325 326 330 330 328 328 328
344 344 346 340 337 336 333 332 332 328 332 332 334 330 330 332 333 334 334 333 333 334 337 336 335 339 340 340 341 341 342 342 342 343 342 339 338 329 325 328 329 329 328
345 345 339 335 333 329 326 326 326 333 332 335 334 332 330 335 334 330 330 330 329 330 332 335 338 338 338 338 339 339 340 341 341 341 341 342 342 340 336 334 330 327 331
341 338 335 330 323 325 328 329 327 329 334 335 334 331 332 332 328 329 328 324 321 321 324 329 332 336 337 337 338 338 338 338 339 339 340 340 340 341 341 339 337 337 329
339 335 325 324 328 329 331 329 324 328 332 333 331 330 330 331 330 329 325 321 320 319 318 318 321 324 327 329 332 333 334 334 336 337 338 339 340 340 340 341 340 338 337
340 333 324 327 329 332 331 326 325 327 329 329 331 330 327 328 327 325 323 321 321 319 317 317 318 319 320 322 324 327 328 331 332 333 337 338 337 339 340 339 340 340 338
335 331 327 331 332 331 327 324 325 327 329 331 331 325 324 324 324 324 323 322 321 319 319 318 316 318 318 318 318 319 321 323 326 330 333 334 335 335 336 340 340 340 341
333 331 326 329 331 328 322 323 327 328 329 328 328 330 329 328 327 328 326 324 323 322 320 319 317 319 318 316 316 318 319 319 320 322 326 331 336 335 335 337 338 340 340
331 320 320 322 326 325 323 321 325 329 329 330 329 329 329 329 329 329 328 326 325 325 323 320 317 318 320 316 316 319 319 320 321 320 320 325 328 337 337 337 338 340 341
321 322 325 321 324 326 326 324 322 321 327 330 330 330 330 328 329 329 329 328 327 326 326 321 320 319 321 321 317 318 318 319 319 319 320 320 325 327 336 338 338 338 340
321 323 325 322 324 324 323 324 323 319 319 323 326 328 330 330 330 327 327 329 328 326 326 323 320 321 321 322 319 317 317 318 318 318 318 319 321 326 327 335 338 338 338
321 323 320 321 323 325 322 319 318 322 324 325 326 327 326 327 328 328 328 328 328 324 325 322 323 321 320 321 321 317 317 318 318 318 318 319 319 321 326 328 334 337 338
318 319 319 321 322 324 322 322 321 322 325 328 330 330 326 327 325 327 328 326 324 324 326 325 322 322 323 323 322 318 319 319 318 317 318 318 318 320 322 327 329 335 337
317 320 321 320 320 321 322 319 321 323 325 326 326 325 324 323 322 322 322 322 321 321 323 324 323 322 322 321 320 319 319 319 318 317 318 317 318 319 321 323 328 331 334
320 320 320 320 321 322 321 319 320 323 326 327 326 323 324 321 321 322 323 323 323 320 321 322 322 321 322 321 320 319 319 318 316 318 318 317 318 319 320 323 325 331 331
322 322 320 321 323 324 323 322 323 324 325 326 326 324 322 322 320 320 321 322 322 321 321 321 321 320 321 320 320 319 319 318 317 318 316 317 318 319 321 322 326 328 332
324 323 323 323 325 326 323 324 325 325 325 326 326 324 324 323 320 320 320 320 320 320 322 321 321 321 320 320 320 320 319 318 318 317 316 317 318 319 320 321 327 331 333
323 322 323 326 325 326 323 327 328 328 328 328 326 326 326 324 321 321 320 320 320 321 322 321 321 321 321 321 320 320 319 319 318 316 317 318 319 319 320 320 323 331 333
322 323 327 327 324 327 325 329 331 330 329 329 326 326 325 325 322 322 321 320 321 321 320 321 321 321 319 318 317 319 320 318 316 317 317 318 318 319 320 320 323 329 335
331 330 331 330 329 326 328 329 328 330 327 328 327 326 325 323 322 322 321 321 319 317 320 321 321 319 316 317 319 318 316 316 316 316 317 318 318 319 321 321 324 329 336
337 335 333 333 331 331 332 330 330 327 325 326 326 324 324 323 321 319 317 317 318 320 319 318 317 314 317 319 319 317 317 316 315 316 317 318 318 320 322 323 325 329 337

GFSMA_850_thetae_003.txt.gz
Theta_e
343 342 344 344 342 342 340 341 341 340 340 339 338 334 331 330 330 331 335 340 338 339 341 341 342 343 340 328 328 338 337 333 329 336 327 328 325 322 320 322 324 325 326
345 342 342 343 342 341 340 341 341 340 340 338 333 328 326 325 325 328 331 339 340 339 338 339 340 342 343 342 331 328 330 336 338 325 327 332 334 323 322 323 324 324 325
342 342 342 342 341 340 341 343 343 342 338 334 330 327 328 327 324 324 326 330 340 340 339 340 340 341 343 343 343 342 333 336 336 337 329 325 330 324 323 325 325 326 328
344 342 343 342 341 343 342 344 341 339 336 334 331 329 331 329 326 325 327 324 325 337 341 342 341 340 341 343 344 343 343 342 335 333 337 333 332 328 327 326 327 329 330
344 343 343 343 343 343 342 342 336 332 331 333 331 332 330 328 326 329 330 330 328 325 330 337 342 342 341 341 341 342 342 343 342 338 335 333 335 337 330 327 326 326 326
345 344 342 344 344 342 340 337 335 334 334 330 329 331 328 330 332 333 335 335 334 334 333 328 332 340 342 342 341 342 341 341 342 341 339 337 335 329 328 329 329 328 328
344 343 344 344 344 336 334 332 332 333 335 330 330 335 330 332 332 331 332 330 330 330 332 335 337 335 337 339 339 339 341 342 341 341 342 340 337 335 333 326 326 329 329
344 345 345 343 334 331 327 326 329 331 331 330 336 330 333 336 336 331 326 322 321 323 326 329 333 336 337 337 338 339 339 339 340 341 342 342 342 342 340 338 333 329 328
345 340 338 334 328 321 328 328 329 327 336 333 332 333 334 333 332 331 326 319 319 318 318 319 322 326 330 334 336 338 339 339 339 339 340 340 341 340 341 341 340 338 336
338 337 338 327 321 326 325 327 324 325 329 335 330 329 329 330 332 331 329 323 322 320 318 317 318 319 321 323 326 327 330 333 335 335 336 337 338 342 341 340 340 341 340
332 338 334 323 324 326 327 327 322 323 324 327 333 333 327 326 324 330 327 327 327 323 321 320 318 316 318 320 320 319 320 322 325 327 330 332 335 337 339 341 342 340 340
335 341 333 324 328 328 328 324 322 323 325 327 330 328 330 329 329 329 329 329 327 327 323 324 320 320 320 319 316 316 318 319 319 320 322 325 329 333 335 337 337 341 341
329 330 331 323 326 330 326 322 324 327 327 327 326 332 329 329 330 331 330 329 329 328 327 327 319 317 317 320 318 316 317 318 319 321 321 321 321 324 328 334 335 335 337
328 332 329 323 325 328 326 322 323 325 327 327 327 327 331 329 329 329 331 331 329 328 328 327 324 322 319 319 321 320 317 317 318 319 319 319 320 321 321 325 332 336 335
328 329 321 323 323 324 324 324 325 322 322 327 329 329 330 332 331 331 331 330 330 330 329 326 325 324 322 321 320 321 321 318 317 318 318 318 318 319 319 321 324 329 337
327 322 320 325 324 322 323 325 325 324 320 321 324 323 324 330 328 327 327 329 329 329 328 325 326 325 320 321 322 322 322 321 318 318 318 318 318 319 318 319 321 324 328
317 319 321 324 323 322 322 320 319 318 317 322 323 324 325 326 327 327 325 325 328 328 328 325 326 327 321 320 319 321 321 319 319 318 318 318 316 319 319 318 319 321 325
321 318 321 322 320 322 323 322 322 325 323 322 325 326 325 324 323 322 321 322 323 325 325 327 323 326 327 323 321 320 320 320 319 319 318 317 317 319 318 319 319 320 321
324 323 324 320 320 320 321 322 320 322 324 325 324 325 324 325 324 322 322 322 326 323 326 325 325 324 325 326 325 324 325 324 322 321 320 319 318 319 318 318 320 320 321
323 324 320 319 320 321 321 321 320 322 323 323 324 326 327 324 323 322 320 320 321 322 326 326 326 325 325 325 325 325 324 323 323 322 321 320 320 319 319 319 320 320 321
328 328 324 321 323 322 322 322 324 326 325 323 322 324 326 325 324 323 321 321 320 322 326 325 325 325 324 324 323 323 324 323 322 321 321 321 321 320 320 320 321 322 323
330 329 326 331 328 325 323 325 328 328 325 325 324 326 327 326 325 325 324 321 321 321 321 323 324 325 325 325 324 325 323 322 321 320 321 321 320 319 318 320 320 320 321
333 332 329 335 329 328 324 326 327 328 328 326 327 328 328 326 325 326 325 323 322 322 321 321 322 322 323 324 322 321 320 320 320 321 321 319 319 318 317 318 320 320 321
335 331 331 332 333 333 329 328 330 329 331 330 330 329 329 327 326 325 324 323 322 321 321 320 321 321 321 321 319 316 317 319 319 320 320 318 317 317 318 318 319 320 321
334 332 329 332 332 332 331 328 326 326 329 329 329 328 328 328 325 324 324 321 320 318 318 319 320 319 320 317 316 318 319 319 320 320 317 315 317 317 318 318 320 321 322
334 334 335 333 333 332 330 328 326 327 329 329 329 327 328 325 325 324 321 317 316 316 317 318 319 315 314 318 318 318 319 319 318 316 316 317 317 317 318 319 322 325 326

GFSMA_850_thetae_009.txt.gz
Theta_e
348 347 351 349 350 349 348 347 346 346 346 347 344 342 340 337 336 336 340 341 339 339 338 340 341 342 339 330 331 337 329 327 327 323 323 323 335 332 328 325 323 329 336
349 351 349 349 348 348 347 348 347 346 346 343 341 341 338 338 338 339 337 340 339 339 340 338 339 339 342 341 339 329 338 338 334 327 327 332 329 332 325 322 322 322 324
351 348 349 350 348 346 347 347 347 346 341 340 338 337 337 338 338 339 338 337 341 340 340 340 339 339 339 341 341 341 331 333 339 336 335 326 326 325 334 329 323 323 324
350 352 349 349 347 350 348 348 349 346 341 338 336 337 336 337 339 338 340 338 337 337 341 341 341 340 341 340 341 342 342 342 337 334 333 336 332 328 327 328 326 326 329
351 352 349 348 349 348 348 346 347 344 339 337 336 334 337 338 338 338 337 340 341 340 338 341 340 336 340 342 340 341 342 342 342 342 341 335 332 334 332 333 332 328 327
350 351 348 351 348 348 347 346 344 340 339 339 336 333 337 339 338 337 338 336 336 339 341 342 344 344 343 339 341 341 341 341 341 341 342 342 340 335 333 331 334 334 331
351 349 349 349 349 346 347 342 340 337 338 338 336 338 336 337 338 337 335 332 333 333 337 340 343 343 345 341 338 340 341 340 341 341 340 340 341 341 338 335 332 331 328
353 351 350 348 348 345 343 341 339 338 337 337 337 335 336 338 337 335 332 330 330 330 333 336 339 335 343 340 340 337 338 338 338 339 340 341 341 341 342 341 336 334 334
352 351 350 346 348 339 332 339 340 338 337 338 336 337 335 337 334 335 335 331 330 329 330 331 334 332 325 334 337 332 332 336 338 338 338 339 339 340 341 342 342 342 341
350 352 352 347 342 334 338 339 338 336 334 336 336 336 331 334 335 334 333 333 331 330 331 329 328 330 329 329 327 322 320 321 324 328 332 335 337 337 338 339 340 341 341
350 349 348 346 342 333 338 339 339 332 340 335 334 334 336 333 333 331 331 331 331 332 331 330 329 327 328 328 327 325 318 317 318 319 320 322 324 327 330 332 334 336 338
350 347 345 344 341 336 340 340 339 338 333 337 336 335 333 332 332 332 331 330 330 330 331 331 330 330 327 327 327 325 324 318 317 317 317 318 319 319 320 322 325 328 331
346 347 345 345 342 335 340 339 339 338 337 336 333 336 334 333 332 331 330 330 330 331 332 332 331 332 329 328 328 327 327 321 321 318 317 317 318 318 319 319 319 320 322
345 345 345 345 342 340 341 339 335 334 336 336 335 335 335 332 334 331 331 331 330 331 331 331 332 331 330 329 329 327 326 329 327 323 321 319 318 318 318 318 318 318 318
344 343 347 345 343 339 340 337 331 336 333 335 334 335 334 333 331 330 331 332 332 331 331 331 330 330 328 330 330 329 329 330 328 325 321 321 320 318 318 318 318 317 318
343 342 346 342 338 332 333 329 334 335 335 334 332 330 333 331 331 332 332 331 331 330 329 329 330 329 329 330 330 329 328 328 328 328 326 326 324 320 318 317 318 317 317
348 344 337 329 324 331 322 318 333 334 336 335 333 329 332 334 333 332 330 331 329 329 329 327 328 329 328 329 328 329 330 329 329 328 328 327 326 323 320 317 317 316 316
347 338 323 319 324 324 329 323 320 333 334 334 332 331 334 334 334 334 332 332 332 329 330 329 329 329 329 328 329 327 328 328 328 327 326 323 325 325 324 322 318 318 319
346 332 325 317 322 321 323 320 322 325 336 334 333 333 334 334 333 333 332 330 330 329 330 328 327 327 327 328 326 328 326 327 326 326 327 327 325 325 324 322 321 322 323
346 327 326 317 318 322 325 327 328 322 334 337 334 333 335 335 334 334 334 334 332 332 330 328 327 329 328 326 327 327 326 326 326 326 326 325 325 324 323 322 321 323 324
346 332 328 322 317 323 329 329 329 322 326 337 334 333 334 334 334 334 333 330 331 329 330 329 327 326 326 326 327 326 327 327 326 326 324 324 325 324 322 320 322 324 325
351 344 338 325 320 324 334 333 331 321 335 336 335 335 334 336 335 332 327 327 329 328 327 327 328 327 326 327 327 327 327 326 324 323 324 323 322 320 319 321 323 323 322
349 346 343 329 322 329 333 328 328 328 335 336 335 334 335 336 331 326 327 328 326 326 328 328 327 327 326 324 324 324 324 324 323 322 321 321 321 322 322 322 323 322 321
349 347 344 330 334 336 333 331 328 328 332 332 334 335 336 335 333 329 328 327 325 328 329 328 328 326 326 325 320 318 318 318 319 319 321 322 323 322 322 323 321 320 319
348 345 341 336 337 340 339 336 331 333 333 335 333 336 337 330 329 327 327 326 325 327 327 326 325 324 323 318 318 318 320 319 319 320 321 321 321 321 320 320 318 319 318
347 344 341 340 342 342 339 337 335 332 335 334 335 335 329 327 326 327 326 326 327 328 327 326 326 323 320 321 318 318 319 321 320 320 320 319 318 318 320 319 319 318 319

GFSMA_850_thetae_012.txt.gz
Theta_e
350 347 349 348 345 350 347 346 346 346 345 342 340 341 339 337 337 336 340 338 339 334 338 339 341 341 336 329 335 336 330 328 326 323 325 324 325 325 329 329 325 326 334
349 349 348 347 345 347 346 346 343 343 343 342 343 339 336 339 337 340 338 341 338 339 337 338 338 339 342 340 334 329 335 333 329 328 324 325 326 335 333 325 322 321 323
342 349 346 349 349 348 345 344 346 346 343 342 341 337 337 337 339 336 337 339 340 339 340 337 338 338 337 340 341 341 332 336 337 337 333 329 331 329 325 327 325 323 323
343 344 347 350 349 347 347 347 348 346 343 339 336 337 335 337 337 339 340 335 340 340 338 340 340 339 339 339 340 341 341 340 334 334 333 336 333 327 326 331 332 327 326
348 348 347 350 348 347 344 347 345 346 341 339 336 335 335 339 336 339 336 340 337 340 343 342 340 337 335 339 340 340 342 342 342 342 340 336 333 334 336 333 329 329 328
345 348 347 346 346 343 347 344 345 342 334 337 339 334 337 338 336 337 338 336 335 339 340 341 343 345 342 340 338 340 340 340 341 341 342 342 342 338 334 333 333 334 335
351 344 346 346 347 345 349 346 341 336 338 337 337 337 338 336 335 337 334 332 333 333 335 338 342 342 343 341 340 338 339 340 341 341 341 340 341 342 341 338 336 336 334
346 347 346 346 349 348 343 343 334 336 338 337 333 336 337 338 337 334 332 330 330 331 333 334 333 339 340 340 337 336 336 336 337 338 338 339 340 339 340 341 340 337 335
347 351 349 346 350 349 337 336 340 339 337 339 338 336 339 339 336 336 333 331 329 329 330 331 330 327 333 334 330 330 324 328 334 337 338 339 339 339 339 340 341 341 341
349 350 345 346 347 339 339 338 337 332 333 338 338 336 333 331 335 337 334 333 332 331 331 329 329 329 329 328 328 326 322 318 319 321 323 326 330 334 337 337 338 339 340
349 352 350 349 343 321 335 337 340 327 339 335 335 336 336 332 331 327 331 333 333 332 332 330 328 328 328 328 328 328 326 323 318 316 317 318 319 320 322 325 329 332 334
352 348 350 346 338 324 339 336 330 326 336 338 335 335 336 333 333 334 333 331 330 331 332 331 331 330 329 328 328 327 327 326 322 319 318 317 317 317 318 318 319 320 322
351 349 346 341 335 323 338 333 333 333 330 327 331 336 336 332 333 332 331 331 331 330 330 332 332 331 332 330 328 328 328 326 325 327 325 321 319 318 317 317 317 318 318
345 348 347 346 334 333 326 325 322 320 324 332 329 324 335 334 333 333 331 331 330 328 329 330 332 332 332 330 329 329 328 329 326 322 323 322 321 321 320 318 318 317 317
347 345 346 346 344 331 331 334 325 333 337 337 335 328 324 332 333 331 331 331 331 330 330 330 329 331 330 329 330 330 330 330 328 325 327 327 325 324 321 319 318 318 317
347 347 345 343 337 330 326 329 325 334 323 325 331 333 332 333 333 330 331 330 330 332 330 329 329 329 328 329 328 330 330 325 326 327 326 326 328 328 326 324 322 318 316
351 346 345 343 340 327 329 327 326 330 330 328 323 328 331 331 329 331 332 332 331 329 329 329 326 325 327 327 327 328 329 328 327 328 328 327 327 326 324 324 324 323 321
352 349 344 341 341 330 324 324 324 328 333 329 324 323 323 326 327 332 330 328 331 332 331 328 330 328 328 329 327 327 327 329 329 328 327 326 327 327 327 326 325 323 322
349 350 345 344 338 330 325 324 327 321 325 325 326 326 323 327 333 333 334 333 331 329 329 331 328 327 327 328 327 325 326 327 328 326 326 325 327 327 326 325 325 324 323
347 349 347 342 339 330 327 324 327 324 325 325 331 330 329 333 334 329 329 328 328 329 331 332 332 331 329 326 326 328 329 328 327 327 326 327 326 325 323 326 325 324 322
350 349 352 349 345 336 331 328 331 329 330 329 335 332 331 332 334 330 330 330 332 328 328 328 328 328 328 328 327 325 325 324 324 323 326 326 325 324 324 324 323 322 321
357 356 355 354 349 342 333 325 329 334 334 334 329 335 333 333 332 334 332 331 332 328 327 328 326 325 327 327 325 325 325 326 323 321 325 324 320 322 321 317 317 323 323
357 357 356 355 352 346 335 332 336 336 334 333 335 337 333 331 333 333 333 331 328 328 328 327 325 323 326 325 325 324 323 321 320 317 315 316 320 322 324 324 323 321 324
358 358 357 354 351 346 336 330 334 332 331 334 335 334 333 332 334 334 331 329 329 328 327 326 325 326 326 325 325 325 321 317 317 319 320 321 321 320 319 320 322 323 324
359 357 353 349 348 342 333 330 330 334 332 331 334 333 330 327 329 328 327 330 328 327 325 326 327 327 327 326 324 320 318 318 318 319 320 319 319 321 320 319 318 315 318
356 351 349 347 345 342 338 339 341 338 335 332 329 332 331 331 330 327 328 327 327 327 327 328 326 325 325 322 321 321 319 320 319 321 321 320 319 317 314 315 318 320 320

GFSMA_850_thetae_015.txt.gz
Theta_e
345 348 344 346 344 346 345 346 345 344 342 341 342 339 337 337 337 337 337 337 338 336 337 338 341 336 329 327 330 330 330 328 322 327 334 332 327 324 330 335 330 330 331
344 343 347 346 346 344 347 344 344 342 340 343 345 338 337 338 336 339 336 338 337 338 336 337 337 340 342 333 329 332 334 327 327 325 322 332 326 332 332 329 324 323 323
348 344 345 347 345 348 347 344 343 343 343 339 336 336 336 336 338 335 337 338 340 338 339 336 338 338 337 340 340 337 329 332 335 333 328 325 329 329 330 331 327 324 323
345 346 343 345 347 348 347 345 345 343 342 340 335 337 335 337 337 337 338 336 338 338 338 338 338 337 338 338 338 341 341 335 332 335 335 335 333 329 325 326 332 333 327
347 346 346 345 351 346 348 346 343 345 341 336 334 335 336 337 337 338 337 336 340 339 340 342 339 337 338 340 339 339 340 341 341 340 337 334 332 333 333 331 328 327 327
348 346 346 343 345 348 345 345 341 343 339 336 337 334 333 336 338 338 337 334 336 340 340 339 341 344 339 339 338 338 339 340 341 342 342 342 341 339 335 332 332 332 334
348 347 346 342 344 345 343 342 342 332 336 337 338 336 336 336 337 337 335 333 333 333 335 337 337 342 341 341 339 336 337 338 340 340 341 341 340 341 341 341 337 333 332
350 347 346 343 345 347 346 341 333 327 338 337 336 334 336 338 337 335 334 328 331 332 332 332 329 329 337 337 335 331 333 336 338 338 338 338 339 340 339 339 340 340 339
347 346 344 344 342 349 343 338 331 334 338 337 336 334 338 338 338 333 335 332 331 328 327 326 328 328 328 328 327 327 323 320 327 332 335 337 338 338 338 339 340 340 341
346 348 344 344 345 349 345 331 330 326 338 338 335 336 333 334 336 336 332 332 332 331 330 328 327 328 327 327 326 325 323 320 319 316 318 319 322 326 331 335 337 338 338
350 348 348 343 344 343 334 333 327 318 335 336 335 336 334 331 331 330 335 333 332 332 331 330 330 329 327 327 327 327 325 325 324 320 317 317 316 317 318 320 321 325 328
351 347 347 348 345 333 320 330 334 331 330 336 334 334 335 334 333 333 333 330 330 332 333 331 331 331 331 329 329 328 327 326 325 322 320 319 318 317 317 317 318 318 319
349 350 349 346 341 330 318 322 319 320 323 329 333 334 335 333 332 332 331 330 330 330 329 332 332 331 331 331 331 329 328 328 328 328 327 322 319 319 319 319 318 317 317
348 349 348 345 335 329 318 324 323 320 321 318 318 326 334 333 332 332 332 331 331 330 329 329 330 332 332 333 331 329 329 329 329 327 324 325 325 324 322 320 319 319 318
351 347 345 347 346 344 324 321 321 320 321 327 321 320 331 334 332 332 331 330 330 331 329 330 329 330 332 331 330 330 330 329 328 325 324 326 326 326 327 326 325 325 322
348 347 346 346 346 345 340 321 321 322 327 329 327 320 323 328 332 332 331 330 330 330 331 331 329 329 327 327 327 327 327 328 327 327 326 324 326 327 327 327 325 324 324
352 349 346 347 346 345 342 322 320 323 326 329 329 326 328 329 332 333 330 331 333 330 328 329 328 328 326 325 324 325 325 327 327 327 328 327 327 326 326 326 326 326 325
352 352 349 346 346 344 342 329 320 323 324 327 331 331 328 330 326 322 330 331 331 329 330 330 330 328 329 327 327 326 327 325 326 326 326 329 326 325 325 326 326 326 326
347 350 351 350 348 345 343 339 326 324 323 328 332 333 329 326 325 319 329 327 327 329 330 331 326 329 328 330 330 328 326 327 327 329 329 328 326 325 325 328 325 324 325
348 350 350 350 349 347 345 342 339 325 327 326 330 328 330 329 320 323 329 328 328 326 326 327 328 328 329 329 329 328 327 326 324 323 323 323 324 325 326 326 325 325 325
346 352 354 353 352 349 347 345 343 334 327 327 328 330 332 333 329 329 329 328 328 327 328 329 327 327 328 327 326 326 327 323 320 320 320 319 319 321 323 322 320 322 322
346 349 353 355 353 352 351 349 346 339 330 328 329 330 333 334 333 331 331 330 331 330 329 328 329 328 327 326 322 325 326 324 322 317 318 316 315 314 317 320 319 319 320
354 356 355 355 355 355 353 351 348 341 334 328 331 333 335 335 335 333 334 333 330 329 330 330 328 327 326 325 326 326 324 324 323 318 317 319 319 321 319 318 319 319 320
357 358 356 355 356 357 357 353 348 338 333 335 336 336 334 331 336 332 331 327 329 329 330 328 328 326 324 326 326 325 325 323 319 317 318 318 319 320 318 316 317 319 320
359 358 357 356 356 355 353 350 345 336 334 336 333 334 334 333 332 333 329 328 328 326 328 327 327 325 326 326 325 325 323 322 321 320 320 320 320 320 318 314 311 313 316
358 357 358 357 355 352 347 345 343 338 336 334 337 334 335 332 331 330 328 329 327 329 327 324 324 326 326 325 323 323 321 322 322 322 318 317 315 313 312 311 311 316 316

GFSMA_850_thetae_018.txt.gz
Theta_e
342 346 344 346 344 344 344 343 344 341 342 340 340 337 337 337 336 336 336 336 336 335 337 339 339 330 327 328 330 331 328 323 322 330 333 332 335 326 330 333 330 328 330
345 346 343 344 345 344 346 345 344 344 342 342 344 336 337 337 336 339 337 338 337 336 336 338 338 341 333 328 330 330 330 327 326 323 324 332 329 334 324 328 331 326 325
347 346 343 345 345 345 345 344 342 342 343 337 336 336 335 337 337 335 334 338 339 338 336 336 338 338 339 340 333 330 336 336 328 327 325 323 328 324 334 335 331 324 322
348 347 345 341 343 346 345 345 342 341 342 340 333 336 336 337 338 336 337 337 337 341 339 338 336 337 338 338 340 341 339 334 334 336 336 332 328 328 328 326 325 330 329
349 347 344 343 344 346 345 344 343 342 340 337 334 335 336 336 338 337 336 337 340 338 341 341 338 336 337 339 339 339 340 341 340 336 336 336 335 334 333 330 328 328 330
349 346 344 345 343 344 343 343 343 342 338 329 336 335 335 336 338 337 335 335 337 338 338 338 340 341 336 336 337 338 339 339 341 342 342 342 340 339 337 333 332 333 332
348 344 347 344 345 346 343 342 342 331 327 336 335 335 333 337 336 336 333 333 333 332 333 335 335 338 339 339 337 336 335 337 339 340 340 341 341 341 341 341 341 338 333
345 348 347 344 343 343 344 340 340 325 335 336 335 334 336 336 334 333 333 328 330 329 329 329 331 333 335 337 334 329 329 333 336 337 338 339 339 339 340 340 340 340 340
347 349 346 344 342 341 342 344 340 324 335 335 334 335 338 338 337 333 332 330 330 330 328 326 327 327 326 326 325 324 322 320 321 327 331 334 336 337 337 338 339 339 339
349 350 346 344 345 338 344 346 333 329 336 336 334 332 334 337 336 333 332 330 331 330 331 328 328 329 326 327 327 326 325 324 323 320 316 316 319 321 326 331 334 336 338
348 350 349 347 344 336 341 342 328 321 335 336 335 334 334 331 332 334 334 332 332 331 331 331 329 329 330 330 329 329 327 326 324 323 320 318 317 316 316 317 319 320 323
349 349 350 340 337 340 328 325 325 329 321 335 335 334 334 331 331 330 332 333 332 332 332 332 331 330 330 331 331 331 329 328 327 328 326 324 323 318 318 317 317 316 317
350 349 350 346 343 338 333 319 324 331 324 330 335 334 334 333 332 332 331 330 331 330 329 329 331 330 330 331 331 331 329 329 329 329 328 324 325 322 319 319 318 318 318
345 346 348 348 345 337 333 319 320 323 321 321 330 334 333 334 332 332 331 330 330 330 329 328 330 331 331 331 331 331 329 329 330 329 327 325 325 325 325 326 326 325 324
347 349 348 348 344 337 332 321 319 320 320 320 318 324 328 334 333 332 332 332 331 330 330 329 329 329 330 332 332 330 330 329 328 328 327 327 325 326 327 327 327 327 325
352 349 350 348 343 346 345 342 323 320 322 323 323 320 321 333 334 332 332 331 330 329 330 330 331 329 328 329 328 327 325 324 326 328 327 329 327 327 327 327 326 326 326
352 351 351 348 344 345 345 345 342 321 320 324 323 324 322 319 332 332 332 331 330 330 331 330 329 328 328 328 326 324 325 326 327 325 326 327 326 328 327 326 326 325 325
350 352 350 348 347 346 346 345 343 335 320 322 323 323 327 326 326 329 332 332 332 332 331 330 329 329 327 327 327 326 328 329 327 326 326 327 327 330 327 326 325 325 327
348 351 352 351 350 347 346 346 344 342 328 321 323 324 327 329 326 327 327 325 329 331 331 329 328 327 326 328 329 329 330 328 328 327 327 327 325 324 323 324 326 327 326
344 348 350 351 351 350 349 347 346 344 341 329 322 324 326 331 330 327 327 326 327 330 328 331 326 326 327 326 327 328 327 326 326 324 321 320 319 318 319 322 326 325 325
343 345 347 349 351 350 350 349 348 346 344 342 329 324 323 325 329 329 330 322 328 331 329 329 327 328 327 328 327 327 325 324 325 322 321 318 317 316 314 314 315 315 316
344 344 346 345 348 349 350 351 351 349 346 343 337 329 325 327 327 330 331 331 330 332 331 329 328 329 328 329 327 326 325 326 325 321 321 318 317 317 319 318 315 314 316
342 345 348 350 352 355 353 352 352 351 348 346 343 335 329 329 331 332 335 334 332 329 329 326 327 328 328 328 326 325 326 326 325 321 320 318 318 318 318 319 319 315 315
346 347 350 350 349 351 351 353 353 352 351 348 343 339 332 330 333 332 330 334 333 331 327 327 328 327 329 327 325 326 327 325 323 321 321 321 320 319 317 317 315 312 310
351 351 351 354 353 334 353 355 357 355 351 347 340 333 334 336 336 335 331 333 332 327 326 327 327 328 327 326 326 326 324 324 324 321 322 322 318 315 314 313 312 310 309
352 353 356 357 354 353 353 355 356 349 345 341 336 335 337 335 331 333 330 331 331 327 327 327 329 327 325 325 324 322 319 320 322 320 317 315 314 314 313 311 310 309 313

GFSMA_850_thetae_021.txt.gz
Theta_e
344 345 343 344 344 344 342 342 342 342 342 340 338 336 336 336 335 336 336 336 335 333 337 340 334 329 326 333 333 327 334 324 325 332 329 332 330 327 327 328 327 327 329
344 346 343 342 343 343 344 341 343 343 344 342 342 335 336 336 335 338 336 337 337 335 335 338 339 338 330 331 333 335 332 328 323 323 333 334 330 330 325 330 334 332 331
345 347 345 344 344 344 344 345 344 343 343 337 337 336 334 334 335 335 334 336 338 337 335 336 338 339 340 336 330 331 335 334 327 326 324 324 332 331 334 329 331 328 324
347 347 346 344 343 345 345 345 344 342 342 338 335 333 335 336 338 336 337 337 336 340 338 337 336 338 338 338 341 338 334 334 336 333 332 328 324 330 327 329 331 329 329
349 347 346 343 344 346 345 343 342 339 341 339 338 333 335 334 338 334 336 338 338 338 339 338 338 335 334 338 338 339 340 340 338 335 335 336 336 334 332 331 328 327 329
349 348 345 344 345 341 343 340 343 340 340 335 333 335 336 336 337 335 334 333 336 337 336 337 337 338 337 334 337 338 338 339 340 341 340 339 339 336 334 333 333 332 332
348 348 347 346 345 342 343 340 339 342 330 331 336 334 334 336 338 336 335 333 330 331 332 330 335 338 338 337 338 335 334 335 338 339 339 340 341 341 341 341 341 340 337
347 348 345 347 344 342 343 342 341 339 328 336 333 334 335 335 336 336 333 330 329 329 328 327 330 333 336 336 335 330 327 327 333 336 337 338 339 339 339 340 340 340 340
348 345 347 348 343 342 341 343 341 337 332 335 335 333 336 336 333 332 331 329 329 329 327 327 327 326 326 326 325 324 322 320 318 319 323 327 331 334 336 336 337 338 339
346 346 348 348 344 343 340 340 344 332 332 335 334 333 335 336 336 333 330 329 330 329 330 329 329 329 327 328 328 327 326 324 323 320 318 316 315 316 319 322 327 331 335
344 346 349 349 346 345 341 339 342 331 331 335 335 332 331 336 336 336 333 330 330 330 330 331 330 330 330 329 330 330 328 327 326 327 326 324 323 320 317 316 316 317 318
347 348 349 348 348 345 341 336 331 330 324 333 335 334 332 330 331 333 334 333 331 332 332 331 331 330 330 330 330 330 330 328 328 328 328 326 322 323 319 318 317 317 317
347 348 349 349 348 340 338 331 322 323 327 323 333 334 334 334 332 331 331 332 330 330 331 329 329 331 330 330 330 330 330 329 329 329 329 327 324 324 324 324 323 323 321
348 348 347 348 348 346 344 337 323 321 324 324 327 332 333 333 333 332 331 330 330 330 330 329 329 331 331 331 330 330 331 329 329 329 329 328 327 326 326 326 326 326 326
347 346 346 346 347 347 344 339 326 319 321 321 319 323 331 333 334 333 332 332 331 331 330 329 329 329 328 329 330 331 330 329 326 325 327 328 328 329 327 327 327 327 326
348 347 345 346 348 348 344 336 332 320 320 322 321 319 319 325 330 334 333 331 331 330 330 329 330 330 329 328 328 326 325 324 325 326 326 327 327 329 326 327 328 328 327
347 346 345 349 348 348 343 344 344 340 324 320 323 322 321 320 322 333 334 332 331 330 330 329 329 331 329 328 329 328 326 326 327 327 327 326 325 326 327 327 329 327 325
345 344 348 350 349 349 344 344 344 345 343 332 320 324 322 323 322 320 328 332 332 331 331 331 330 329 329 328 327 328 328 328 329 329 328 328 326 327 328 329 329 328 326
344 342 348 350 350 350 348 346 345 345 345 343 330 321 323 323 325 326 326 327 332 330 329 331 331 330 329 329 326 325 326 327 327 326 327 327 324 321 320 320 320 320 323
341 343 345 348 350 350 349 348 348 346 346 345 342 331 322 323 325 327 330 328 329 329 326 329 330 328 330 328 329 328 327 327 326 323 323 323 320 319 317 316 316 316 319
341 340 343 346 348 350 352 351 350 349 348 347 344 340 331 324 324 325 328 332 331 328 326 331 332 330 328 326 328 328 328 327 325 323 324 320 318 317 316 316 317 318 316
343 342 342 341 344 345 347 349 349 350 350 349 347 344 341 337 327 325 327 330 332 333 330 330 332 331 328 326 328 327 328 326 324 325 324 322 320 318 317 317 317 317 317
349 345 342 343 342 340 340 340 346 349 351 351 349 346 344 343 334 327 328 331 334 333 334 329 330 330 327 328 327 328 328 326 326 325 324 323 320 321 320 318 316 315 314
348 348 343 340 341 338 336 342 346 353 354 352 349 349 347 344 339 333 330 333 332 330 334 328 331 327 327 327 328 327 326 325 325 324 323 324 321 321 320 316 315 314 312
350 347 347 341 338 339 343 347 352 356 354 353 353 346 346 339 337 335 334 336 333 331 333 332 328 327 327 328 327 326 325 326 323 319 319 320 316 316 315 315 312 311 310
351 350 348 345 344 349 352 353 351 353 356 355 348 344 341 335 335 336 337 333 334 330 330 329 328 327 327 325 321 320 320 319 319 317 316 314 315 313 311 311 310 309 309

GFSMA_850_thetae_024.txt.gz
Theta_e
344 344 344 343 344 343 341 342 342 341 342 339 338 334 333 335 336 336 336 335 335 334 338 341 337 327 328 330 335 326 328 325 324 331 329 334 331 326 326 327 327 327 327
342 345 343 343 343 342 342 343 341 341 342 341 341 335 334 333 334 337 336 336 336 335 336 338 340 336 329 335 333 333 330 331 322 322 325 330 333 333 328 327 332 334 331
344 346 346 343 344 344 344 344 344 342 342 337 339 334 334 333 334 333 334 336 338 337 334 336 338 339 339 330 334 334 334 333 328 326 322 327 328 330 329 330 325 328 327
346 346 346 345 344 343 345 344 344 342 341 338 335 333 335 333 335 335 337 336 335 338 337 336 335 338 338 339 339 337 335 335 337 335 329 327 324 325 332 326 329 331 330
348 346 347 346 343 343 345 345 343 342 341 339 337 334 334 331 337 333 334 337 337 336 337 336 339 334 335 337 337 338 339 338 336 334 333 335 335 333 330 330 329 327 327
347 348 348 345 344 344 344 343 341 342 339 338 332 333 334 336 335 334 334 333 335 336 335 336 338 336 337 335 335 337 338 338 340 340 340 338 335 336 336 334 333 333 332
346 347 347 346 345 345 342 343 337 340 340 329 336 335 336 335 337 336 335 332 330 330 330 328 334 336 336 336 337 333 330 332 335 337 338 340 341 341 341 341 341 341 340
345 347 348 347 347 346 342 343 342 341 336 333 334 334 334 335 337 336 334 330 329 326 326 326 331 334 335 336 335 331 325 324 327 333 335 336 337 337 338 338 339 339 339
345 346 346 346 347 347 343 341 343 341 329 334 334 333 334 335 335 336 333 331 329 329 327 328 326 325 326 326 325 324 322 321 320 319 317 318 321 325 330 333 336 337 337
345 346 346 347 348 347 343 340 343 343 327 332 333 333 334 335 333 332 332 331 330 329 330 329 329 328 327 328 328 327 326 323 322 324 325 324 322 319 316 316 317 319 322
343 343 345 346 348 348 345 342 339 343 330 332 335 332 332 334 336 335 333 332 329 330 330 330 330 329 329 329 329 330 329 327 327 328 328 327 322 321 320 318 317 316 316
344 343 344 345 348 349 347 341 339 340 329 329 334 335 332 331 333 335 335 333 331 330 331 331 331 331 330 330 330 329 330 329 329 329 329 328 324 322 323 322 320 319 319
344 344 345 348 348 348 345 338 336 331 326 324 325 333 335 333 331 331 329 331 332 332 331 331 330 329 330 330 330 330 329 330 329 329 329 329 327 325 324 325 325 326 325
344 344 344 346 347 348 347 339 335 331 324 325 324 329 333 333 333 333 331 331 331 330 330 330 329 328 330 331 331 331 330 329 330 329 327 327 328 328 328 326 326 326 327
341 342 347 347 346 347 348 346 341 337 322 324 322 320 327 332 333 333 333 332 331 331 330 330 329 329 329 328 328 330 331 330 328 326 325 326 327 327 328 329 328 327 326
345 341 344 347 346 346 348 347 343 336 330 322 323 321 319 322 326 331 333 333 331 331 331 330 329 329 330 329 328 328 327 326 325 326 327 326 326 325 325 325 327 327 327
344 343 340 346 344 344 347 348 345 338 337 322 322 323 322 320 318 321 326 332 333 332 331 330 330 329 330 329 329 329 327 328 328 328 329 329 328 328 327 325 326 328 328
346 343 341 346 345 344 348 348 344 343 343 342 335 323 322 323 321 321 320 326 330 332 332 331 331 331 330 329 329 328 326 327 327 326 327 327 327 327 327 323 320 319 321
349 342 342 344 343 344 348 348 346 343 344 344 344 342 330 323 324 324 324 323 327 328 331 332 329 330 331 330 329 327 327 328 327 327 326 325 324 323 322 319 318 317 316
349 346 341 343 343 345 348 347 348 347 346 346 345 345 343 330 324 326 328 328 328 329 330 330 329 327 330 331 330 328 326 327 327 327 327 324 323 321 319 317 316 315 315
348 348 341 342 343 342 346 346 347 348 348 348 347 346 345 343 335 327 326 330 332 333 332 330 328 327 331 331 330 327 326 327 327 327 326 322 322 320 318 317 317 317 317
348 349 347 341 342 341 342 346 347 349 350 350 350 349 347 345 342 341 332 328 333 335 334 334 332 329 330 332 329 328 327 327 328 326 324 323 323 321 320 320 320 318 317
347 348 349 345 341 341 343 344 346 347 348 349 349 349 349 347 345 343 341 331 330 332 333 334 333 333 331 329 329 328 327 327 327 325 325 325 322 320 319 320 321 317 316
347 347 347 347 344 342 343 342 342 344 347 347 348 351 350 348 347 345 343 336 332 332 333 332 330 332 329 329 327 327 328 327 325 324 324 322 319 320 318 317 317 316 313
347 347 347 348 347 343 340 340 344 344 347 346 350 353 352 350 347 345 343 338 334 333 335 333 332 332 331 327 327 327 325 324 324 320 318 319 317 316 316 316 313 310 309
348 348 348 347 347 346 343 337 342 344 345 349 351 355 352 347 344 340 338 335 335 335 334 332 329 330 329 328 325 319 318 318 318 317 316 316 315 313 311 310 309 307 307

GFSMA_850_thetae_027.txt.gz
Theta_e
344 342 343 342 343 343 341 342 341 342 341 339 339 334 334 334 336 337 335 335 335 335 339 341 336 332 328 332 334 327 326 325 325 327 329 332 332 326 328 327 327 329 327
343 344 343 344 344 343 343 343 341 341 341 341 341 334 332 334 333 337 336 337 335 335 336 339 340 335 328 329 330 332 328 334 329 323 332 328 331 332 331 326 330 333 333
344 345 346 344 344 344 344 344 344 341 342 337 338 334 333 333 332 333 335 338 341 336 335 336 338 339 337 329 335 332 333 332 329 327 324 326 334 331 329 328 327 326 327
346 345 346 346 345 344 344 344 342 340 341 338 335 332 334 334 335 336 336 336 336 341 338 336 335 337 338 339 337 334 334 335 335 336 332 328 326 323 326 332 326 329 332
347 348 345 346 344 343 345 344 343 343 339 340 336 335 334 332 337 333 334 335 337 335 339 335 337 335 335 336 337 338 339 337 335 333 335 335 335 335 331 329 329 329 328
346 347 347 347 344 344 344 344 342 343 340 338 333 330 334 335 334 334 334 333 337 336 337 337 338 340 338 336 334 336 337 338 338 340 340 339 338 336 336 337 336 334 333
346 346 347 346 346 345 345 343 343 339 340 337 333 335 335 335 336 335 333 336 331 334 330 328 334 337 337 336 336 332 329 330 334 336 338 338 339 340 340 340 340 340 340
345 345 346 347 347 346 346 344 344 342 340 327 336 336 336 335 336 336 334 329 326 329 328 326 331 333 335 336 333 328 323 322 323 329 333 334 335 335 336 336 335 336 337
345 344 346 347 347 347 347 344 343 344 341 332 334 335 335 335 337 336 335 330 328 328 329 328 326 325 325 325 325 325 323 322 320 319 318 317 317 318 320 323 325 328 332
347 345 345 346 348 347 348 345 343 344 342 333 334 334 333 335 336 336 334 332 329 329 329 329 329 328 327 328 328 327 324 325 327 327 327 326 323 321 320 317 316 316 317
346 345 346 346 347 346 348 347 344 340 343 329 334 333 332 333 336 336 336 335 332 330 330 330 330 330 330 329 329 330 329 328 328 328 328 327 324 322 322 321 319 318 318
345 346 345 345 346 346 349 348 345 338 339 328 331 334 334 334 334 336 337 336 335 334 330 331 331 331 330 330 330 330 330 330 329 329 329 329 327 324 324 324 324 324 323
344 342 345 344 344 345 348 348 342 336 333 328 325 332 334 333 332 329 331 333 334 333 331 331 331 331 329 330 330 330 330 329 330 329 329 328 328 327 327 326 326 326 326
343 340 342 343 344 346 347 348 340 332 326 325 325 323 327 333 333 333 332 333 334 333 330 331 330 329 328 329 331 331 331 330 329 330 329 326 326 327 327 328 328 327 326
346 341 342 344 342 344 347 348 346 337 331 325 324 325 323 329 331 332 332 332 333 332 332 332 332 329 329 328 328 328 328 330 330 329 325 324 324 324 324 324 325 326 326
348 346 342 343 343 344 347 347 348 344 335 328 322 324 323 321 323 327 331 333 332 333 332 333 331 329 329 329 329 328 328 327 326 325 325 327 328 328 328 327 328 324 324
348 348 346 343 342 346 346 345 347 347 340 329 323 321 323 323 320 321 320 324 327 332 333 333 330 330 330 330 329 329 328 326 328 329 328 327 327 328 328 328 327 325 322
347 348 347 345 342 343 344 344 346 347 343 331 331 325 321 322 323 322 320 320 320 328 333 332 334 330 331 330 329 329 329 327 326 327 327 327 327 325 325 324 322 320 318
346 347 348 346 343 340 344 342 345 347 345 340 341 342 342 336 325 323 324 323 323 322 326 332 333 331 329 330 330 330 329 327 327 327 327 327 327 325 322 321 319 317 316
346 347 348 348 340 340 342 341 342 347 346 342 343 343 344 344 342 332 324 326 327 327 328 329 333 333 329 330 330 332 332 329 327 326 327 327 326 322 322 321 318 317 317
346 346 347 348 345 339 341 341 341 347 346 346 345 345 346 345 345 343 331 327 328 330 332 333 335 333 333 328 327 332 330 330 327 327 327 327 326 326 324 322 319 318 319
346 346 347 348 348 339 338 340 341 345 347 347 347 347 347 347 346 345 344 340 328 328 332 335 336 335 333 330 328 331 331 330 329 327 327 327 324 325 326 325 321 319 319
345 345 346 347 348 346 336 338 339 340 345 346 347 349 349 349 349 347 346 344 337 331 330 333 335 333 333 333 332 329 329 327 328 330 326 327 327 326 324 322 320 319 318
344 345 346 346 347 346 340 337 338 341 341 344 346 347 349 350 349 349 347 346 341 338 332 331 332 333 331 332 331 329 327 327 328 326 325 325 323 322 322 320 318 317 316
344 344 346 346 345 344 342 342 340 340 342 342 344 346 348 348 349 348 347 346 343 341 334 332 334 333 332 332 331 328 327 327 327 326 323 321 320 320 319 318 316 313 308
345 345 345 346 346 344 343 343 344 342 344 345 345 344 347 349 352 352 348 346 345 341 335 333 335 333 331 330 330 328 327 324 322 321 321 318 318 317 315 312 313 311 310

GFSMA_850_thetae_030.txt.gz
Theta_e
351 351 351 349 348 349 348 347 346 347 342 340 341 339 338 338 339 339 341 334 333 336 341 338 332 336 331 334 333 326 327 327 327 327 331 335 334 327 329 326 327 328 327
346 351 350 349 349 350 350 346 346 347 342 342 344 341 336 338 338 339 339 338 335 334 337 339 339 336 328 329 331 333 327 334 330 323 332 330 331 334 333 330 327 331 333
344 346 349 349 349 351 343 345 346 346 344 340 340 337 337 338 339 338 340 342 341 336 334 338 338 339 336 329 335 334 333 331 330 330 325 322 330 334 333 330 331 327 327
345 346 347 349 350 347 346 350 347 345 341 338 339 338 336 339 339 338 339 342 341 343 337 335 336 338 339 339 335 335 334 334 334 335 335 329 327 326 326 332 332 327 329
345 347 353 352 347 351 349 348 347 346 341 340 338 337 335 338 336 336 338 340 341 340 342 335 335 335 335 336 338 338 339 336 335 335 334 335 334 335 336 333 331 331 332
344 346 352 346 348 350 350 349 343 344 342 340 337 335 337 338 337 337 336 337 341 340 341 343 342 340 337 336 333 337 337 338 338 339 340 340 339 339 338 337 338 337 336
344 345 351 348 351 350 347 347 347 345 342 340 335 337 337 337 337 337 336 336 337 338 337 338 340 340 339 336 335 333 330 328 332 335 337 338 338 339 340 340 340 340 340
346 345 345 349 350 351 345 346 341 345 342 335 337 337 336 336 336 336 336 335 335 334 334 335 340 341 338 343 336 325 323 321 323 327 330 331 333 334 335 335 335 335 335
345 345 343 346 350 348 350 346 345 345 341 337 336 339 336 336 336 336 338 336 337 334 334 336 336 338 337 333 330 325 323 321 320 320 321 321 320 318 317 316 317 319 323
346 346 344 345 345 351 352 348 349 346 343 338 338 337 337 339 337 338 336 338 337 336 336 335 335 336 335 334 329 327 324 326 327 327 327 326 324 321 321 320 318 316 316
347 351 346 345 346 346 350 349 347 343 346 337 338 338 337 337 337 337 338 337 338 336 337 336 335 335 336 335 335 331 328 328 328 329 329 328 326 323 322 323 322 320 319
351 347 350 345 346 347 347 351 348 344 341 336 337 338 336 336 336 337 337 337 337 337 336 335 336 336 335 336 335 333 330 330 330 329 329 328 327 327 326 325 325 325 325
349 350 345 344 348 343 345 347 349 345 338 335 323 338 339 338 336 334 334 335 334 335 335 334 335 335 335 335 335 334 331 330 330 330 329 329 326 326 327 328 328 327 326
350 351 351 343 343 343 344 346 349 346 338 326 323 326 338 339 339 337 336 335 336 334 334 334 334 334 334 334 334 332 333 331 330 330 330 329 324 322 323 324 325 326 328
352 353 352 341 342 342 343 345 349 342 336 324 323 323 325 336 338 337 336 335 335 335 334 335 333 334 334 335 334 329 329 333 329 330 330 327 323 326 327 327 327 327 327
350 353 352 347 346 343 341 344 347 346 342 334 332 326 323 334 337 337 336 335 335 334 334 334 334 334 334 334 334 329 335 328 327 327 326 325 327 327 327 328 329 328 328
348 347 348 345 348 349 341 342 346 351 344 341 335 332 323 325 335 335 336 336 336 335 334 334 335 334 330 329 334 331 333 333 332 331 328 327 326 326 327 326 326 326 323
347 347 348 348 345 351 347 343 344 349 345 345 341 335 326 324 324 329 336 334 335 335 333 335 335 337 334 334 331 330 333 333 333 333 330 327 327 327 326 325 323 321 319
346 346 347 348 347 346 347 341 343 344 344 344 345 338 331 328 323 332 326 334 335 335 335 334 334 337 336 336 336 333 336 335 334 332 329 327 327 327 327 324 321 319 318
345 346 346 347 348 347 345 342 340 342 342 344 345 345 340 341 341 340 335 326 328 333 335 335 334 334 336 336 335 333 335 335 333 333 331 329 327 327 326 322 320 320 319
344 345 346 346 347 348 351 340 337 339 341 341 344 345 343 343 343 344 343 343 335 332 334 335 336 335 335 335 336 335 333 330 333 333 333 332 330 330 330 328 327 327 325
344 344 345 346 346 347 350 346 336 337 338 339 341 346 346 345 345 345 346 344 343 338 337 336 337 336 337 337 337 335 334 334 331 333 332 332 332 331 329 328 327 327 325
345 344 344 345 346 346 347 345 338 337 338 338 338 347 348 349 346 347 347 347 343 343 340 337 337 336 337 338 336 336 336 335 334 333 331 332 330 329 327 325 324 323 319
346 346 344 345 346 346 346 346 346 341 339 341 342 343 346 347 349 347 349 349 348 346 344 338 334 338 337 338 333 334 335 333 332 333 332 331 328 324 324 323 322 320 318
351 355 356 353 347 346 346 346 347 348 344 341 342 343 346 346 350 348 349 350 348 348 345 343 337 333 334 334 334 335 335 333 332 331 329 327 323 322 322 320 319 318 314
356 357 356 355 354 349 349 348 347 347 349 348 347 347 342 342 345 346 348 350 349 347 346 344 340 332 333 334 333 332 333 332 330 325 325 323 319 319 319 318 315 314 313

GFSMA_850_thetae_036.txt.gz
Theta_e
350 346 351 348 350 349 346 348 348 346 342 337 342 339 339 337 339 342 338 330 335 335 327 335 329 330 332 332 328 331 325 325 329 331 333 334 332 328 327 326 327 327 328
350 349 349 348 348 349 347 349 346 345 343 341 337 338 341 339 336 343 337 334 330 336 340 336 332 333 329 332 333 326 325 325 325 324 328 332 329 332 332 331 329 325 326
348 347 350 349 349 347 346 344 344 345 343 340 338 338 336 337 339 341 343 343 342 334 336 339 337 333 330 327 330 331 332 331 333 330 327 323 323 329 331 332 330 330 329
350 346 349 351 344 347 347 345 344 346 339 341 337 339 338 338 337 342 344 344 342 342 335 334 337 338 339 332 335 335 334 333 331 332 334 333 329 327 326 331 325 330 328
344 348 348 348 349 349 348 346 344 344 340 339 339 337 337 336 340 338 338 338 341 340 339 338 334 335 336 337 338 338 336 335 335 334 335 334 334 334 335 336 335 334 334
342 345 351 351 350 349 346 344 345 340 342 340 338 338 339 339 339 339 338 340 342 341 341 339 339 341 336 334 334 336 338 338 338 338 338 338 339 338 338 338 338 338 338
344 343 349 352 348 348 350 344 341 342 343 339 335 339 338 339 337 337 339 339 339 336 341 336 340 342 337 336 334 331 332 329 330 332 334 336 337 338 338 338 339 339 339
349 346 346 353 352 351 346 341 345 347 342 337 340 338 338 337 336 337 336 336 337 335 336 338 338 339 343 340 326 324 323 323 323 324 323 321 321 321 322 324 326 328 330
348 349 351 349 352 351 351 347 335 344 341 337 342 344 341 337 337 337 335 335 335 335 334 338 339 339 338 333 328 324 322 320 320 322 324 324 323 322 321 320 318 317 316
346 352 352 348 351 346 351 348 340 345 346 336 335 342 343 343 337 337 338 338 336 336 336 337 337 330 335 336 331 327 325 325 326 326 326 325 322 322 322 321 321 321 320
351 349 354 348 344 348 354 350 348 343 340 343 337 337 338 338 340 339 338 339 338 338 338 337 338 338 337 337 336 336 330 328 329 328 327 326 322 321 323 323 323 325 325
353 352 354 353 348 344 353 352 347 342 344 341 341 341 339 337 339 338 340 338 338 338 338 338 336 336 338 337 336 337 336 332 330 330 330 330 328 323 322 323 324 324 324
351 352 349 354 352 347 347 352 346 348 335 341 340 341 341 340 340 339 338 339 339 339 339 338 337 337 337 338 337 338 337 336 333 330 330 330 330 327 323 325 326 326 326
352 351 351 349 346 344 348 352 345 352 347 333 328 341 340 341 340 340 338 338 338 338 338 336 336 336 337 336 336 336 336 335 335 333 331 330 330 329 324 326 326 327 327
351 350 349 350 350 349 345 348 349 346 351 345 327 324 336 341 341 341 339 339 338 338 339 338 336 336 336 336 336 336 334 332 334 334 330 328 328 328 324 326 326 326 326
349 352 350 349 350 351 350 350 347 346 352 349 341 327 324 330 339 340 339 338 337 336 336 339 338 337 336 336 336 336 336 334 336 335 328 327 327 327 325 326 326 327 326
357 349 356 352 350 350 347 350 349 348 348 350 345 334 329 327 328 338 339 338 338 337 336 333 336 337 337 336 335 333 335 333 334 333 334 333 333 330 327 326 327 327 326
351 357 351 357 353 352 345 346 345 343 352 351 349 342 334 330 329 330 338 338 338 338 338 337 336 339 339 338 338 335 329 332 336 338 335 334 334 332 329 328 328 327 326
348 349 353 352 354 352 350 344 341 339 340 352 351 349 341 338 332 327 327 335 338 338 338 338 337 335 337 337 339 338 337 334 332 332 333 333 334 333 332 331 330 328 326
343 345 347 350 353 352 350 349 347 344 342 344 355 352 345 341 337 334 330 325 330 337 337 336 334 336 336 338 338 338 338 336 337 337 337 335 334 333 333 332 330 328 329
340 341 343 347 352 354 350 349 349 349 347 340 340 353 351 342 340 336 337 332 325 329 338 337 337 338 338 337 338 337 339 337 336 335 335 334 335 334 333 331 330 331 330
347 346 345 343 345 347 345 344 345 350 351 349 345 341 345 345 344 340 338 338 333 334 337 335 336 339 339 340 338 338 338 338 337 336 336 334 335 335 334 333 331 326 325
353 350 347 342 339 340 341 342 343 346 349 351 349 347 346 345 348 347 348 345 345 340 341 342 343 344 342 340 339 339 339 338 337 337 333 336 335 335 332 329 326 325 324
356 353 353 347 342 336 337 340 342 344 346 347 348 347 347 347 349 347 346 349 345 344 341 342 344 345 345 344 341 340 339 339 338 333 332 335 332 332 332 328 324 324 323
360 357 354 353 345 342 340 339 341 345 349 348 349 350 350 349 348 349 351 349 348 342 344 344 344 345 346 346 343 340 340 339 336 332 333 333 333 332 330 323 322 321 321
360 361 358 355 353 347 345 345 349 353 350 349 353 353 352 351 350 349 353 353 352 349 345 343 345 346 346 342 343 342 341 336 336 335 333 333 333 331 326 321 321 320 318

GFSMA_850_thetae_039.txt.gz
Theta_e
347 349 348 347 349 345 344 344 345 340 336 336 339 339 340 342 341 341 332 331 338 327 331 329 332 329 329 327 327 323 322 326 331 331 332 332 331 327 327 327 326 328 330
347 347 349 348 348 347 343 343 343 338 334 338 336 339 340 338 338 341 341 332 334 339 337 333 329 326 329 331 326 325 325 325 325 324 327 331 329 331 331 330 330 327 325
346 349 348 348 348 346 345 344 343 341 339 339 335 338 336 338 338 342 342 342 341 333 337 339 333 329 325 326 329 330 328 328 331 329 327 323 323 327 330 331 333 332 330
347 347 346 347 346 349 345 345 345 341 340 341 337 338 338 337 338 339 338 340 340 340 335 333 338 338 337 329 333 333 332 331 330 329 331 333 330 327 327 328 333 326 328
346 343 346 348 345 347 345 346 344 344 340 339 338 338 337 337 336 339 338 340 340 339 338 335 334 335 336 337 338 337 335 333 333 334 334 334 334 334 334 335 335 335 336
341 343 348 345 347 348 346 345 344 343 340 339 340 339 337 338 339 338 339 340 340 340 339 337 340 338 336 333 333 335 337 337 338 338 338 338 337 339 338 339 339 340 340
346 343 345 349 348 350 347 344 341 337 338 338 337 339 338 339 339 338 340 339 338 336 338 338 340 338 337 337 333 331 331 330 330 331 333 334 335 336 337 337 338 337 337
344 344 342 351 349 351 344 343 341 341 342 336 338 337 335 336 337 338 339 339 335 335 336 338 337 337 339 335 323 322 323 323 323 322 321 320 320 319 319 319 318 317 317
343 343 345 347 352 351 350 345 341 344 339 337 342 341 339 337 337 337 335 336 335 337 334 335 336 336 334 330 326 324 321 320 321 323 324 324 323 322 321 320 319 319 318
344 343 344 348 347 351 346 348 336 344 341 336 340 343 344 339 336 336 336 335 336 336 335 336 336 331 334 333 334 329 325 325 326 325 324 322 318 321 322 323 323 323 323
346 343 343 350 346 348 345 349 341 344 343 337 335 340 340 339 337 338 338 338 336 337 337 337 338 337 337 336 336 336 334 332 329 329 328 326 322 321 322 323 324 324 324
346 349 348 351 347 345 347 352 347 341 337 340 340 340 335 339 339 339 338 339 338 338 338 337 336 338 335 337 337 336 337 335 335 331 330 330 329 325 323 325 326 326 326
346 349 352 350 349 345 346 350 352 345 337 340 340 341 340 338 340 340 339 338 339 338 338 338 337 336 336 337 338 337 337 336 336 334 331 330 330 329 326 324 326 326 326
346 347 349 350 346 344 344 342 346 344 341 334 340 341 340 340 340 339 339 337 338 338 339 338 338 337 336 336 336 336 336 336 335 334 333 332 330 329 328 325 325 326 326
349 349 351 350 350 349 345 343 343 343 345 336 327 335 336 339 339 339 335 337 338 338 339 338 337 336 336 336 336 335 336 335 333 330 331 328 327 326 327 325 325 326 326
348 352 351 351 350 349 349 347 342 341 342 343 333 329 327 336 339 340 340 336 335 337 337 337 338 337 336 335 335 336 335 336 332 331 332 330 330 329 326 326 325 326 326
347 349 353 353 350 349 349 349 345 343 343 343 343 341 333 325 338 338 340 339 337 335 333 333 335 338 337 335 336 335 335 335 333 329 335 334 334 333 333 330 329 328 327
347 348 349 350 355 352 350 350 344 340 344 342 338 343 340 333 328 328 335 336 337 335 335 333 334 335 337 337 336 336 337 336 330 329 334 336 335 334 333 332 332 330 329
338 348 354 353 352 354 354 352 351 338 335 336 338 343 342 345 336 329 329 334 336 336 334 336 335 336 338 337 337 338 338 337 334 328 331 332 333 334 334 332 332 330 328
334 339 348 355 353 351 352 354 352 349 343 337 337 333 335 341 337 335 331 329 334 337 336 334 333 335 336 337 337 338 338 337 336 335 334 335 334 335 334 333 331 330 330
336 338 340 344 349 352 352 351 350 350 349 347 344 338 336 334 334 334 337 334 332 331 333 332 333 334 334 335 335 337 338 337 337 336 336 334 335 334 335 334 332 332 330
336 339 340 341 343 345 347 348 348 348 347 347 345 345 343 338 336 337 337 337 338 337 331 328 327 331 335 337 339 338 337 338 338 337 336 335 335 334 335 334 333 332 329
339 339 342 342 342 343 345 347 347 347 346 344 344 342 341 343 343 341 339 341 343 341 340 339 328 330 336 338 339 339 338 339 338 338 337 336 334 334 334 334 332 329 325
350 348 347 345 343 342 342 344 347 349 349 347 345 344 343 342 342 343 344 345 348 348 346 345 341 333 336 340 341 341 339 339 338 338 338 337 335 331 333 331 331 328 323
357 356 355 353 351 347 345 343 348 351 353 351 350 349 347 345 345 346 349 349 348 348 347 347 347 345 341 342 343 343 342 340 339 339 338 337 331 332 330 332 331 325 321
358 358 358 357 355 353 353 354 355 355 354 353 356 356 354 352 353 352 353 352 352 349 348 347 349 349 346 343 343 344 344 342 341 340 339 333 332 332 332 332 328 323 320

GFSMA_850_thetae_042.txt.gz
Theta_e
345 345 346 346 345 344 344 342 342 337 338 339 338 338 338 341 339 334 330 336 332 327 329 329 328 328 326 323 323 321 324 330 332 332 333 333 332 328 328 327 326 327 329
346 344 346 346 347 344 343 340 338 340 338 339 340 339 338 338 339 339 336 333 337 337 332 331 328 328 330 326 326 327 325 325 325 325 327 331 329 330 332 330 328 328 327
344 345 346 346 343 344 342 341 340 336 335 335 338 336 338 338 340 340 340 340 337 335 338 337 330 329 326 328 329 327 324 325 328 327 324 323 323 325 329 328 332 332 331
342 346 346 347 345 344 346 344 341 338 336 338 338 338 338 336 340 338 340 339 339 336 333 337 338 338 336 328 328 328 329 329 329 329 330 333 333 330 328 329 333 331 327
342 342 346 349 343 345 344 343 344 340 339 338 338 338 337 336 338 338 338 340 338 337 336 334 336 334 335 337 337 336 335 334 333 334 334 334 334 334 334 334 335 335 335
339 342 344 347 344 344 345 344 345 341 341 339 338 338 337 338 338 338 338 340 339 339 336 338 339 336 334 332 332 334 336 337 337 337 337 337 338 338 339 338 338 339 339
344 342 345 343 345 344 346 346 344 341 340 338 339 339 339 338 339 338 339 339 336 337 335 338 340 336 337 336 330 330 330 330 328 329 331 333 334 335 335 336 335 334 333
343 344 342 347 346 346 348 343 342 340 339 336 338 338 338 337 337 339 339 339 334 335 335 333 335 335 336 333 323 322 321 322 322 322 321 320 319 319 318 318 317 317 316
344 343 342 346 347 347 349 345 340 341 336 336 338 337 336 337 338 339 338 338 335 335 334 336 334 333 331 330 327 323 321 320 322 323 323 322 322 321 320 320 319 319 319
346 344 342 342 345 350 349 348 340 342 336 336 337 339 339 337 337 339 337 336 336 336 334 336 337 336 335 335 334 332 330 328 326 323 323 318 320 322 323 323 324 324 324
346 344 344 343 347 346 349 348 336 344 341 337 339 342 343 338 337 336 335 335 336 336 336 336 337 337 336 337 336 336 336 335 333 329 327 326 322 323 324 324 325 325 325
343 343 346 342 347 345 345 345 346 339 344 336 337 337 340 339 337 337 337 337 338 337 337 337 337 336 336 336 337 336 336 336 335 333 330 329 328 326 324 324 325 326 326
344 344 346 348 345 345 342 343 348 344 341 338 338 339 338 337 337 339 337 339 339 338 338 338 337 336 336 336 336 337 336 336 336 335 331 330 329 328 327 326 325 325 326
345 345 346 349 349 346 344 342 349 349 346 338 340 340 338 337 339 340 339 338 338 339 338 339 338 338 337 336 336 336 336 336 335 333 331 328 327 327 326 326 325 325 326
346 346 346 346 348 348 347 343 342 342 345 340 336 339 338 339 339 340 339 338 337 338 337 338 338 338 336 336 336 336 335 335 335 332 329 327 327 326 326 326 325 325 325
345 345 347 348 349 349 348 346 343 341 345 343 340 332 335 336 338 338 336 337 337 337 338 338 338 338 337 336 336 336 335 336 335 333 329 331 330 331 331 331 330 329 328
344 346 347 348 350 350 350 349 348 346 341 341 342 340 328 327 329 331 334 337 337 335 334 333 336 337 337 337 336 335 335 335 335 334 329 333 334 334 333 333 330 331 330
342 346 346 349 352 353 351 349 349 348 346 340 338 338 339 337 328 326 332 334 336 338 337 334 333 333 334 337 337 335 336 336 337 334 330 332 335 335 334 333 332 331 329
341 344 350 347 349 350 352 351 350 349 349 339 335 336 330 334 339 335 327 330 333 336 337 336 334 335 334 333 337 336 336 336 337 336 333 327 331 335 333 333 333 332 331
337 338 341 346 346 348 349 350 352 351 349 347 339 334 334 333 333 337 340 336 329 330 333 337 336 336 335 336 337 337 337 337 337 336 335 332 333 333 334 334 333 332 331
334 335 336 339 345 348 350 350 350 348 348 346 346 345 342 337 332 331 333 336 342 339 332 333 337 337 336 336 336 336 336 335 336 337 337 334 334 334 334 333 334 333 332
334 334 334 333 337 343 349 350 349 350 349 349 348 346 346 346 345 342 338 336 335 338 342 339 333 335 333 333 333 335 336 335 337 338 338 336 335 334 333 333 335 334 333
335 333 332 332 334 335 337 340 344 347 349 348 348 348 348 346 344 343 341 341 342 338 337 337 339 340 338 335 330 328 335 336 339 338 337 337 337 336 336 334 334 334 334
347 339 335 333 333 335 337 339 341 344 347 348 347 347 348 346 344 344 344 343 342 341 341 342 341 337 338 339 340 334 330 335 339 339 338 338 337 337 337 335 335 334 331
355 354 354 351 347 344 343 345 348 350 351 352 352 351 348 347 347 348 350 350 349 347 347 346 345 345 346 345 345 345 334 336 338 339 339 339 338 338 337 335 334 330 329
355 356 356 356 356 356 356 356 357 358 357 357 356 354 354 353 355 356 356 356 355 349 354 353 352 351 350 350 350 350 347 338 337 340 340 339 338 337 336 333 332 330 331

GFSMA_850_thetae_048.txt.gz
Theta_e
340 341 343 343 343 342 342 340 341 341 339 341 339 340 341 338 335 331 333 328 328 327 326 325 323 322 324 326 325 326 329 330 330 329 335 333 331 331 330 328 327 327 330
344 343 344 343 343 343 342 340 339 339 337 337 337 337 340 338 334 333 335 335 330 331 329 329 327 327 326 325 326 325 324 324 324 324 325 327 328 328 327 329 332 332 330
344 344 343 344 343 342 340 337 340 338 337 337 336 336 339 338 338 338 337 336 337 338 336 332 329 327 329 331 329 326 324 323 326 329 327 328 329 327 325 325 328 333 333
343 345 345 341 341 341 340 339 337 337 337 338 337 336 339 339 339 338 338 336 334 335 336 337 337 336 332 332 337 331 330 329 330 330 333 334 334 334 334 333 334 334 335
343 345 345 343 341 341 341 339 337 337 339 339 337 336 338 339 338 340 337 337 335 335 334 335 334 334 335 336 336 337 336 335 335 334 334 335 335 336 336 337 338 337 338
344 343 345 344 340 340 341 340 338 339 340 338 337 338 337 338 340 339 339 337 336 335 337 336 334 335 334 332 331 332 333 334 335 336 335 335 334 335 336 335 334 332 328
342 341 342 346 341 341 343 343 341 339 338 337 337 337 337 338 339 339 338 337 337 333 336 338 336 334 332 331 323 327 328 329 327 327 327 327 325 322 321 319 318 317 317
343 342 342 343 343 341 342 344 343 341 340 338 337 334 338 337 337 338 338 338 335 333 333 334 334 334 332 324 322 321 320 321 321 320 320 321 321 320 320 319 319 319 319
344 343 344 343 344 345 343 345 341 340 339 337 339 338 337 337 336 338 338 338 335 334 335 335 332 330 330 327 325 324 322 322 321 320 318 318 319 319 320 321 322 323 324
344 344 344 343 342 345 343 345 342 340 340 339 337 338 335 335 336 336 337 336 336 335 334 336 336 335 333 334 334 334 332 328 325 323 322 322 322 323 324 325 325 325 325
344 344 344 344 342 342 347 345 347 339 341 335 336 337 336 335 336 336 335 336 336 335 336 335 336 336 334 336 335 335 335 334 331 329 327 326 323 324 324 325 325 325 325
343 344 343 344 344 343 344 345 347 341 342 335 335 337 339 339 337 336 336 336 337 337 337 336 337 336 336 335 336 336 335 335 334 333 330 329 328 327 326 325 325 325 325
337 341 343 343 343 343 343 346 344 344 340 341 336 336 336 340 340 338 336 337 337 338 338 337 337 337 336 336 335 335 335 335 335 335 334 332 330 329 328 328 327 326 325
331 338 341 342 342 345 343 346 344 343 344 337 342 338 335 336 337 337 337 337 338 338 337 337 337 337 337 336 335 335 335 335 334 334 335 334 332 330 329 328 327 327 326
333 340 342 342 342 344 347 346 344 342 346 345 341 339 338 337 339 337 336 338 339 338 338 335 336 335 337 337 336 336 335 334 335 334 334 334 332 331 330 328 327 326 327
334 338 342 343 343 344 345 348 347 344 342 345 345 343 337 338 339 338 337 339 339 338 338 333 334 334 333 335 337 337 337 336 335 335 335 335 335 331 330 329 329 330 330
337 336 340 342 344 344 345 345 348 345 344 341 340 341 341 335 336 338 338 339 339 338 337 332 333 332 331 330 330 332 335 336 336 335 335 335 335 335 330 330 332 333 332
340 337 338 341 342 344 345 346 347 348 346 345 342 340 338 340 336 332 333 334 335 336 336 334 331 331 331 333 333 333 331 331 333 335 336 335 335 335 334 331 332 333 333
342 338 338 338 339 341 344 346 348 349 349 349 348 346 344 342 338 337 337 335 331 329 329 330 328 327 328 330 330 331 331 332 331 331 333 335 336 336 335 332 330 333 335
345 341 337 336 336 338 342 345 346 348 349 349 349 349 348 347 343 336 333 333 335 335 336 338 338 335 335 333 333 331 330 330 332 332 331 332 334 335 336 335 329 329 334
345 344 338 335 336 336 337 339 342 345 348 349 349 346 343 342 340 341 340 334 334 334 335 333 333 334 332 333 334 335 337 337 335 333 333 333 333 334 335 336 335 331 331
345 345 342 336 334 334 333 333 337 338 339 340 342 343 343 342 341 341 342 344 345 346 346 347 346 346 344 342 341 340 340 339 339 336 335 333 333 333 333 334 335 336 333
344 344 342 339 334 332 331 331 332 334 335 335 337 339 340 340 341 342 343 343 345 347 349 350 350 350 348 348 348 347 347 346 346 346 346 346 343 341 337 333 334 336 336
343 342 341 338 336 332 331 331 331 332 333 333 334 335 337 337 338 340 341 342 342 345 347 349 352 350 352 351 354 354 354 353 353 352 351 348 350 348 345 341 335 334 337
343 342 341 341 339 335 333 333 333 333 333 333 332 332 333 334 335 338 341 344 346 348 351 351 351 351 353 354 356 356 355 352 351 351 352 350 349 348 348 348 342 334 337
348 348 347 347 347 347 346 345 342 340 339 337 335 335 336 338 342 347 351 354 356 356 358 357 356 356 355 355 355 355 354 355 355 351 352 351 352 349 342 349 347 343 335

GFSMA_850_thetae_051.txt.gz
Theta_e
338 342 343 343 342 342 341 341 341 340 340 338 339 341 338 336 331 334 338 327 328 327 325 327 324 323 325 326 325 327 329 330 333 331 336 334 332 330 329 330 330 331 330
343 343 344 343 343 343 340 339 340 338 338 337 337 340 340 336 335 335 337 333 331 332 329 328 327 326 325 324 326 325 324 325 325 326 322 323 323 323 324 325 328 332 331
344 344 345 344 344 343 340 340 338 338 337 337 336 338 339 337 338 337 336 337 339 338 336 330 329 326 329 331 329 327 326 325 327 329 327 331 334 334 333 332 333 334 334
343 344 343 343 342 340 338 338 337 338 338 337 336 337 339 339 338 337 337 338 334 339 337 337 338 337 333 336 336 333 334 331 331 331 332 333 334 334 335 334 337 336 337
342 345 344 342 342 339 335 336 336 337 338 337 337 337 339 339 339 337 337 336 335 335 340 335 334 334 334 336 336 336 336 336 336 336 336 336 337 337 337 337 337 336 333
344 345 344 344 342 341 342 337 336 339 339 337 337 336 337 339 339 339 337 337 335 335 336 335 335 340 333 333 329 331 332 332 332 333 332 331 331 331 330 327 323 319 317
343 343 344 345 341 340 340 342 340 339 339 337 337 337 337 338 338 338 338 336 334 333 336 338 336 334 333 329 322 324 327 327 326 325 324 322 320 319 319 319 318 318 318
342 342 342 346 342 340 342 343 342 340 340 337 337 336 340 338 337 338 337 337 335 334 334 335 332 331 328 324 321 320 320 320 320 320 321 321 320 320 319 319 320 322 323
344 343 343 343 343 343 343 343 345 343 339 338 337 337 337 338 337 337 337 337 335 334 335 335 332 331 328 328 327 325 323 321 320 319 317 318 319 321 322 323 325 325 325
344 344 343 344 343 344 343 344 342 340 339 339 337 338 338 335 339 339 336 336 335 335 335 335 336 334 333 333 334 334 332 328 325 323 322 323 324 324 325 325 325 325 325
344 344 344 344 344 343 345 344 345 339 340 340 336 337 336 334 336 338 339 340 336 336 336 336 336 336 334 335 335 334 334 334 332 329 327 326 324 324 324 325 325 325 325
344 344 344 343 344 343 343 346 345 347 340 340 335 337 338 341 341 338 338 338 338 337 337 337 337 336 336 335 335 336 335 335 335 334 333 330 328 327 327 326 326 325 325
343 343 342 343 343 343 343 344 346 346 340 340 335 335 336 337 340 340 338 340 339 338 337 337 336 337 336 336 335 334 335 335 335 335 334 333 332 329 328 328 327 327 326
340 341 340 338 342 342 344 343 345 345 345 340 341 339 337 335 337 338 337 339 341 342 338 337 337 337 337 337 336 334 334 334 334 334 334 334 334 332 330 329 328 327 327
339 336 335 337 341 341 344 345 344 345 343 345 337 339 340 337 336 337 338 336 340 341 339 339 334 335 335 336 337 337 336 335 335 335 335 334 334 334 333 330 330 328 327
342 335 333 338 341 341 343 344 347 346 344 342 345 346 345 339 337 338 338 337 337 340 341 340 334 330 332 331 331 334 336 336 337 336 335 335 335 335 335 334 330 330 329
344 341 334 335 339 341 343 344 344 346 348 345 343 343 342 341 338 337 338 338 338 338 339 339 333 330 330 331 332 332 331 330 331 333 335 335 335 335 335 335 334 330 330
344 345 340 334 337 340 342 343 344 345 346 347 342 342 341 340 340 340 335 332 333 333 332 328 328 327 327 327 328 329 331 331 331 332 331 331 335 336 335 335 335 334 331
344 345 343 337 335 337 340 343 345 346 346 347 347 347 345 345 344 343 339 338 336 338 337 335 332 335 332 332 332 332 332 333 332 331 330 330 332 332 334 335 336 336 332
345 345 345 339 336 335 336 339 343 346 346 347 347 347 348 348 347 346 345 342 338 336 336 336 334 338 337 331 331 331 332 333 333 333 334 335 336 333 332 334 335 336 336
345 345 345 343 338 336 335 334 339 342 344 346 346 345 345 344 342 342 344 342 344 344 342 346 348 347 347 348 347 346 345 344 344 345 343 341 340 337 336 334 333 334 335
345 345 345 345 343 337 333 332 332 336 338 341 343 343 343 343 340 339 339 340 344 345 344 346 350 351 349 348 349 348 351 350 349 350 348 348 347 348 348 347 344 337 333
345 345 345 345 344 341 335 333 332 332 333 333 334 334 334 335 334 336 336 337 340 343 346 348 348 348 347 348 351 352 353 354 354 353 352 352 350 350 351 351 350 349 344
346 344 344 345 344 342 337 333 332 333 334 331 330 330 331 331 333 332 333 336 337 338 339 340 342 343 346 350 354 356 357 356 356 355 353 352 353 353 352 353 352 352 351
345 344 343 343 343 341 337 334 334 335 334 332 331 330 330 330 330 331 332 334 334 336 338 341 347 353 356 357 356 356 356 355 355 353 353 349 351 350 350 350 347 350 350
345 344 343 341 340 339 337 336 336 338 337 333 332 331 331 331 331 333 334 336 337 342 349 356 359 357 356 356 356 356 356 357 357 356 354 354 352 351 348 348 348 349 349

GFSMA_850_thetae_054.txt.gz
Theta_e
349 347 347 349 348 347 346 347 346 346 347 346 345 346 344 344 343 340 342 326 326 326 331 335 324 325 327 327 326 331 329 330 334 333 332 328 326 325 325 326 330 331 330
348 350 344 349 349 346 345 345 346 343 341 342 346 346 345 345 344 344 343 335 331 328 328 328 327 325 325 325 326 327 325 325 325 325 324 327 331 332 330 329 332 334 334
343 349 350 349 349 348 343 343 342 342 340 341 344 346 345 345 344 345 346 345 342 338 335 330 328 327 329 332 331 331 329 327 328 329 329 333 334 334 334 334 335 335 336
344 343 346 348 349 347 344 344 343 341 341 340 342 344 345 343 344 344 345 346 345 344 341 336 337 337 335 336 336 336 336 335 333 334 333 334 335 336 337 337 338 337 335
343 346 349 346 346 345 344 342 341 340 340 338 340 342 343 341 342 341 342 344 344 344 344 339 334 334 333 334 337 335 334 335 336 336 336 336 334 334 334 333 330 324 319
343 346 350 342 344 346 344 344 343 342 341 339 338 341 342 342 342 341 340 340 340 341 341 343 343 344 334 332 326 326 331 331 330 329 328 328 326 324 321 319 318 318 318
343 344 346 345 346 347 349 345 342 341 341 341 338 340 339 340 342 341 340 339 341 341 340 340 341 340 341 328 324 322 325 324 323 322 320 320 320 319 319 319 319 320 322
340 348 348 347 347 346 347 345 344 344 343 340 341 338 339 337 339 340 340 341 341 341 341 340 340 340 339 338 331 320 320 320 320 320 319 320 319 319 320 322 324 325 325
343 343 342 346 345 349 346 344 344 345 342 343 339 340 336 339 338 340 341 341 342 342 342 342 341 339 338 340 335 330 323 320 319 319 319 321 322 323 324 325 325 325 324
344 344 343 343 343 348 346 346 348 347 342 341 343 340 338 339 341 341 341 341 342 342 343 342 341 342 340 341 336 333 331 328 325 323 323 325 325 325 325 325 325 325 325
345 348 343 343 343 342 345 348 345 342 343 343 341 342 343 340 338 340 340 341 341 340 341 342 341 341 342 341 341 338 333 332 330 329 327 326 325 325 325 325 325 325 325
349 345 344 343 343 346 343 346 349 343 345 343 341 342 342 342 342 341 340 341 340 340 340 340 340 340 341 342 340 337 334 332 332 332 331 331 328 327 327 327 326 326 325
347 350 344 343 346 342 346 343 344 349 345 345 336 342 342 343 343 343 342 340 341 341 342 341 341 341 340 341 341 338 333 333 332 332 332 332 331 330 329 328 328 327 327
346 349 351 346 340 343 342 343 350 349 352 346 340 339 342 342 342 342 343 342 342 343 343 339 342 342 343 343 342 337 338 335 334 333 333 333 333 333 333 331 329 329 328
346 348 350 350 350 346 343 349 350 353 352 346 350 343 343 345 345 343 343 342 342 343 342 342 339 342 340 342 341 336 337 337 337 336 336 335 335 335 335 335 334 332 330
346 347 343 346 348 349 344 342 351 352 353 352 352 352 346 347 347 345 344 344 343 342 342 340 341 341 339 336 339 331 331 331 330 331 334 335 336 335 335 335 335 335 334
346 343 343 336 345 351 346 341 347 352 354 354 353 353 351 350 349 347 346 345 344 343 342 340 340 341 339 330 328 331 329 329 333 330 330 330 331 334 335 335 335 335 335
344 343 344 342 336 349 352 341 342 351 353 354 354 353 351 351 341 342 348 346 344 343 343 341 340 340 340 341 335 332 331 334 339 338 337 332 331 331 332 332 334 336 335
344 344 344 344 342 347 351 349 342 344 352 353 354 354 353 353 343 346 350 349 348 351 350 349 347 346 345 346 347 347 345 344 343 343 340 338 334 334 334 333 333 333 334
344 345 345 344 344 342 347 348 348 343 350 352 353 354 355 355 354 344 345 350 349 351 350 350 349 347 346 345 346 348 349 349 348 347 347 347 346 345 345 343 339 335 334
345 345 345 345 345 347 347 346 348 350 349 348 352 353 353 353 348 347 355 353 354 354 351 349 348 347 347 347 348 349 351 351 351 352 352 352 352 351 349 347 346 345 341
346 346 345 345 345 348 347 342 340 348 349 348 351 350 347 350 342 342 344 345 347 351 353 353 350 349 351 352 352 353 352 352 353 353 354 354 355 354 354 353 350 348 347
346 345 344 345 345 345 343 339 334 335 346 348 345 346 347 349 347 342 340 339 339 340 343 343 345 346 347 350 350 352 353 355 358 359 358 355 357 357 356 355 355 353 351
346 345 344 344 344 344 342 340 337 336 335 338 346 348 342 337 342 348 349 348 346 345 339 334 334 335 337 345 351 356 358 357 356 357 356 356 356 356 356 355 352 352 352
347 346 345 344 344 343 342 339 339 341 339 334 333 334 336 332 329 329 330 331 331 333 344 344 341 340 347 353 358 357 356 354 357 357 358 358 357 356 355 354 353 351 351
346 346 346 345 343 341 340 338 338 341 344 341 335 332 331 330 329 329 330 330 331 335 344 347 353 358 361 361 357 356 356 357 358 358 357 357 354 350 347 347 347 350 350

GFSMA_850_thetae_057.txt.gz
Theta_e
347 348 349 347 345 345 343 343 344 347 343 344 346 346 343 342 341 344 334 325 324 328 336 336 323 325 326 326 325 329 326 327 328 326 323 323 325 325 324 326 331 333 334
348 349 348 347 346 347 345 344 345 344 344 343 343 345 345 343 344 345 343 331 327 326 326 326 326 326 324 325 326 325 323 323 325 327 327 332 334 335 334 333 333 334 334
347 350 347 348 348 349 345 342 342 339 340 342 343 346 343 345 345 346 345 346 344 338 336 330 326 326 327 329 329 330 328 328 328 330 331 333 334 334 336 336 337 338 337
345 349 348 346 346 346 347 345 343 342 340 341 344 346 344 343 344 344 345 345 344 347 344 336 336 337 336 335 336 337 335 337 335 335 336 336 337 336 337 337 335 331 324
344 350 346 349 347 346 344 343 342 342 338 339 342 343 343 342 344 342 342 344 342 345 343 341 336 335 332 332 335 333 333 334 335 335 334 333 331 331 330 327 321 318 317
345 351 348 345 349 346 343 343 342 342 339 340 340 342 342 342 341 342 340 341 340 342 345 339 342 341 338 328 323 324 330 329 329 327 327 326 323 321 319 318 318 319 320
346 345 351 342 348 349 345 346 337 340 340 340 338 340 340 340 341 340 339 340 340 341 339 341 345 345 344 339 327 320 322 322 322 320 320 320 319 319 319 320 322 324 325
350 351 350 349 346 348 350 347 348 343 342 339 340 341 341 339 340 341 339 339 340 341 342 341 341 338 339 341 328 320 319 319 319 319 319 319 320 321 323 325 325 325 324
352 354 346 350 345 347 349 348 343 346 344 340 341 342 340 342 341 339 340 341 342 343 342 341 341 341 341 343 338 333 324 321 319 322 322 323 324 324 325 325 325 324 324
353 352 351 351 350 351 349 349 348 348 346 341 340 341 342 342 342 342 341 341 342 342 344 343 344 343 342 343 341 333 329 327 325 323 323 324 325 325 325 325 325 325 325
354 352 353 352 350 347 350 351 349 344 343 346 341 341 342 340 341 342 344 342 342 341 341 344 342 342 344 343 343 341 331 329 328 328 327 326 325 325 325 325 325 325 325
352 353 353 351 352 351 346 352 352 342 349 345 345 342 342 341 342 341 339 340 339 341 340 341 342 341 342 344 342 340 332 330 329 329 329 329 328 327 327 327 326 326 326
347 349 349 353 353 345 355 352 347 349 351 348 342 343 344 343 344 343 342 342 342 342 343 343 342 342 342 342 343 342 338 333 332 331 331 331 331 331 330 329 328 327 327
345 349 349 353 353 355 353 353 352 352 351 350 349 342 345 343 342 342 344 344 344 344 345 343 344 345 344 344 344 343 342 338 338 337 336 335 334 334 334 334 334 334 332
347 347 351 354 353 352 352 353 351 352 356 352 350 349 344 346 345 344 344 344 344 345 345 348 341 344 341 343 343 341 335 332 330 330 332 334 336 336 336 335 335 335 335
347 350 348 351 353 353 352 351 351 351 353 353 351 351 349 349 347 347 346 345 344 344 343 343 343 342 343 341 340 341 340 337 333 331 332 333 332 332 333 335 336 336 335
351 346 350 351 351 352 352 352 349 352 353 352 353 354 355 351 353 350 347 346 346 345 344 344 343 342 342 343 339 337 338 340 346 345 344 342 341 340 338 334 334 335 336
349 351 347 351 350 349 352 353 354 350 355 354 353 353 354 353 352 346 350 348 347 347 347 345 345 345 346 346 346 346 347 350 349 346 341 341 343 343 342 340 337 335 335
344 347 348 347 349 349 349 353 352 353 353 353 353 354 354 355 354 352 353 350 349 350 352 353 352 350 349 349 349 349 348 349 350 351 349 349 348 349 350 351 351 348 345
341 342 343 344 345 350 350 350 354 354 354 353 353 354 354 354 354 353 350 348 349 347 351 351 351 351 350 348 347 348 350 349 349 350 352 352 353 353 353 352 352 352 350
339 340 343 345 346 352 353 350 351 353 354 353 353 354 354 353 354 354 356 356 355 356 355 354 352 350 348 347 351 350 350 353 353 350 351 354 357 357 357 357 357 357 355
340 341 343 344 346 353 351 350 348 350 352 352 352 352 352 353 353 351 349 345 345 351 352 353 351 350 348 349 352 353 353 352 355 354 359 359 359 358 357 356 356 355 354
339 342 343 344 345 345 349 349 348 345 350 349 349 348 351 351 351 351 351 347 344 342 345 343 343 341 341 340 341 344 352 352 356 358 358 357 359 359 358 356 355 353 352
341 342 344 345 345 345 344 345 347 345 345 343 348 346 341 340 345 352 354 354 353 344 335 337 343 344 344 343 350 354 353 357 358 359 359 359 359 358 359 357 356 355 352
343 344 345 345 346 345 345 341 344 346 346 343 340 337 341 341 331 330 335 338 340 341 345 346 346 346 348 349 351 357 360 360 359 359 359 360 359 357 352 345 350 350 349
345 346 346 345 345 343 341 342 342 344 350 347 342 336 333 331 331 331 333 334 337 335 335 340 343 347 352 358 359 360 360 360 359 359 360 358 355 352 351 349 351 352 349

GFSMA_850_thetae_060.txt.gz
Theta_e
347 348 346 343 347 347 343 344 338 346 346 342 341 343 342 344 344 343 325 324 324 333 335 323 323 324 324 323 325 325 325 324 323 322 322 328 333 334 331 331 332 333 334
348 349 348 345 346 345 348 349 342 344 343 346 343 344 343 343 345 345 342 329 327 326 325 324 324 324 323 324 324 323 323 323 326 327 327 332 334 334 335 335 335 338 337
346 346 350 346 347 344 345 340 340 342 343 340 346 345 344 344 344 345 344 344 343 340 340 335 331 325 325 327 328 330 328 327 328 330 332 333 334 336 337 337 337 333 327
349 347 342 347 348 346 340 341 343 342 343 343 345 343 344 343 344 344 343 342 345 344 344 338 333 336 337 336 336 336 336 337 336 336 336 336 335 333 333 331 327 319 318
344 347 341 345 348 345 345 341 343 342 339 342 341 341 341 344 342 341 343 343 341 340 340 340 341 340 335 331 330 330 330 331 332 331 330 328 327 325 323 320 318 318 320
343 348 350 343 349 346 345 345 343 342 342 341 343 340 343 341 342 342 341 344 338 342 342 340 340 342 343 334 323 322 328 327 328 326 324 322 320 319 319 319 321 323 325
345 347 350 341 347 343 344 344 341 341 342 340 339 338 339 340 341 342 341 341 341 342 339 341 342 342 345 341 324 320 320 320 320 319 319 319 319 320 321 323 325 325 324
345 346 348 344 347 347 340 346 339 342 342 337 341 344 343 340 342 341 341 339 342 342 342 341 341 340 341 341 337 322 319 318 318 318 319 320 322 323 324 325 324 324 324
347 350 347 347 344 346 347 344 343 345 345 339 339 343 342 342 342 339 338 342 342 342 343 343 342 337 335 343 341 332 325 322 321 324 324 324 325 325 325 325 325 324 324
351 351 347 348 344 346 349 342 341 346 344 341 341 342 342 342 341 342 343 343 340 341 341 343 344 343 343 341 344 338 328 326 326 325 324 324 324 325 325 325 325 325 325
349 353 348 343 343 349 350 345 345 345 350 345 344 340 341 341 341 341 343 342 342 342 343 340 343 343 343 342 343 343 337 331 328 327 326 326 326 326 325 325 325 325 325
346 351 352 346 343 345 350 345 346 340 342 344 347 342 340 341 341 341 342 340 343 340 340 341 341 341 342 342 343 340 338 335 331 330 330 330 330 330 329 329 327 327 326
350 344 350 348 344 342 350 347 347 340 342 343 344 344 345 344 344 343 342 344 342 342 343 343 342 343 342 342 342 343 342 340 337 336 335 335 334 333 333 333 333 333 332
351 350 347 345 339 350 346 351 343 344 340 338 340 342 344 343 342 342 343 344 345 345 345 345 345 345 345 344 344 343 340 337 332 331 333 335 337 336 336 335 335 335 334
348 347 350 349 348 349 352 347 348 350 353 350 337 337 343 344 346 344 343 344 344 344 345 348 342 342 343 342 342 343 343 340 336 335 337 335 334 335 335 334 334 334 336
346 354 348 347 345 348 348 350 349 350 350 351 350 351 343 337 347 348 346 345 345 345 344 343 344 343 344 343 343 343 342 342 345 343 342 345 346 344 342 341 341 340 339
348 345 352 349 349 347 351 349 346 353 351 347 353 353 353 351 348 351 350 347 346 346 345 344 344 344 343 343 342 343 347 347 347 348 349 348 347 347 347 346 348 349 348
350 348 346 351 350 349 348 350 347 347 353 354 348 352 355 354 348 345 350 350 351 349 348 346 341 337 344 348 348 348 348 347 348 349 352 352 351 351 352 352 353 352 351
343 349 346 342 346 345 344 343 346 346 349 353 355 351 350 349 350 350 346 347 346 349 352 352 354 354 352 349 350 349 348 349 352 351 351 353 353 351 352 353 353 354 354
337 342 343 343 342 343 343 340 341 348 345 349 352 350 350 351 350 350 345 342 347 346 346 348 347 348 353 352 351 353 352 351 348 354 348 342 353 358 360 360 358 358 359
336 335 338 340 343 345 343 344 341 343 347 346 348 352 352 351 350 351 352 347 349 353 355 356 357 358 355 350 346 345 345 348 341 339 343 357 356 356 356 357 357 356 355
337 336 337 338 341 344 345 350 348 345 348 348 346 346 353 354 354 352 349 352 349 348 353 354 350 346 341 339 340 341 342 339 345 347 355 357 357 358 358 357 358 359 358
347 341 337 337 339 341 344 350 351 350 348 346 346 347 348 347 350 349 348 348 349 348 344 343 344 339 340 340 347 343 345 347 349 355 359 358 359 357 357 359 358 353 346
355 352 346 339 337 338 342 344 349 350 350 348 345 344 347 342 345 352 353 354 354 352 349 350 350 351 351 344 346 348 350 351 355 359 358 359 357 356 354 344 338 344 350
356 355 349 341 337 338 341 343 345 348 350 349 346 345 345 348 337 334 339 347 351 351 345 340 342 345 347 349 346 347 352 358 360 360 358 358 358 353 339 339 348 344 339
353 352 347 342 339 339 341 343 344 347 348 348 346 343 342 340 339 338 340 336 335 330 330 331 335 337 344 341 348 354 359 360 361 361 357 357 351 344 349 349 341 338 344

GFSMA_850_thetae_063.txt.gz
Theta_e
345 345 343 344 345 344 342 344 344 343 342 343 344 344 343 344 343 331 323 323 328 330 327 322 323 323 323 323 326 324 323 323 323 323 326 332 333 334 334 334 334 338 336
345 345 344 342 345 344 343 344 344 342 343 342 341 344 344 342 341 343 339 337 331 329 326 324 324 324 323 323 322 322 322 323 326 328 329 332 333 335 336 336 336 334 327
344 347 344 346 347 343 343 342 344 343 344 343 342 342 341 341 341 343 342 343 342 343 340 333 335 329 327 329 329 331 329 330 331 332 335 335 335 334 333 333 328 321 318
341 347 345 345 343 344 342 339 342 345 344 344 344 343 342 341 341 342 342 339 340 340 341 337 337 333 332 333 334 334 335 334 334 334 333 332 329 327 325 322 318 318 320
342 340 343 346 345 345 341 342 343 342 344 341 338 342 342 342 341 340 339 342 339 341 340 338 340 341 337 326 323 323 326 328 328 327 326 325 324 321 319 318 320 322 324
343 347 345 345 343 344 343 341 341 342 341 342 342 342 342 342 342 342 341 340 341 342 340 338 341 343 341 332 320 320 323 324 323 322 321 319 319 319 320 322 324 325 324
343 344 343 343 343 343 344 343 341 342 341 340 343 343 343 342 339 342 341 341 341 340 340 339 342 339 339 340 331 319 319 318 318 319 319 320 321 322 323 324 324 324 324
343 348 341 345 345 343 343 340 341 342 338 339 341 343 342 338 341 341 341 341 342 341 342 342 339 328 331 336 334 324 321 320 321 323 323 324 324 324 325 325 324 324 324
342 344 346 342 345 344 340 338 339 343 340 339 339 342 342 342 341 340 340 339 341 340 343 342 343 342 342 333 334 335 326 325 324 324 324 325 325 325 325 325 325 325 324
340 348 346 348 344 344 345 339 339 343 344 342 340 340 341 341 340 340 341 341 342 340 343 342 342 344 343 341 336 339 334 329 327 326 326 325 325 325 325 325 325 325 325
341 341 344 345 342 345 347 344 339 341 344 344 343 339 341 339 341 341 342 342 342 342 343 341 341 342 342 342 341 336 334 334 332 331 331 331 330 329 328 327 327 326 326
346 339 348 344 340 346 348 343 345 341 344 344 345 344 341 340 342 343 343 343 342 340 340 341 341 341 341 340 341 341 340 340 339 337 336 335 335 334 333 332 332 332 332
346 343 347 349 342 339 342 342 345 342 343 343 345 343 345 343 343 342 343 344 344 341 341 343 343 343 344 343 342 341 340 340 340 338 335 333 334 335 335 335 335 335 335
345 347 345 341 340 338 345 345 344 340 338 342 344 344 344 344 342 342 343 343 344 344 346 344 344 343 344 344 342 341 342 342 340 339 343 341 339 339 341 342 341 339 337
345 349 349 347 346 342 340 339 344 341 341 335 340 340 343 342 341 342 342 342 343 344 344 346 345 344 343 343 343 343 343 343 342 346 348 348 347 345 345 345 344 344 343
350 348 351 349 348 346 337 341 343 344 348 349 345 333 337 341 344 347 346 342 344 344 344 343 343 343 347 345 345 344 342 344 347 347 348 350 351 351 351 350 348 348 349
347 346 351 350 348 347 340 339 343 345 349 348 346 342 343 343 339 346 348 347 345 345 345 338 340 341 342 343 342 341 348 348 348 348 350 350 351 352 352 352 350 352 352
343 345 347 351 350 348 347 341 343 343 353 353 351 350 352 352 352 344 350 352 349 348 347 347 347 345 351 346 346 349 350 352 352 351 349 354 355 354 349 352 357 360 359
342 347 354 349 350 349 346 339 339 338 345 350 352 353 347 352 352 348 343 347 350 350 350 347 348 348 344 343 353 353 353 350 347 340 345 345 341 345 356 358 356 354 352
334 341 349 348 347 346 346 340 340 336 336 344 344 346 347 347 347 348 347 346 344 344 344 346 346 343 346 352 355 351 341 333 334 334 334 345 357 357 356 356 355 355 357
328 329 336 348 343 344 342 340 342 341 336 335 338 342 342 345 346 347 348 349 351 350 348 350 353 354 353 357 351 338 338 337 336 336 346 357 357 356 355 357 358 360 360
331 330 331 332 340 340 339 339 341 342 342 339 334 336 336 339 340 344 349 350 349 350 351 350 348 348 341 338 337 341 340 342 346 339 354 358 357 356 357 356 353 353 343
340 336 335 336 333 337 337 336 337 341 344 344 340 337 337 339 338 339 342 345 347 348 348 349 349 344 344 342 348 339 343 346 346 348 357 359 357 357 356 342 341 340 339
348 343 342 339 334 333 335 336 337 340 344 345 345 343 341 338 336 338 337 347 351 351 350 350 351 351 351 345 346 345 346 344 349 355 359 360 357 356 351 340 339 342 334
351 349 347 344 341 339 337 339 340 341 345 347 346 347 346 343 338 339 341 341 343 343 341 342 347 351 349 341 338 346 343 351 356 359 358 358 357 352 344 341 341 336 332
353 352 352 351 350 347 345 343 341 341 344 345 346 347 347 347 345 343 344 342 340 333 333 336 337 338 342 343 344 348 354 358 359 360 357 358 355 347 349 345 341 335 333

GFSMA_850_thetae_066.txt.gz
Theta_e
341 341 342 340 342 340 341 342 341 341 343 343 343 342 343 341 340 327 323 325 327 327 323 322 323 323 323 323 325 322 322 323 325 326 328 332 333 334 335 335 335 336 332
343 343 343 342 342 341 343 342 344 343 344 343 342 342 343 340 342 341 341 335 337 337 329 325 324 324 324 324 323 324 325 325 326 329 332 333 334 334 334 333 332 326 320
344 345 343 343 342 345 342 343 343 344 342 342 342 341 341 341 341 342 341 342 342 341 337 333 335 333 332 333 335 334 334 335 335 335 334 334 333 330 328 326 321 318 318
344 342 344 343 343 341 341 343 343 343 342 342 341 340 341 339 341 341 339 340 339 338 339 340 336 334 330 330 330 331 330 330 331 330 329 327 326 324 322 319 319 320 322
344 345 344 342 343 344 340 342 342 342 343 343 343 341 342 341 340 338 340 337 340 340 338 339 341 339 332 322 320 322 325 326 325 324 322 321 320 319 319 320 322 323 324
344 342 345 345 344 342 343 343 342 342 341 339 341 342 342 342 341 341 341 339 341 340 339 339 340 339 335 334 320 319 319 319 319 319 319 320 320 321 322 323 324 324 324
345 344 342 342 343 343 343 342 341 341 342 343 342 342 342 344 342 341 341 341 341 340 341 340 334 331 334 332 326 320 319 319 321 322 323 323 323 324 324 324 324 324 324
343 345 341 343 344 342 341 342 341 341 341 341 341 342 341 340 340 341 341 341 341 341 342 342 342 340 335 332 327 326 324 323 324 324 325 325 324 324 324 325 325 324 324
343 348 340 344 344 343 342 340 341 340 338 340 341 342 342 339 340 340 340 340 340 339 341 342 341 343 342 333 331 328 327 327 326 326 326 325 325 325 325 325 325 325 325
341 346 340 342 344 343 341 338 339 342 338 338 338 341 340 341 341 339 339 339 342 340 342 342 341 342 342 341 339 333 332 333 333 333 332 331 331 330 329 328 327 327 326
341 345 345 344 343 343 337 337 339 343 341 341 337 338 340 339 341 341 341 341 342 341 341 342 340 340 339 338 338 337 336 336 335 335 335 335 336 336 335 334 333 332 332
344 342 343 343 343 342 345 343 338 339 344 343 340 339 340 341 342 343 343 343 342 341 340 341 341 342 343 341 339 337 338 339 339 340 340 341 341 340 338 338 338 338 336
347 343 343 340 339 341 346 342 340 337 344 343 343 345 344 341 343 342 343 343 343 342 340 342 343 343 343 344 342 341 342 342 342 342 344 345 345 345 343 343 344 344 344
347 344 340 345 341 337 339 342 341 339 339 342 343 344 344 344 342 341 342 342 343 344 344 345 344 344 343 343 344 343 343 342 342 344 347 347 348 349 349 347 347 346 345
347 345 345 342 341 339 335 341 341 340 334 339 342 344 343 343 341 341 341 342 342 343 343 345 344 345 343 344 344 343 343 342 343 347 348 348 349 350 350 350 351 351 350
347 345 348 346 345 345 343 340 340 339 340 335 337 342 342 343 342 342 344 343 343 343 343 343 345 342 342 345 344 344 342 345 349 350 350 351 350 353 354 353 349 354 355
352 348 350 349 350 347 347 340 341 340 342 345 346 342 333 339 340 344 346 346 346 345 344 342 341 339 340 339 340 342 348 350 351 351 351 344 347 350 344 348 359 359 356
350 349 349 348 350 349 348 345 336 341 342 344 344 344 337 333 333 340 343 347 348 347 346 346 344 341 341 345 341 349 351 350 352 346 336 337 338 348 357 356 356 355 353
349 347 346 346 349 350 348 346 342 336 341 343 348 349 347 346 347 346 339 343 348 351 351 350 349 348 341 341 340 350 349 348 343 334 336 340 356 356 356 356 356 354 349
345 347 346 344 345 347 347 348 345 336 334 338 344 348 349 351 346 346 346 344 343 344 343 345 346 343 339 341 350 347 340 335 334 334 337 352 357 356 356 356 355 356 354
338 343 343 346 347 350 349 347 346 344 339 334 334 339 342 344 346 347 348 346 345 345 344 345 344 343 341 338 339 337 340 345 334 338 342 354 357 355 356 352 346 343 342
327 329 342 340 344 348 350 347 344 340 339 338 336 333 333 334 337 340 345 346 346 347 347 347 343 342 340 341 339 346 347 347 344 337 348 355 357 356 356 345 342 341 336
342 331 328 329 333 340 346 346 343 341 339 338 337 337 337 335 334 335 336 339 343 344 346 346 348 347 347 342 348 348 349 349 343 345 354 357 356 356 351 344 344 337 334
347 344 336 332 329 330 332 334 336 340 340 338 338 338 337 336 337 337 337 338 338 337 343 350 351 345 348 339 347 351 346 343 346 352 358 358 357 357 349 344 341 338 332
351 348 344 341 336 332 331 334 337 337 338 337 337 339 340 340 340 341 344 341 337 335 333 335 339 338 338 342 347 344 342 349 351 356 357 359 359 355 348 346 343 340 333
353 350 348 347 346 341 337 338 339 337 336 336 337 337 339 342 342 343 346 346 343 337 336 336 338 339 341 342 344 346 350 352 353 359 358 360 358 351 347 348 343 339 333

GFSMA_850_thetae_069.txt.gz
Theta_e
335 337 341 340 342 342 342 342 343 343 343 342 342 342 341 340 336 325 323 326 327 324 323 322 323 323 322 322 322 322 322 324 326 328 330 332 333 334 334 334 333 328 322
341 339 339 341 340 340 341 340 341 342 343 342 341 342 340 342 341 340 337 339 338 334 330 327 326 326 325 327 327 330 329 330 332 333 333 334 333 331 330 328 324 320 318
342 343 341 340 340 342 342 343 343 341 341 342 341 342 341 342 341 341 341 341 340 337 334 334 333 333 333 333 334 333 333 333 332 331 330 329 327 325 324 321 319 319 321
344 343 341 342 343 341 342 341 343 341 342 341 341 342 341 341 340 340 339 339 338 339 339 337 339 331 327 327 325 324 325 326 326 326 325 323 322 320 320 320 321 322 323
344 342 342 343 342 341 341 342 343 341 343 342 342 342 341 341 339 339 338 338 340 338 337 339 340 334 326 321 320 322 322 322 320 320 320 319 320 320 321 322 323 323 323
342 343 343 342 343 343 341 342 342 342 343 343 342 342 342 342 341 340 340 340 340 340 339 338 337 335 332 327 320 319 319 319 320 321 322 323 323 323 323 324 324 324 324
344 342 344 343 344 341 342 341 340 341 341 340 341 341 341 342 342 340 341 341 340 340 341 341 334 332 332 329 325 323 322 323 323 324 324 324 324 324 324 324 324 324 324
345 343 344 343 344 343 342 341 340 341 341 342 342 342 341 339 340 340 340 340 340 340 341 342 342 341 334 330 328 326 325 326 326 326 326 326 326 325 325 325 324 324 324
342 344 341 343 342 342 342 341 340 341 340 341 341 343 341 338 339 340 340 338 340 339 341 341 341 342 341 334 333 332 332 333 334 334 334 334 333 332 331 330 329 328 326
343 345 343 341 344 343 342 340 341 340 338 339 339 341 341 341 340 339 339 339 341 340 341 341 340 339 339 339 336 336 335 334 335 338 340 340 340 340 339 337 336 334 333
344 344 342 342 343 343 341 342 339 341 340 337 338 338 339 340 340 341 341 341 341 340 340 340 341 341 338 337 336 336 338 340 341 342 342 342 342 342 342 342 342 342 341
341 342 345 344 343 343 342 337 338 339 342 339 339 336 339 340 341 343 343 341 341 341 340 340 342 342 342 342 342 341 342 342 342 342 343 344 345 345 344 344 346 346 345
342 340 344 344 343 341 342 345 342 339 340 341 342 342 341 340 343 342 343 343 343 341 340 343 343 342 342 343 343 343 342 342 343 342 345 347 348 348 347 347 347 348 349
346 346 343 341 341 339 341 346 341 338 337 341 342 343 343 344 342 341 341 342 342 343 343 346 343 344 343 342 342 343 343 344 342 345 349 350 350 350 350 351 352 352 350
347 347 348 344 346 346 340 339 343 341 338 340 341 342 342 344 342 342 341 340 341 342 342 344 344 344 344 342 344 344 343 342 342 349 351 351 350 345 349 353 346 346 358
347 347 348 345 342 346 345 340 344 342 342 336 338 341 342 343 343 341 343 344 342 342 342 342 342 343 342 341 341 344 346 345 348 350 349 347 337 338 342 351 357 357 355
346 348 349 347 347 345 345 345 343 342 342 340 337 336 339 341 342 342 341 344 346 345 344 341 340 340 338 340 338 342 338 349 349 349 346 335 339 351 356 356 357 357 356
347 348 350 348 349 349 349 347 347 342 342 341 342 343 339 339 334 340 339 342 345 347 348 346 343 343 342 340 338 336 340 347 348 342 335 339 348 356 356 356 355 355 354
346 348 348 350 348 348 349 349 348 346 338 340 343 345 345 344 338 336 335 337 339 344 347 349 347 346 343 341 335 337 344 333 332 337 336 341 354 356 356 356 355 351 346
343 346 349 349 348 347 346 348 348 346 340 336 337 339 346 348 347 344 345 347 347 344 342 344 343 339 338 337 339 336 331 332 333 335 336 348 356 356 355 355 348 337 339
334 341 345 347 348 347 347 345 345 345 345 342 339 335 334 339 345 347 347 343 346 347 346 344 342 341 337 334 336 339 342 343 332 339 340 353 354 355 355 352 342 341 337
332 328 337 343 344 346 346 347 347 347 346 344 341 338 338 333 333 336 339 341 342 345 345 346 345 344 340 338 339 344 345 346 343 338 345 353 356 356 354 348 342 343 337
346 344 332 327 332 340 343 342 344 347 348 345 342 339 338 338 337 334 333 336 338 340 342 343 344 341 340 340 344 343 345 349 348 340 349 354 355 357 354 349 344 341 337
348 347 346 345 334 326 326 337 341 340 344 345 344 341 339 338 338 340 340 338 337 337 337 339 340 336 344 341 346 346 348 348 345 345 352 354 355 356 354 347 344 342 337
351 350 349 348 346 343 333 327 327 328 334 336 336 334 337 337 336 339 342 342 342 340 337 337 336 335 337 336 339 342 343 347 348 352 353 356 356 356 352 347 345 342 337
353 352 352 351 348 344 344 338 334 331 329 330 331 332 332 333 334 336 342 345 346 342 342 340 340 340 341 342 343 344 347 349 350 352 354 355 354 356 351 347 346 341 336

GFSMA_850_thetae_072.txt.gz
Theta_e
335 337 338 340 341 342 342 341 340 342 343 342 342 341 338 331 328 323 325 326 326 324 323 323 323 323 323 323 324 325 325 326 328 331 333 333 334 332 333 332 322 319 319
335 340 340 340 341 341 342 343 343 343 342 341 342 341 340 337 339 337 338 338 335 332 329 328 327 327 327 331 332 333 334 334 333 332 331 330 327 326 324 322 320 321 322
342 338 339 341 339 341 341 342 341 342 342 341 341 341 341 341 340 340 341 340 339 336 334 333 332 331 331 331 330 330 328 328 327 326 326 324 322 321 320 320 322 323 323
343 343 340 340 341 341 342 342 342 341 341 340 341 341 340 340 340 339 338 339 339 338 338 339 333 327 323 322 321 322 324 324 323 322 321 320 320 320 321 322 323 323 323
343 343 341 341 341 341 341 342 341 341 342 342 341 341 341 340 339 339 338 339 339 337 336 338 336 333 330 322 319 319 319 319 320 320 321 322 323 323 323 324 324 324 324
343 342 342 343 342 340 340 342 342 342 342 342 341 341 341 341 341 340 340 340 340 340 338 336 334 333 332 326 321 320 320 322 322 323 324 324 324 324 324 324 324 324 324
343 342 343 342 342 340 339 341 341 342 340 340 341 339 340 339 340 340 340 341 340 340 341 341 339 333 330 327 326 325 324 325 326 327 328 328 327 327 325 325 324 324 324
342 342 343 343 343 339 340 341 340 340 340 340 341 341 340 337 338 339 339 339 340 340 341 341 342 340 332 329 329 330 332 333 335 336 337 338 337 336 333 331 329 329 328
343 343 344 342 343 342 341 340 340 341 340 339 341 342 342 340 338 338 339 338 340 339 340 340 340 338 337 336 334 335 335 337 340 341 342 342 342 342 341 340 340 339 337
343 343 342 342 342 343 341 341 340 341 340 339 340 339 341 340 340 340 340 339 339 340 340 340 339 338 337 336 336 336 339 341 342 342 342 343 343 343 343 343 344 343 343
345 342 344 341 342 343 342 341 340 340 339 337 337 338 338 339 339 341 342 341 339 339 340 340 340 339 339 339 340 341 341 342 342 343 343 343 344 344 344 344 344 346 347
344 342 344 340 342 344 343 341 341 338 340 340 337 338 337 340 341 342 343 340 340 340 340 341 341 342 342 342 342 342 342 342 343 342 344 348 349 350 350 350 350 349 350
345 338 340 345 342 343 344 344 339 338 339 341 339 340 340 341 341 341 342 342 343 342 344 344 342 342 342 342 342 342 342 342 342 342 348 349 350 350 348 344 348 353 348
346 342 341 341 344 342 343 342 345 345 339 340 340 341 343 343 343 342 341 341 341 341 341 344 343 343 343 342 342 342 340 340 342 345 349 349 346 340 335 338 342 347 354
345 347 346 346 341 344 344 341 344 347 343 340 339 341 342 343 344 342 342 342 341 341 340 341 344 344 343 342 341 341 342 343 340 349 350 350 342 335 341 355 356 356 354
344 345 347 347 346 344 346 346 340 343 343 342 340 340 341 342 343 343 342 342 344 344 343 341 340 340 341 341 340 341 342 339 345 351 349 341 336 338 355 355 355 355 356
343 346 345 348 347 344 343 344 344 342 341 342 341 336 338 341 341 342 341 341 341 343 345 343 343 342 340 341 340 338 335 335 346 344 339 336 337 350 356 355 355 355 354
345 347 345 347 347 348 348 348 346 346 345 340 341 340 336 336 337 339 337 338 340 340 342 344 344 345 344 342 340 335 333 340 336 331 337 335 344 354 356 355 354 353 345
343 345 345 345 348 346 348 349 349 348 347 344 339 341 344 345 344 342 337 337 338 339 342 341 342 340 341 338 332 333 333 331 334 338 335 340 351 356 355 355 354 346 338
335 340 344 344 345 348 349 347 347 349 348 346 340 337 339 342 344 345 345 343 343 345 347 346 343 340 338 336 336 335 332 336 333 335 335 342 355 356 355 355 350 341 336
332 333 339 342 343 344 344 345 346 346 347 346 346 343 338 335 336 341 346 346 347 345 344 343 342 340 336 335 337 339 344 343 334 334 337 342 353 355 355 354 350 341 337
343 336 330 335 337 343 343 343 344 344 344 345 345 345 344 343 340 338 335 335 339 341 341 342 340 339 335 337 337 344 345 346 341 335 344 344 353 355 355 354 350 344 339
344 344 343 333 329 332 336 340 341 342 343 343 341 341 342 341 340 340 340 340 337 336 336 337 337 335 335 336 338 343 345 345 342 337 344 348 352 354 355 353 350 344 342
346 345 345 345 344 339 330 329 332 337 339 336 333 332 335 338 339 339 339 339 340 341 339 338 338 337 336 336 338 343 342 341 340 338 345 351 353 353 353 353 351 344 342
349 349 348 348 347 347 346 345 338 329 328 328 330 332 328 329 331 332 336 337 337 339 340 339 339 338 336 337 339 343 344 345 343 342 346 352 354 355 353 353 350 346 343
350 351 351 351 351 350 350 348 347 346 342 331 326 326 327 327 327 328 330 331 335 335 339 341 341 342 343 343 344 345 346 346 345 347 348 352 354 355 354 353 350 347 340

GFSMA_850_thetae_078.txt.gz
Theta_e
346 346 347 347 347 347 346 348 348 349 348 347 347 346 342 338 339 340 341 329 325 324 324 325 326 327 329 331 332 333 332 331 328 327 325 324 323 322 322 322 322 322 323
347 347 348 348 348 347 347 348 348 349 347 348 347 347 345 343 343 344 344 342 334 333 333 332 332 331 330 329 328 326 326 325 324 323 322 321 321 321 322 322 323 323 323
341 347 347 348 348 343 344 348 348 348 345 345 346 346 345 344 344 344 343 344 344 340 337 330 326 323 322 321 322 323 323 322 321 321 321 322 322 323 323 323 323 324 324
339 343 348 347 347 348 348 347 348 345 345 344 344 344 343 343 345 345 343 343 343 342 341 333 330 328 323 320 319 320 320 321 322 322 323 323 324 324 324 324 324 324 324
343 347 349 347 343 348 346 347 347 346 345 344 343 343 343 343 344 342 345 345 343 343 342 336 332 330 327 323 321 322 322 323 324 326 328 329 330 331 331 329 328 326 325
343 346 347 346 347 348 346 346 347 346 345 344 343 342 342 342 343 343 343 343 344 346 344 345 345 343 328 326 325 326 328 333 336 339 340 341 341 342 341 340 338 336 332
343 341 348 345 347 346 347 342 344 344 342 343 340 340 340 341 341 341 342 342 343 344 344 345 345 345 344 329 331 335 338 340 341 342 342 342 342 343 343 343 343 344 342
343 344 344 345 345 348 340 340 345 344 341 341 343 343 340 341 340 339 340 340 342 342 342 343 344 343 341 346 339 338 340 342 342 342 342 342 344 345 347 347 346 344 345
341 343 341 348 344 346 346 342 343 343 342 345 341 345 344 341 343 341 342 340 341 341 341 342 342 344 337 344 344 345 342 342 342 343 342 345 348 350 350 350 350 349 347
346 341 343 343 343 347 346 344 345 345 343 343 344 344 340 343 343 342 341 340 340 340 341 342 342 343 341 346 345 342 342 342 343 343 344 348 349 348 347 341 337 339 346
343 349 342 342 341 347 345 343 341 341 345 343 342 343 343 345 347 345 341 339 339 340 342 343 343 343 346 345 348 347 342 341 342 342 344 348 349 348 343 335 344 355 348
350 347 345 342 341 349 344 346 340 341 343 345 344 341 343 343 344 345 344 343 343 344 345 345 344 346 347 348 347 341 341 338 340 339 343 348 349 341 332 337 355 355 355
350 350 342 342 345 341 343 345 342 348 342 343 342 346 345 345 347 348 346 344 345 345 346 346 346 347 347 349 350 342 345 339 335 333 342 346 336 330 332 344 355 355 355
351 351 346 346 343 342 342 343 345 344 349 341 345 345 347 346 348 348 349 347 345 345 345 344 349 348 349 351 350 342 351 339 334 333 341 334 330 332 336 349 355 355 354
350 352 352 351 348 347 340 348 349 345 347 348 349 342 345 346 348 349 348 348 347 346 345 348 346 349 350 350 352 345 350 339 334 335 333 336 333 333 345 354 355 355 353
351 351 351 353 350 351 348 339 350 346 341 348 349 349 347 347 348 348 348 348 348 347 346 346 348 350 348 346 351 342 340 339 347 344 335 336 334 334 349 354 354 354 349
350 351 348 348 349 352 349 345 344 351 349 350 350 351 349 349 348 346 347 347 348 348 348 345 347 348 350 350 341 335 343 343 346 347 340 335 334 335 350 353 354 353 348
348 352 352 343 349 352 352 343 348 351 350 352 351 352 351 348 343 344 348 349 348 349 349 349 346 348 352 351 352 336 349 348 349 350 343 339 342 340 350 352 353 353 351
338 347 352 350 344 351 353 345 346 353 353 353 352 353 351 351 351 347 351 349 349 350 350 349 349 348 349 352 353 352 350 350 348 347 346 345 346 347 351 352 353 353 351
341 337 343 352 352 347 352 349 350 347 353 353 353 354 353 351 351 352 352 353 351 351 349 349 349 349 349 351 352 349 346 345 347 348 348 346 346 349 355 356 352 353 352
342 342 339 337 344 352 352 353 355 355 350 349 352 353 352 351 343 345 349 350 352 352 350 349 349 349 349 348 349 346 346 346 345 346 349 348 345 348 355 358 350 351 351
343 342 342 342 341 343 345 349 350 354 355 356 354 354 347 348 344 344 342 339 340 348 349 346 344 344 346 347 346 346 346 345 345 344 347 345 345 346 354 359 352 352 350
348 347 343 344 343 343 342 336 338 345 349 352 354 354 352 349 348 344 343 342 340 339 340 340 345 343 341 343 346 350 349 350 347 346 346 348 348 348 353 358 352 352 350
350 348 346 345 344 344 343 343 342 336 334 341 349 351 353 351 349 351 348 350 346 341 337 338 338 336 336 340 338 347 352 348 348 349 347 348 349 348 353 359 357 350 349
353 352 351 349 347 345 345 344 344 344 343 337 332 334 341 346 342 340 340 345 346 347 346 346 339 334 334 334 338 344 347 346 344 343 343 344 346 347 351 354 358 352 352
350 352 354 353 351 348 347 346 346 345 348 348 347 342 334 331 330 329 330 332 336 335 345 343 344 342 333 331 333 338 340 348 345 344 343 346 345 345 349 352 359 356 354

GFSMA_850_thetae_081.txt.gz
Theta_e
346 346 347 346 346 346 345 347 347 349 346 346 344 343 339 340 341 343 338 331 328 329 329 329 330 331 331 331 330 328 327 325 324 323 322 322 322 322 323 323 323 323 323
347 347 347 348 347 347 347 348 347 347 347 344 345 344 343 343 345 347 347 344 334 333 331 329 328 327 325 324 323 324 323 322 322 322 322 322 323 323 323 324 324 324 324
352 348 346 348 348 342 345 348 349 346 346 345 345 345 344 345 344 345 345 347 344 340 327 324 323 322 321 321 321 321 322 322 323 323 324 324 325 324 324 325 325 324 324
349 348 348 346 345 349 347 347 347 344 345 344 344 344 343 344 344 344 343 345 343 345 343 327 326 323 321 321 321 322 323 324 326 329 331 334 336 335 335 333 331 328 325
341 349 347 347 347 346 345 346 347 346 345 344 343 342 342 342 345 343 344 344 340 344 344 333 333 329 325 324 324 327 330 335 339 341 342 342 342 342 342 342 343 341 336
351 347 347 346 349 347 346 347 347 347 345 344 343 341 342 341 341 342 344 344 344 346 345 346 347 344 329 327 331 335 340 341 342 342 342 342 343 343 343 343 343 343 343
351 343 348 345 348 347 347 347 345 344 343 340 343 342 339 341 342 341 342 342 343 344 343 345 348 346 343 336 336 340 341 342 342 342 342 343 345 347 348 348 347 345 343
349 348 350 347 348 348 344 349 347 345 339 342 345 344 343 341 340 340 340 340 342 342 342 345 343 345 347 347 342 343 342 342 342 343 342 345 349 348 347 344 342 346 348
352 352 344 352 347 347 347 342 342 343 347 341 343 345 346 343 344 341 342 340 340 341 341 342 343 346 346 347 348 347 342 342 342 342 343 346 348 349 348 339 342 350 347
351 351 351 351 344 349 352 343 343 347 346 345 342 342 341 343 348 343 340 339 339 342 342 343 344 344 346 348 348 347 342 340 342 340 337 345 348 346 337 338 354 355 355
351 351 352 351 343 348 345 350 347 342 345 346 343 343 340 341 339 345 340 339 340 341 343 345 343 344 347 349 349 345 341 341 338 334 335 343 341 331 334 342 355 355 355
350 350 351 352 347 351 352 348 351 344 344 348 349 341 344 344 347 346 343 343 343 344 345 345 345 346 347 349 350 344 342 345 340 334 334 335 330 332 335 347 355 355 355
350 350 344 349 349 343 352 353 346 350 344 345 345 346 345 344 343 344 345 342 346 345 347 346 346 347 348 350 351 349 350 351 342 338 334 330 330 331 341 353 355 355 354
349 353 349 351 351 351 352 349 350 349 347 348 345 341 347 345 344 345 348 348 346 344 346 349 348 348 349 350 351 351 351 350 343 346 345 332 331 331 345 354 354 354 351
350 354 350 351 352 352 352 351 350 352 351 348 350 338 344 348 344 345 344 346 348 349 347 351 345 349 351 351 352 351 349 350 344 348 348 342 330 332 346 353 354 353 348
351 350 352 351 353 352 352 350 350 350 348 350 348 350 345 347 346 346 346 346 346 347 347 347 347 349 351 350 350 349 339 348 349 348 348 349 337 338 344 352 353 353 351
352 351 354 352 354 354 353 351 347 352 354 351 348 353 352 347 350 347 345 345 346 347 347 347 349 347 352 348 351 336 342 348 349 349 350 347 345 342 348 352 352 353 352
351 351 352 355 354 353 355 353 352 350 351 353 352 351 351 350 346 344 349 348 349 350 351 349 350 348 348 350 352 351 352 352 351 350 348 348 346 344 348 353 354 352 352
351 351 352 353 355 353 355 354 353 353 355 354 354 353 351 351 351 350 350 348 348 350 351 353 351 349 348 349 351 353 352 350 348 346 345 348 348 346 347 353 356 351 351
351 350 348 352 354 353 352 354 355 350 354 355 354 353 353 351 351 352 351 351 348 347 350 349 348 349 350 350 351 352 350 346 347 346 347 348 345 344 345 350 356 351 351
352 347 348 349 350 352 351 350 352 352 351 354 355 355 352 350 350 350 351 351 351 352 350 349 349 349 349 350 352 352 347 346 346 345 344 347 343 344 346 348 357 356 351
353 353 352 349 348 350 345 346 352 354 352 354 354 353 351 355 355 348 341 337 345 352 347 350 349 347 345 346 346 347 348 345 347 347 346 346 345 348 348 352 356 355 352
354 353 354 355 351 344 347 344 341 347 350 352 352 352 353 349 350 349 345 343 343 342 340 337 339 340 340 337 340 342 349 349 349 346 346 349 349 349 348 347 355 352 354
353 352 353 353 353 353 349 347 345 342 342 340 344 350 352 349 347 353 354 354 352 344 341 339 336 335 335 335 336 344 350 349 353 353 349 349 345 345 346 349 351 354 357
352 352 353 353 354 353 353 351 348 348 346 343 342 339 336 347 350 341 344 352 353 350 346 347 346 344 342 342 341 340 340 346 345 342 342 342 343 344 345 345 348 356 355
350 351 351 352 353 353 353 353 351 351 351 350 350 346 344 342 334 338 345 341 343 338 349 344 346 346 346 345 345 344 340 342 345 344 342 343 344 345 346 345 350 353 354

GFSMA_850_thetae_084.txt.gz
Theta_e
345 347 341 346 346 349 346 346 347 342 347 346 343 340 339 342 344 344 343 334 333 333 332 332 331 329 328 326 324 323 323 322 322 323 323 324 324 324 324 324 324 323 324
347 348 346 348 348 348 345 341 346 345 343 342 342 344 343 340 346 347 345 344 342 326 323 323 322 321 321 321 322 322 322 323 324 325 325 326 328 328 327 325 324 324 324
346 344 341 347 348 343 349 346 349 346 346 346 344 344 343 344 341 345 345 346 346 344 328 322 321 320 321 321 322 323 324 327 329 333 336 338 340 340 340 337 330 326 324
349 349 348 344 349 345 348 346 347 345 345 344 343 345 344 342 344 345 342 345 344 346 344 324 323 322 322 323 325 328 332 338 342 343 343 343 343 343 342 342 342 340 332
346 347 347 345 350 347 347 346 346 346 346 344 343 343 344 343 345 344 342 345 341 346 344 332 345 330 325 328 332 338 342 342 342 342 343 343 343 343 344 343 342 342 341
343 347 349 345 346 348 348 345 343 343 345 342 343 343 342 342 341 343 345 345 343 346 346 335 346 345 330 333 339 341 342 342 342 342 342 343 345 348 348 347 347 345 343
348 347 349 343 346 341 343 347 345 344 345 344 347 346 340 340 341 341 343 345 342 345 341 343 348 345 341 342 340 343 342 342 342 342 343 345 349 347 347 344 342 344 346
342 349 348 349 348 345 348 342 345 349 341 342 343 346 344 341 342 341 341 341 342 342 343 345 342 337 343 347 347 346 342 341 341 341 339 345 348 350 345 341 350 354 350
347 348 349 348 345 343 345 339 349 343 342 341 344 344 347 347 346 342 341 342 340 342 342 339 344 337 345 348 348 348 343 340 338 337 335 343 348 339 339 344 355 354 354
351 346 344 350 351 348 345 345 344 343 347 344 345 341 342 343 347 345 340 336 339 341 339 343 344 345 345 348 349 349 341 341 339 335 335 337 333 336 339 347 355 354 354
352 346 349 349 348 346 345 350 347 346 343 346 350 344 343 344 342 347 341 339 341 342 343 345 344 345 347 349 348 348 344 348 344 337 337 331 333 335 344 352 355 354 353
349 351 349 349 344 343 346 347 342 337 342 346 347 343 344 342 346 347 345 344 342 344 345 345 346 346 348 349 350 351 349 351 348 342 346 335 332 333 345 353 353 354 352
350 348 345 341 343 341 349 349 344 340 336 340 343 341 345 348 342 343 346 347 346 345 347 346 346 347 348 348 351 350 351 349 348 345 348 346 336 332 342 352 353 352 346
350 351 349 345 345 349 345 348 345 340 344 338 335 335 344 345 345 346 345 346 348 348 345 349 348 348 348 349 350 352 349 345 339 348 349 348 344 337 343 352 352 351 346
350 350 351 350 344 351 348 348 344 346 348 350 344 335 341 347 346 344 346 342 346 348 349 348 345 349 351 351 347 343 346 337 341 351 349 349 346 343 345 351 351 352 350
351 346 350 350 349 351 351 347 347 348 350 345 344 349 338 342 346 350 348 347 347 346 347 349 347 349 348 348 345 342 341 333 348 349 350 349 347 345 345 352 354 351 351
352 351 339 350 348 350 349 349 345 352 351 347 346 348 349 340 341 350 349 343 344 346 347 346 349 350 348 346 346 349 349 341 350 349 349 346 348 347 345 348 355 351 350
338 349 352 352 353 350 350 351 347 348 350 348 347 345 348 349 342 343 349 350 350 348 349 348 347 346 338 350 349 351 351 350 348 348 347 345 348 347 345 345 352 350 350
343 337 338 348 350 347 346 349 349 347 348 352 350 349 348 348 347 345 341 346 347 346 346 348 352 354 351 346 348 351 350 352 347 346 347 346 345 346 343 345 347 355 354
347 344 342 348 350 350 349 349 352 349 347 347 351 351 351 350 351 349 346 345 347 348 350 351 351 348 349 349 351 351 353 351 344 348 344 344 346 344 342 347 346 356 355
353 350 347 344 350 352 353 350 350 353 349 350 349 352 353 350 346 350 350 345 350 349 352 349 351 350 351 353 352 349 348 346 346 344 338 347 345 341 348 347 349 351 354
354 354 353 350 348 347 351 351 351 350 350 347 349 348 346 352 355 355 354 346 339 350 350 350 350 351 351 349 346 345 346 343 334 337 340 331 343 348 349 349 347 347 354
352 354 355 354 353 351 347 349 348 348 350 353 352 351 349 352 349 349 349 349 347 343 339 337 337 335 332 330 334 334 335 336 338 336 344 348 346 345 347 347 345 347 349
353 353 351 352 354 353 353 352 349 349 347 345 345 350 353 351 346 350 353 353 353 353 350 345 344 340 338 338 339 340 342 341 341 340 347 349 344 346 345 345 345 344 347
351 352 353 353 352 352 353 353 355 351 351 348 345 343 343 345 348 348 343 346 350 354 355 351 347 346 344 344 344 346 346 345 342 335 333 335 341 342 344 344 344 345 346
348 350 351 352 352 352 352 352 352 353 353 353 352 350 347 345 344 343 343 349 348 332 336 342 350 349 347 347 346 346 345 342 341 344 336 340 344 345 345 343 344 344 343

GFSMA_850_thetae_087.txt.gz
Theta_e
346 343 343 344 346 342 340 339 343 342 344 342 340 339 345 344 345 345 341 335 326 326 327 327 325 324 323 322 322 322 323 323 324 325 326 326 326 326 325 324 324 324 324
345 340 345 344 346 345 340 341 344 344 343 341 343 342 341 342 343 344 345 344 343 323 321 320 320 321 321 322 322 324 325 328 331 334 337 338 338 337 337 335 330 326 324
340 341 344 345 345 346 342 346 345 345 344 339 343 343 343 342 342 342 343 345 345 344 322 321 321 321 322 323 326 330 335 341 342 343 343 343 342 342 341 340 340 340 333
346 344 344 344 343 344 345 343 345 344 344 344 341 343 344 344 343 344 343 340 343 345 333 329 328 324 325 329 336 341 342 343 342 342 342 342 342 343 343 342 342 340 339
348 344 345 346 344 344 345 345 346 346 346 345 344 343 344 344 343 343 339 341 340 342 340 340 341 329 331 339 341 342 342 342 342 342 342 343 347 348 347 346 345 345 343
347 345 346 346 346 345 343 344 343 345 343 343 344 344 344 342 343 343 344 343 345 344 341 338 341 339 336 340 342 341 341 341 341 342 343 346 348 349 347 343 342 345 345
345 347 347 343 346 345 345 341 343 344 344 341 344 345 339 340 341 342 343 343 345 343 342 343 337 336 340 343 346 343 342 339 340 340 339 346 348 345 337 340 352 353 352
347 346 342 342 345 341 347 346 345 345 343 342 341 344 342 341 341 341 341 343 342 343 343 342 332 335 344 347 347 348 341 340 338 335 338 341 337 337 338 346 354 354 355
343 347 348 348 344 338 341 346 344 343 341 342 341 344 346 345 341 340 340 341 339 341 342 340 343 343 345 349 348 349 343 344 341 338 334 333 334 335 344 351 354 354 355
347 346 346 348 345 343 336 346 345 344 343 344 345 342 342 343 344 343 341 340 341 341 340 343 344 345 347 347 348 347 350 349 345 344 344 336 332 334 348 352 354 354 353
349 350 347 343 345 342 343 342 348 345 344 344 347 345 344 345 347 347 343 339 341 342 344 344 343 344 347 349 350 351 350 348 346 345 347 346 336 335 347 352 353 352 349
350 347 347 348 344 343 344 346 348 341 343 345 346 343 344 343 345 346 347 342 341 343 344 345 345 346 347 349 350 350 350 349 344 345 348 348 344 340 346 351 351 350 341
348 347 350 348 344 340 343 344 339 339 340 342 343 341 344 347 347 348 346 347 346 346 346 346 346 346 347 349 349 349 350 344 343 347 350 349 346 342 347 350 351 350 345
346 350 348 346 344 339 347 345 343 337 337 335 338 338 340 344 346 346 348 346 346 348 348 347 347 347 349 348 350 349 342 338 334 349 349 349 347 344 346 352 351 350 349
348 348 350 347 346 348 343 340 343 341 344 344 335 333 335 343 346 345 346 342 345 345 347 348 347 350 351 351 349 346 342 343 341 348 350 349 346 346 345 346 353 349 349
348 349 346 346 344 346 345 344 346 346 349 345 343 340 334 339 344 347 348 347 346 346 346 347 347 351 349 349 348 344 346 347 345 346 348 350 346 348 344 345 349 350 350
350 350 346 348 346 348 346 345 344 348 350 350 346 345 344 337 338 343 348 343 342 346 348 345 345 346 345 346 345 337 346 349 347 347 347 347 346 347 345 344 345 352 354
349 348 345 344 349 346 349 350 346 344 348 348 345 342 343 347 341 337 342 349 347 348 348 348 347 345 343 338 340 346 349 350 351 346 347 346 346 345 344 342 345 347 356
344 345 345 347 342 342 350 347 347 349 345 348 349 348 347 345 341 342 340 343 346 345 348 347 346 345 345 343 348 349 351 352 351 345 344 346 343 346 345 342 347 347 353
345 345 340 339 345 346 347 347 346 348 347 347 347 352 351 349 347 345 345 342 338 336 340 343 346 349 349 346 350 350 349 351 351 349 340 334 338 345 342 347 348 347 348
353 350 348 346 345 346 347 347 346 349 350 350 347 346 348 349 349 350 349 347 346 338 339 340 342 349 349 353 352 350 346 345 345 331 328 328 335 340 344 348 349 348 346
351 354 352 352 349 347 346 347 348 350 348 349 347 348 347 347 349 352 353 354 351 346 342 335 340 346 342 339 337 332 331 331 332 327 330 328 344 344 345 345 348 347 344
353 353 352 354 353 353 349 348 350 353 352 351 351 350 350 349 349 347 348 346 348 349 349 348 346 345 342 338 338 337 336 337 338 335 336 331 327 336 343 345 347 345 343
349 350 352 352 353 353 353 351 348 347 349 350 350 349 350 352 350 348 348 349 352 350 349 349 351 349 348 343 341 344 346 346 343 337 339 338 334 329 338 343 345 344 343
349 350 350 351 351 351 350 352 351 349 349 346 347 348 347 345 344 344 347 346 344 343 342 343 341 341 341 346 347 348 346 346 345 333 336 337 341 335 331 343 343 344 343
343 345 347 347 349 351 351 350 350 350 350 351 352 351 350 349 348 347 347 345 344 343 344 344 344 345 344 342 345 346 346 343 344 338 333 341 341 343 344 340 336 345 347

GFSMA_850_thetae_090.txt.gz
Theta_e
342 342 342 343 340 340 337 343 340 343 341 341 339 342 343 344 343 344 343 335 321 323 323 323 322 322 322 322 323 324 325 327 329 331 333 334 335 334 334 332 327 325 323
340 343 343 344 343 337 342 344 344 343 342 341 341 341 340 341 341 342 343 344 337 321 320 321 321 322 322 324 326 330 336 340 341 341 341 341 341 340 339 338 335 331 326
342 344 344 345 345 340 342 343 343 343 340 342 344 343 342 340 341 341 342 341 342 324 324 322 322 324 326 331 339 342 342 342 342 341 341 341 341 341 341 341 341 339 335
342 343 343 342 341 345 342 342 343 343 341 342 343 343 343 341 343 339 339 341 337 334 335 328 326 329 336 341 341 341 341 341 341 341 342 343 345 347 346 346 344 343 342
344 344 345 344 343 344 343 344 344 344 345 344 343 344 344 343 344 342 342 342 341 336 337 338 331 336 340 341 340 341 341 341 342 342 342 346 347 348 347 344 343 345 345
344 345 346 344 346 344 344 345 344 345 342 343 343 344 344 343 344 343 344 344 344 341 341 338 334 337 340 342 344 343 341 340 338 336 339 344 344 339 339 342 351 353 351
345 344 344 344 344 344 343 343 344 345 342 341 343 344 341 340 342 343 344 343 344 342 343 338 333 336 342 344 345 343 341 345 341 338 334 334 336 336 341 347 354 354 354
343 347 345 341 344 343 342 344 345 342 341 342 342 343 340 339 340 341 342 343 342 342 342 337 338 344 347 345 346 346 347 348 344 345 340 337 333 338 350 352 354 354 354
343 346 341 345 346 340 341 343 344 343 341 343 342 345 345 343 342 341 339 341 342 340 341 342 343 345 346 347 348 348 350 348 345 346 346 345 337 338 351 352 353 353 353
345 345 345 344 342 338 342 345 344 343 343 343 342 343 344 345 345 342 340 341 339 341 340 343 343 344 347 348 349 350 351 350 344 346 347 347 342 343 350 351 351 350 347
348 345 345 344 345 341 338 345 344 345 344 343 344 343 343 346 347 347 345 340 340 341 342 344 343 345 347 348 349 350 350 349 346 344 348 348 345 345 349 349 350 348 337
347 349 346 343 344 343 342 339 342 344 343 344 345 344 344 346 346 347 346 342 340 341 344 345 344 345 347 348 350 350 349 344 343 343 349 348 346 344 349 350 349 349 345
345 349 345 345 343 342 343 345 340 342 340 343 343 342 343 345 348 347 346 345 347 346 344 345 345 345 346 348 348 350 346 346 343 347 349 348 346 344 344 349 349 348 348
344 342 346 345 342 340 341 344 341 335 336 337 340 341 339 339 346 346 348 343 345 347 348 346 346 345 347 349 351 348 343 347 348 347 350 349 347 346 345 344 350 350 348
346 346 348 349 347 342 341 344 343 340 334 333 334 335 335 335 341 345 348 346 346 347 346 347 348 351 351 350 348 347 344 346 350 349 349 350 349 347 346 343 344 351 351
347 347 346 349 341 340 346 342 340 340 340 342 341 339 335 332 338 344 347 348 345 345 345 346 347 347 346 346 345 342 338 349 350 347 346 346 345 346 346 343 343 345 354
346 348 350 346 345 337 342 344 344 344 344 342 344 338 337 337 338 339 344 346 347 346 345 344 345 345 343 343 341 340 346 349 350 349 345 344 346 344 346 343 343 346 350
349 348 350 346 343 345 347 346 348 342 345 348 346 340 340 345 342 339 339 340 343 347 346 346 346 345 345 343 341 346 348 349 351 350 346 347 341 338 344 344 345 347 347
344 349 349 348 346 346 346 348 348 349 347 343 346 348 343 341 341 338 336 337 338 343 343 341 343 346 345 343 343 345 350 349 348 348 347 342 326 332 343 344 344 347 347
345 344 344 344 344 347 346 348 349 345 346 348 344 346 349 351 347 346 347 347 343 339 337 335 334 337 340 338 342 352 352 351 347 342 336 327 327 337 337 338 346 348 348
347 346 346 347 343 342 344 345 347 348 347 347 350 348 346 345 348 348 348 349 351 348 345 346 337 336 338 338 341 340 338 333 329 329 327 325 328 341 345 346 346 346 347
349 349 350 350 349 349 347 345 346 348 347 348 347 349 348 349 347 348 347 350 349 348 348 349 349 348 347 344 342 342 339 337 338 331 338 329 330 328 330 342 343 346 345
348 347 348 347 351 348 349 348 347 346 346 352 353 352 351 350 350 348 348 348 347 348 349 352 352 351 350 346 347 343 339 342 342 339 340 332 328 330 337 330 343 345 344
344 348 349 348 348 348 352 351 351 349 347 348 350 351 350 348 347 346 347 346 342 342 344 348 349 346 345 344 345 345 346 342 339 338 341 335 327 331 341 328 338 344 344
342 343 347 347 348 349 349 350 350 349 349 350 347 346 348 349 349 349 349 347 345 343 343 343 343 343 343 345 349 349 350 349 346 342 342 340 331 333 339 341 341 337 339
337 338 341 343 345 346 346 347 350 350 350 350 350 348 350 350 349 348 349 349 349 347 347 347 346 347 349 349 349 348 348 348 347 346 345 347 344 343 341 339 342 345 344

GFSMA_850_thetae_093.txt.gz
Theta_e
338 339 340 340 338 340 342 340 340 340 340 340 338 340 342 340 341 343 343 329 321 322 321 321 321 322 322 323 325 328 334 338 340 340 340 339 339 339 338 338 337 334 330
343 342 342 340 338 339 342 339 342 342 341 341 341 342 341 342 341 341 342 341 321 321 321 321 322 323 326 330 337 340 341 341 341 341 340 340 340 341 342 342 341 340 337
340 343 343 342 340 341 342 343 343 342 340 343 343 343 343 341 341 342 342 340 329 328 323 324 326 330 336 340 341 341 340 340 340 341 342 343 344 345 346 346 345 343 342
341 342 342 341 343 342 343 343 343 343 340 343 342 343 343 342 342 342 340 336 334 335 333 328 334 339 340 340 340 341 341 341 342 342 342 345 347 347 346 344 343 345 345
342 343 342 343 343 341 342 343 343 343 344 343 343 342 343 343 343 342 342 341 337 334 335 333 337 339 342 343 344 343 342 344 342 338 339 340 340 340 341 342 349 352 351
343 343 345 342 342 343 344 344 344 344 342 342 343 343 343 344 343 343 343 344 342 341 338 334 336 340 342 343 344 344 343 347 344 343 341 335 336 339 345 347 352 352 351
343 343 345 344 344 344 343 343 344 345 343 341 342 343 340 339 340 341 343 343 343 342 341 333 333 343 345 346 347 348 349 349 346 346 347 341 341 341 351 352 353 352 351
343 345 343 343 344 343 341 343 343 341 342 342 342 342 339 339 340 340 342 341 341 341 341 338 344 345 347 348 348 350 350 349 346 347 347 347 344 346 351 352 353 352 352
344 343 345 341 344 343 343 343 344 342 343 342 343 343 344 344 341 340 340 340 340 340 341 342 344 346 347 348 349 349 350 349 347 345 348 348 344 349 350 350 350 348 346
345 343 345 342 345 342 343 342 342 343 344 343 342 343 344 346 345 342 339 340 339 340 340 343 343 344 346 348 349 349 349 345 346 342 349 349 345 346 351 349 349 345 337
344 344 344 344 345 342 339 344 341 344 343 345 343 343 346 347 346 346 345 340 339 341 343 343 343 345 346 348 349 350 346 348 346 343 348 348 346 344 347 350 348 348 345
346 346 347 344 343 346 342 339 342 341 343 344 344 344 346 347 347 346 345 345 340 341 343 344 344 344 346 348 349 350 345 347 346 348 349 349 347 345 344 346 350 349 347
344 343 346 342 341 344 342 342 338 340 342 342 343 342 340 342 346 347 346 344 346 345 344 344 344 345 345 349 350 348 345 344 349 346 349 349 349 347 345 344 346 351 349
347 345 343 342 340 342 343 341 342 341 339 340 341 340 339 336 341 345 347 344 344 345 348 348 347 347 350 351 348 347 344 338 348 350 349 346 345 346 346 344 343 346 353
345 344 344 346 346 341 340 341 343 343 339 336 335 336 337 336 335 342 345 347 345 345 345 346 347 350 349 347 344 342 340 336 348 348 345 344 345 344 343 344 341 344 347
347 345 347 347 349 347 342 340 341 341 341 338 341 341 337 336 334 337 343 344 347 345 345 345 345 345 345 343 342 341 339 341 349 350 349 346 346 344 340 344 341 345 346
347 345 347 348 347 345 341 344 343 343 343 343 344 341 341 340 341 340 340 341 342 344 345 344 344 345 344 344 343 340 345 347 348 350 350 349 345 329 329 343 342 345 346
347 345 347 347 346 346 344 345 344 344 343 343 348 346 342 342 345 344 344 340 339 340 342 345 344 344 345 345 344 344 341 348 349 348 346 344 333 328 332 336 339 343 346
344 345 349 349 347 346 342 345 346 344 347 346 343 343 345 346 345 344 342 342 342 344 343 341 341 341 342 337 336 335 338 349 350 350 346 333 327 328 345 345 340 345 347
343 344 347 347 347 348 347 347 348 348 347 345 346 347 343 346 347 346 346 345 349 349 347 344 340 337 337 337 337 337 337 335 334 329 327 328 328 329 341 344 345 346 345
344 343 344 346 348 347 343 344 346 347 348 348 345 347 348 347 345 344 345 345 348 348 350 350 347 347 346 346 345 344 342 336 330 330 330 329 329 327 326 328 340 343 344
344 345 345 347 345 345 348 346 347 346 349 351 347 346 345 348 349 349 348 348 345 347 347 349 346 348 348 348 348 348 347 345 342 335 334 327 327 325 326 337 331 338 342
343 345 345 345 346 346 345 345 346 345 344 343 344 348 350 350 349 349 348 347 349 349 348 348 348 348 350 347 346 343 344 344 340 334 339 329 329 328 331 338 334 332 342
341 342 344 344 344 344 345 345 345 347 347 348 347 346 346 347 349 349 349 347 345 344 345 344 343 341 341 342 342 343 343 344 344 344 346 343 337 336 336 332 340 337 336
339 340 341 341 342 343 346 347 347 347 348 349 348 347 349 348 346 346 347 348 348 347 347 348 347 347 347 346 345 346 347 348 347 346 347 348 342 344 339 333 334 339 341
336 336 338 339 341 343 344 345 346 345 347 347 348 348 349 349 348 348 348 349 349 349 349 348 348 348 347 347 349 350 350 350 350 349 347 349 349 350 350 341 336 336 340

GFSMA_850_thetae_096.txt.gz
Theta_e
339 341 340 338 341 342 342 342 341 340 340 339 340 342 340 342 342 343 342 324 321 321 321 321 322 323 325 330 336 339 339 340 340 340 340 340 341 342 342 342 342 340 335
341 341 340 339 338 341 340 341 341 341 341 341 342 340 342 342 342 342 342 330 324 322 322 323 325 330 337 340 340 340 340 340 341 342 342 343 345 346 346 346 345 344 342
343 341 342 340 340 340 342 342 342 341 340 342 342 343 342 341 342 341 340 336 336 331 327 329 336 340 340 340 341 342 342 342 342 341 342 345 345 345 343 343 343 344 345
342 342 342 342 342 342 342 343 343 342 340 342 342 343 343 343 343 340 338 336 336 337 334 336 339 340 342 343 344 343 345 345 344 342 340 338 339 340 342 343 348 351 350
341 342 342 342 343 342 342 343 343 343 343 342 342 343 343 343 343 342 342 338 335 335 335 337 339 342 344 345 345 346 347 347 346 346 346 341 342 343 349 349 349 349 352
342 342 343 341 342 342 343 343 344 343 342 341 341 341 342 340 341 343 343 343 341 340 337 335 338 343 346 347 348 349 349 348 348 348 348 346 346 349 351 351 348 351 347
342 344 343 342 343 343 343 343 344 343 341 340 341 338 338 339 340 341 342 342 342 341 338 334 341 346 347 348 348 350 350 349 347 348 350 350 346 350 350 350 348 350 347
344 342 341 342 344 343 340 343 343 341 342 341 341 339 339 339 340 340 340 340 340 339 340 343 345 346 347 348 348 349 349 348 348 346 349 350 345 350 349 349 347 341 343
340 341 344 343 343 343 341 343 343 341 342 342 343 341 343 344 340 339 339 339 338 340 342 343 344 345 346 348 349 349 347 348 347 345 348 348 346 345 350 348 348 341 334
345 342 344 341 344 344 342 342 342 341 343 343 343 343 345 346 346 343 339 339 338 339 341 342 343 344 346 347 348 347 345 348 346 348 349 349 347 345 344 350 349 347 344
343 343 343 343 342 343 339 342 342 342 341 344 343 345 345 346 346 345 343 339 340 341 342 343 343 344 345 348 348 347 344 345 348 346 349 349 348 347 345 344 350 350 346
345 345 344 344 342 344 340 339 343 340 343 343 343 343 345 346 346 346 344 344 341 341 342 344 344 345 345 347 349 348 345 340 348 348 348 348 345 346 346 344 344 350 350
345 343 345 345 342 342 345 342 341 339 340 342 343 341 340 340 345 346 345 343 345 346 346 346 345 345 345 349 349 346 344 341 340 348 346 345 344 344 344 345 342 345 351
346 346 344 343 342 341 342 343 342 339 338 340 340 341 339 338 337 344 345 345 343 345 347 348 349 348 350 349 345 343 342 341 338 348 346 345 344 347 340 344 341 344 345
347 344 342 343 345 344 341 340 340 343 343 338 337 337 336 337 337 335 343 344 346 344 344 345 347 347 345 344 343 342 341 340 344 348 349 348 348 347 329 343 342 343 345
347 347 345 345 346 347 348 343 341 342 341 341 338 339 340 339 338 336 335 342 343 345 345 345 344 344 344 343 343 344 343 342 345 348 349 350 348 342 327 335 343 341 344
345 345 344 345 347 347 345 340 341 342 340 342 341 343 341 342 340 341 341 341 341 341 342 343 344 344 343 343 343 343 342 341 345 348 348 348 347 331 329 342 336 339 342
346 345 344 345 347 346 346 341 342 342 340 343 344 346 345 344 342 344 344 345 342 341 341 340 340 341 340 339 337 334 336 337 345 350 349 348 331 327 333 338 344 342 345
341 339 344 342 343 345 346 344 344 344 344 345 343 343 343 342 345 345 346 346 346 347 349 349 346 341 339 337 336 337 337 338 336 334 331 328 329 331 331 330 332 343 345
340 343 343 344 345 346 346 347 346 346 347 346 345 343 345 345 344 345 346 346 344 348 348 348 350 350 347 344 347 347 345 343 336 333 331 331 330 331 328 328 329 328 341
342 342 344 344 344 346 348 347 344 346 346 344 346 347 345 346 347 345 345 344 345 346 347 347 347 348 345 345 348 349 346 340 333 331 328 327 326 325 327 328 332 334 332
342 343 344 344 343 342 344 346 348 344 345 344 344 346 346 344 345 347 349 349 348 349 349 348 347 346 345 345 344 344 341 342 341 333 337 330 331 330 334 333 332 332 329
342 342 343 344 345 345 345 343 344 345 345 344 344 343 343 347 348 348 348 348 347 347 346 348 349 347 347 344 345 344 344 344 344 341 343 340 339 337 340 338 334 337 331
338 340 341 341 341 342 343 343 343 344 344 346 346 346 346 345 345 345 346 347 347 347 347 347 347 346 346 345 346 346 346 346 345 346 348 348 345 345 345 342 340 336 341
337 337 339 337 338 341 342 342 342 344 344 346 346 347 347 347 345 345 346 346 346 347 347 347 346 345 345 346 347 348 347 348 348 348 349 350 347 349 349 345 344 341 337
336 337 336 336 339 340 341 342 343 343 343 345 345 345 345 346 346 347 348 348 347 347 347 348 348 349 348 347 348 349 348 350 350 350 349 350 350 350 350 350 349 349 349

GFSMA_850_thetae_099.txt.gz
Theta_e
341 341 339 341 342 342 341 341 340 340 339 340 342 341 341 341 342 342 330 322 321 321 322 323 326 332 337 339 340 340 341 342 342 342 342 344 345 345 345 345 345 343 342
339 341 339 339 340 341 340 341 341 341 342 342 340 341 340 341 342 340 333 330 325 324 326 331 337 339 340 340 342 343 344 344 343 341 341 340 341 341 342 342 343 344 344
342 341 342 338 340 341 340 342 341 340 342 342 343 343 343 342 341 336 335 336 334 331 334 338 339 340 343 344 344 345 345 346 346 346 343 343 342 344 346 346 348 350 348
343 343 342 341 341 341 342 342 341 340 341 342 342 343 343 343 341 339 337 336 336 336 338 339 341 343 345 346 347 347 347 347 347 347 347 346 348 350 350 349 348 349 351
341 342 341 343 342 342 343 343 342 342 342 341 341 341 342 342 342 342 339 338 336 336 337 339 342 346 347 348 349 349 349 349 348 349 350 347 350 350 350 349 349 348 344
341 343 342 342 342 343 343 343 343 342 340 339 339 339 338 341 342 343 342 341 340 337 335 337 343 346 347 348 349 350 350 349 348 348 350 348 349 348 348 348 348 346 345
343 343 344 342 343 343 343 343 343 341 340 340 338 339 339 340 340 341 341 341 339 336 334 340 346 347 348 348 348 349 348 349 347 347 349 348 344 349 348 346 339 339 341
343 341 342 343 342 342 341 343 342 341 341 341 338 339 343 342 339 339 339 340 338 339 342 344 346 346 347 348 348 347 348 347 345 348 349 348 345 344 349 348 344 337 333
339 341 340 342 344 343 341 343 342 341 342 342 341 342 346 345 341 339 338 338 337 342 342 343 343 344 347 348 348 345 344 347 347 349 349 348 347 345 344 349 347 344 341
343 342 343 341 342 344 342 342 342 342 344 343 342 344 345 346 349 344 341 339 337 340 341 342 343 344 345 348 349 346 343 343 347 345 348 348 346 347 345 344 350 348 346
344 341 343 340 342 342 340 342 342 341 343 343 344 345 345 346 345 347 345 345 340 341 343 343 343 344 345 347 349 347 344 341 342 347 346 345 344 344 345 344 344 351 350
344 343 344 342 342 343 342 340 344 340 342 343 343 342 344 347 348 350 348 345 342 342 342 343 344 344 345 347 349 347 344 343 338 344 346 343 343 347 341 345 342 345 351
343 343 344 343 342 341 344 340 338 341 340 342 342 342 340 338 344 345 347 346 345 346 346 347 346 346 346 348 347 344 342 341 340 344 347 347 347 348 335 343 342 344 345
346 346 344 343 342 341 342 343 342 340 338 338 340 341 341 339 337 338 344 346 348 348 346 347 348 349 349 345 344 343 342 341 342 347 348 348 349 347 335 332 343 341 345
346 346 345 343 343 341 342 341 342 341 342 342 336 338 338 337 338 337 336 341 344 348 347 347 348 346 344 343 343 343 344 343 344 347 349 349 348 344 329 336 341 342 342
346 347 347 345 345 345 346 346 342 341 341 342 340 337 337 337 336 337 337 335 339 345 346 348 347 344 343 343 344 342 340 340 340 346 348 348 348 343 328 341 340 336 339
345 345 345 344 346 347 346 343 341 340 341 339 340 340 342 340 340 341 339 339 339 340 347 345 343 340 341 341 339 336 334 340 346 341 348 348 344 330 330 335 336 343 341
346 346 345 344 345 345 346 344 340 341 341 340 342 343 344 345 343 341 343 343 344 343 343 348 348 346 341 340 340 340 340 346 343 341 335 331 330 332 333 333 330 329 340
341 342 340 343 343 343 346 345 343 343 342 342 341 341 341 342 341 344 343 342 348 346 345 348 349 351 347 345 342 345 343 340 343 342 338 333 331 330 332 330 329 327 331
340 340 341 342 342 342 346 346 347 347 344 345 344 343 343 343 344 342 345 343 344 344 344 347 349 350 351 349 345 349 350 348 344 334 337 336 329 328 328 329 330 330 334
340 340 341 342 343 343 345 346 348 347 345 345 343 343 344 343 344 346 346 343 343 343 343 348 349 350 349 349 350 350 349 347 345 346 334 344 346 341 345 341 336 333 337
341 342 342 342 343 342 340 341 344 345 344 343 343 342 342 342 344 342 345 347 349 348 347 348 350 350 351 352 350 350 350 349 348 347 346 340 345 349 350 349 343 337 337
341 341 342 342 342 343 343 343 344 342 342 342 343 343 343 343 343 345 346 346 347 347 348 347 347 347 347 347 346 345 349 348 349 346 345 349 349 351 350 350 347 345 336
339 338 338 340 340 340 342 343 343 344 344 345 344 345 347 346 345 346 346 346 345 344 345 346 347 346 347 347 347 348 348 346 347 350 352 351 351 352 351 348 346 347 343
338 337 337 337 338 338 339 340 341 342 342 342 343 343 344 345 344 344 345 345 346 347 347 347 347 347 346 347 348 349 349 352 352 351 352 353 351 352 350 350 348 348 348
337 336 336 337 337 338 338 338 340 340 341 341 341 340 340 340 340 340 341 342 343 343 344 344 345 346 345 346 346 348 348 349 352 353 351 353 352 352 351 350 352 352 352

GFSMA_850_thetae_102.txt.gz
Theta_e
348 347 347 348 347 346 345 347 347 346 344 345 345 345 344 344 341 339 334 322 323 324 330 337 340 339 340 341 344 345 345 345 345 344 342 341 341 342 342 342 343 343 344
348 347 348 347 347 347 346 347 347 345 344 343 344 344 344 343 342 342 340 331 328 334 339 340 339 340 343 344 346 346 347 347 347 347 346 347 347 348 348 347 346 346 346
343 348 347 347 348 343 344 347 347 346 343 343 345 345 344 343 341 343 343 343 340 339 339 338 341 343 346 347 347 348 348 348 348 349 348 348 350 351 350 349 349 350 351
343 348 347 347 347 347 348 346 345 343 345 344 345 345 344 343 344 344 344 345 346 345 341 341 345 347 348 349 349 349 349 349 348 349 347 349 349 349 348 348 349 347 347
342 348 348 349 347 348 347 345 345 345 344 344 343 343 343 344 344 342 344 346 344 347 346 344 347 348 348 348 349 349 349 348 347 348 346 345 349 348 347 344 347 344 343
342 345 348 348 348 348 347 347 344 346 343 344 343 342 342 343 344 344 344 344 344 346 345 344 350 350 348 348 348 348 349 344 346 348 347 345 344 349 346 342 337 341 341
345 346 349 347 349 349 346 348 348 345 343 343 344 342 341 342 342 343 343 343 343 344 346 348 349 349 349 347 347 346 347 346 348 348 348 348 346 344 349 345 340 333 334
342 345 349 349 349 349 345 344 343 346 345 343 344 344 342 341 342 341 342 342 343 344 346 348 348 347 348 350 347 344 344 347 345 348 348 347 348 346 343 350 346 343 339
349 344 342 348 344 347 348 347 346 344 345 348 342 348 343 344 342 340 342 341 342 345 346 346 347 348 347 351 350 348 343 341 347 347 346 345 344 345 346 344 350 348 346
349 346 342 343 343 349 345 347 348 349 347 347 348 350 347 348 345 342 341 342 341 342 345 345 345 348 349 350 352 349 344 341 340 346 345 343 345 344 342 344 345 351 349
347 351 346 341 342 348 342 344 348 347 349 348 348 349 351 352 348 345 343 344 341 343 346 347 346 348 351 353 351 349 344 342 341 343 347 345 345 347 339 343 342 345 351
347 347 346 341 340 350 343 344 342 342 346 348 349 348 348 348 349 347 346 347 346 347 348 351 351 350 352 351 352 345 343 341 340 343 348 348 348 349 341 332 344 343 346
349 345 348 343 347 342 343 342 341 346 346 348 344 349 348 348 349 350 349 348 347 348 349 351 352 352 350 352 351 344 347 343 342 343 347 348 348 346 340 328 338 343 344
349 352 348 349 343 343 345 344 349 347 349 345 347 344 348 348 348 348 349 348 347 347 348 346 351 351 350 351 350 346 348 348 343 343 347 347 346 345 339 330 340 342 342
352 345 349 349 348 343 342 344 349 344 347 342 349 340 345 348 348 348 348 347 347 346 345 349 347 349 349 347 346 347 347 348 338 341 344 347 348 346 337 329 341 337 338
347 347 346 348 350 349 345 345 349 345 340 348 347 350 338 347 348 347 347 346 347 346 345 344 345 349 350 346 345 347 346 343 345 346 339 341 345 337 331 331 334 338 339
344 345 346 343 345 345 348 347 345 351 349 350 348 350 349 345 346 346 345 346 346 346 346 342 344 344 351 351 350 350 346 345 344 346 340 335 332 332 334 334 332 330 328
347 344 345 344 343 345 345 346 350 349 349 349 349 350 350 348 350 349 348 349 347 349 347 347 347 347 348 350 350 352 349 346 347 347 341 338 334 331 329 330 330 328 328
347 350 345 344 344 344 343 344 348 351 351 350 349 350 349 350 350 349 349 350 347 349 349 349 348 346 347 348 348 348 350 349 346 343 343 341 341 336 333 331 330 330 331
342 347 344 348 347 344 342 344 345 347 350 350 351 350 350 350 351 350 350 350 349 349 348 349 347 347 347 347 349 347 345 345 345 345 345 346 346 346 347 347 342 338 334
341 339 349 349 346 348 347 345 346 346 351 351 351 350 350 350 345 345 347 347 346 349 349 348 347 347 346 351 347 347 346 346 346 346 346 348 346 347 348 349 350 346 341
344 341 342 343 345 348 343 341 342 347 351 352 351 351 350 348 348 343 344 343 345 347 349 349 348 347 350 349 347 347 348 348 349 347 349 349 348 348 349 349 350 346 345
344 343 344 346 342 343 343 343 343 343 347 351 351 351 351 346 341 342 343 344 346 346 344 344 346 351 351 350 350 350 352 352 352 352 352 350 350 349 349 349 351 349 347
339 343 340 341 341 341 341 342 344 345 345 343 343 343 344 343 343 343 344 344 346 349 352 350 348 347 347 347 347 348 348 349 353 353 351 351 350 350 350 350 352 353 349
339 341 339 338 337 338 339 340 341 342 342 344 344 343 343 341 341 340 340 340 341 343 343 343 346 346 345 346 347 346 349 350 353 353 353 352 354 355 353 350 351 352 352
340 340 339 337 337 337 338 338 338 340 341 341 341 339 338 337 336 337 337 336 337 338 337 338 337 338 338 339 339 341 347 349 349 351 352 351 351 353 352 352 352 352 353

GFSMA_850_thetae_105.txt.gz
Theta_e
345 347 347 347 345 345 344 345 344 344 345 345 343 344 343 342 340 335 323 325 330 337 340 338 339 342 344 345 345 347 347 347 348 347 348 348 349 349 348 347 345 345 344
347 346 346 344 346 347 346 346 348 343 343 342 344 344 344 342 343 341 339 333 338 340 338 339 342 345 347 348 348 348 348 348 349 348 348 349 349 349 349 349 349 349 349
347 346 345 347 346 343 346 347 344 345 343 342 345 345 343 343 344 345 345 345 340 337 339 342 346 348 348 349 349 348 348 347 348 347 346 349 349 347 347 348 348 349 349
349 348 347 346 345 348 346 345 343 342 343 344 345 345 343 342 345 346 346 347 347 345 343 347 348 348 348 348 348 348 346 345 347 347 346 344 349 347 343 341 344 344 344
346 348 349 345 349 347 345 344 341 346 343 344 344 344 344 343 345 344 347 347 346 347 347 347 348 348 347 347 347 347 344 346 347 348 348 346 344 348 345 341 337 341 342
350 350 348 347 350 348 347 347 349 344 344 345 345 343 344 344 345 346 345 344 345 348 346 351 352 351 347 348 343 344 346 345 348 348 348 348 347 344 349 346 340 335 336
350 348 350 347 350 348 348 349 351 344 343 341 347 342 342 344 345 345 344 344 341 344 346 349 349 350 351 351 347 343 341 345 345 347 347 346 346 346 344 350 348 344 340
351 347 350 350 350 350 351 353 348 350 343 343 346 345 342 343 343 343 343 342 343 344 347 349 349 350 351 351 351 347 343 340 343 346 344 344 345 344 345 344 350 349 346
350 353 350 355 344 349 349 352 346 349 345 343 346 352 346 346 342 342 342 343 343 346 346 346 348 350 352 354 352 349 344 342 341 344 345 344 345 347 341 345 345 351 349
351 350 351 352 349 352 349 346 348 348 351 344 344 346 345 349 353 343 341 343 342 344 345 345 345 350 351 350 353 349 344 342 341 342 346 348 347 348 338 337 344 345 351
350 349 351 352 351 349 347 352 346 352 348 349 347 346 343 347 340 347 345 345 342 342 347 347 346 347 352 354 352 349 344 343 341 340 344 347 348 348 341 329 343 343 345
351 350 350 351 350 350 348 348 352 344 353 350 350 345 347 348 349 349 346 344 345 347 347 350 350 349 350 350 353 350 344 349 345 341 341 344 347 346 344 330 336 344 343
348 349 351 351 350 344 353 351 345 354 345 351 348 353 344 345 346 348 347 349 345 346 348 348 350 349 348 348 351 350 348 347 347 340 340 344 346 347 346 332 338 340 343
349 350 350 351 350 352 352 352 349 342 349 348 351 347 352 346 345 346 347 347 346 347 348 347 347 350 350 349 348 346 347 346 347 341 344 340 342 346 344 330 333 339 335
349 354 351 351 351 351 352 352 349 351 354 349 349 345 341 348 345 346 346 346 346 345 344 350 347 348 350 350 348 348 349 347 342 345 344 337 337 341 333 329 329 333 338
349 353 352 353 353 353 353 350 350 348 350 350 347 349 349 348 350 347 346 345 345 345 345 344 344 345 348 348 347 348 350 347 346 346 343 341 331 330 330 331 331 330 328
343 348 348 352 351 354 354 349 349 350 353 351 350 351 349 350 350 348 349 347 345 344 345 346 347 344 345 351 348 351 349 348 346 345 346 341 337 335 332 330 329 329 327
351 347 355 354 351 353 352 351 352 351 351 351 351 351 351 348 353 351 350 348 346 344 346 346 347 350 346 350 349 348 348 348 346 349 342 343 343 341 344 344 338 333 333
352 352 350 349 351 352 352 349 353 351 351 350 349 351 351 351 351 351 351 349 349 351 350 350 347 346 347 348 349 347 349 350 346 344 343 345 345 346 346 347 348 347 340
350 350 351 351 353 351 352 351 352 352 353 352 351 351 350 351 352 353 352 352 350 350 348 349 347 347 346 350 351 347 346 345 347 347 346 347 346 348 346 347 349 350 349
348 349 350 350 351 350 349 351 352 353 353 352 351 351 349 350 350 348 345 350 349 350 350 350 348 347 347 352 348 347 347 346 348 347 348 348 347 348 347 347 348 351 350
348 349 350 351 351 349 346 346 344 350 350 350 351 352 349 350 349 345 340 341 342 341 343 351 350 348 346 349 351 352 353 352 352 352 354 352 350 349 348 349 349 350 348
346 347 348 348 346 343 342 343 343 342 349 351 351 350 349 350 347 347 344 343 345 346 347 346 347 349 350 350 348 349 351 351 352 353 352 351 352 353 352 349 349 349 350
345 346 347 345 342 341 342 342 343 345 347 346 346 345 344 344 343 343 343 348 348 348 350 350 350 349 347 347 346 346 346 348 351 353 354 352 354 353 354 355 353 351 352
341 341 342 339 339 339 340 340 342 344 345 344 344 344 344 343 342 341 339 339 340 342 340 339 341 341 340 340 340 340 346 348 348 350 352 351 352 352 353 353 353 353 350
338 337 334 340 339 338 337 338 340 345 345 341 341 341 341 339 337 335 334 333 332 328 325 329 337 340 340 342 343 342 346 345 345 347 349 348 346 347 349 351 352 351 352

GFSMA_850_thetae_108.txt.gz
Theta_e
344 347 334 346 347 345 346 345 344 342 346 344 345 343 342 341 337 329 328 334 340 337 337 340 343 345 346 347 347 347 347 347 346 346 347 349 348 348 349 349 348 347 344
348 344 347 346 344 349 345 341 345 345 342 340 345 345 343 341 342 340 339 339 335 336 340 344 346 347 347 346 346 345 346 346 345 345 344 347 348 344 344 347 347 347 347
346 350 345 347 340 341 342 344 345 342 343 343 344 344 343 343 342 345 346 343 337 340 345 347 347 347 346 346 346 343 344 346 347 347 346 343 347 346 341 339 342 343 343
344 345 348 347 343 349 350 344 346 346 345 344 346 345 343 342 344 346 347 348 347 346 344 346 346 344 344 342 344 345 346 347 348 348 348 347 344 347 345 339 337 338 339
347 347 347 344 347 350 342 348 342 345 345 344 344 344 344 344 346 347 345 346 347 349 348 347 350 347 349 343 341 341 343 344 347 347 347 346 346 344 348 346 341 338 337
347 350 350 343 348 351 347 346 344 343 344 345 345 345 345 345 345 345 346 345 344 347 348 351 353 351 351 349 345 343 340 343 346 344 344 345 345 345 344 349 347 343 341
347 350 348 346 342 346 342 340 350 346 343 343 348 342 341 344 346 345 345 344 343 347 346 348 349 350 352 351 350 344 343 341 342 344 343 344 346 344 345 344 350 348 345
344 350 351 350 350 349 340 345 350 353 344 343 348 349 342 344 344 344 344 344 344 344 347 349 349 341 351 353 351 346 345 343 341 343 345 346 347 345 339 344 345 350 349
344 350 350 346 347 349 349 343 348 350 346 340 348 351 352 349 344 342 341 343 340 346 347 345 348 347 350 353 353 349 345 343 340 340 344 347 347 345 335 338 344 346 350
349 345 349 351 348 349 348 348 346 348 349 350 344 344 345 342 345 340 343 344 343 346 344 345 348 348 350 352 353 351 346 342 345 340 339 344 347 345 339 331 343 344 346
350 349 347 347 349 352 348 348 343 348 350 350 349 347 342 349 348 347 344 345 342 343 346 345 345 350 352 351 351 350 348 345 346 345 340 341 346 346 344 333 340 344 343
342 348 351 351 346 349 346 344 344 346 349 347 347 345 350 345 347 344 342 345 346 341 342 350 347 346 348 343 351 350 347 346 345 346 341 341 340 344 346 334 338 341 343
352 349 348 346 345 344 349 345 345 346 344 341 344 350 347 347 342 346 348 347 337 342 342 345 340 334 344 350 348 347 346 346 342 342 344 336 335 338 342 330 331 339 338
349 350 344 347 347 351 346 350 346 343 347 342 342 345 349 348 347 345 346 344 347 348 346 344 344 345 351 351 350 346 345 347 340 344 345 342 330 330 329 329 330 331 331
348 349 350 351 351 351 348 352 344 351 349 349 344 340 339 340 348 350 347 345 346 347 346 347 349 349 346 344 343 342 338 337 346 347 345 344 339 330 328 328 328 330 330
347 347 351 350 349 351 350 347 348 350 345 345 346 349 349 345 344 351 348 349 345 344 346 346 348 346 343 345 349 344 343 347 348 346 348 341 343 341 338 337 334 331 329
347 344 346 352 350 349 352 350 345 348 350 346 343 348 349 344 338 343 343 345 345 346 345 348 341 342 343 347 349 346 347 347 348 347 344 342 344 344 346 346 347 347 336
348 347 347 346 345 347 349 348 345 349 350 347 348 348 347 350 349 350 347 352 349 350 351 348 350 346 345 348 349 349 348 348 344 346 343 346 345 346 347 346 347 348 347
348 346 349 347 349 349 350 346 344 346 351 351 349 349 351 352 349 348 347 346 344 348 350 348 347 347 347 350 349 349 345 347 349 346 348 347 347 348 346 347 347 348 350
348 347 351 349 348 346 350 352 347 346 346 350 350 348 348 348 349 348 349 348 349 350 344 349 349 350 349 351 346 351 346 347 347 344 347 351 348 345 348 346 349 348 349
350 345 349 348 349 350 350 350 350 349 347 346 347 351 350 349 349 348 348 346 342 340 346 348 343 345 346 346 345 344 343 345 342 344 348 348 349 353 353 352 349 349 349
347 348 345 348 346 347 347 348 349 345 348 350 343 349 349 348 348 344 341 338 341 342 344 344 344 348 349 347 347 347 345 347 347 345 350 348 351 352 354 353 349 351 351
345 345 349 350 345 343 338 340 344 345 344 343 348 346 346 348 350 346 343 343 345 348 348 348 348 348 349 350 347 345 345 344 348 349 351 352 352 354 354 354 352 352 351
341 342 346 341 341 341 341 341 342 343 344 342 346 348 346 343 344 344 344 344 345 345 346 345 346 344 341 341 340 340 344 348 347 348 348 349 348 349 349 349 352 351 351
339 337 334 337 340 341 340 340 341 345 344 346 344 343 343 343 343 343 341 339 338 338 336 334 335 339 340 342 342 341 344 346 346 341 347 346 343 342 344 347 350 351 350
340 338 340 338 336 339 338 338 340 340 345 342 341 341 342 341 339 337 335 332 327 325 323 332 334 337 341 339 337 340 341 341 341 336 336 338 339 344 343 342 338 342 347

GFSMA_850_thetae_111.txt.gz
Theta_e
339 335 342 336 341 344 341 343 341 345 344 344 342 340 341 339 337 333 338 335 334 338 341 343 345 344 345 345 344 345 346 346 346 344 343 347 346 341 341 345 345 346 346
341 339 343 341 342 344 343 342 343 343 342 342 344 343 341 341 340 339 334 333 337 340 342 343 344 345 345 343 342 344 346 346 347 347 346 343 346 344 340 338 342 342 345
346 343 345 346 340 342 344 344 346 344 343 343 344 344 342 342 342 345 346 342 340 341 343 342 342 341 341 343 343 344 346 347 346 346 345 345 343 347 344 341 337 338 340
346 344 342 343 345 346 345 344 345 346 344 346 345 344 343 340 345 346 347 348 347 342 346 344 347 347 343 341 340 342 343 345 345 344 345 345 344 343 347 345 343 337 338
345 344 346 346 347 345 346 345 344 344 344 345 345 344 344 345 345 345 345 347 347 348 348 350 352 350 349 346 344 341 340 343 344 343 343 345 344 342 344 348 346 342 338
344 348 346 345 345 346 345 344 343 345 345 345 346 344 345 345 344 344 340 344 346 347 347 348 347 350 351 350 346 344 342 341 343 344 345 346 346 340 342 346 349 346 339
347 347 343 338 347 345 344 340 345 344 343 343 344 344 345 344 344 345 345 343 344 347 347 347 345 344 352 351 349 344 343 341 341 344 346 347 346 338 337 342 348 349 345
347 347 344 345 347 345 341 346 350 350 343 342 348 348 343 343 345 344 344 345 343 345 346 347 345 349 350 351 349 345 344 341 341 340 342 345 346 340 333 341 343 349 349
345 346 348 347 347 348 343 347 347 349 342 345 345 347 349 349 347 345 344 344 343 345 348 346 347 349 351 349 350 344 345 345 344 343 341 341 345 344 337 336 342 344 348
345 346 346 347 345 348 348 347 348 350 350 350 347 348 345 345 342 342 344 344 343 345 346 345 342 344 342 342 347 347 348 346 343 342 341 340 343 345 343 333 340 342 344
347 346 345 346 345 348 345 347 346 345 350 349 347 349 347 345 344 336 337 339 342 344 342 343 343 339 336 342 343 346 348 347 341 343 341 335 336 340 343 330 339 340 341
349 347 348 346 346 346 348 344 345 343 346 346 347 348 345 344 343 340 335 337 338 341 339 335 334 338 335 345 344 347 347 349 340 344 343 338 333 339 335 329 333 337 337
345 348 348 348 345 342 348 339 339 340 344 343 342 349 348 347 345 341 337 343 341 342 339 342 342 338 336 341 343 343 347 347 341 345 344 342 333 328 328 329 330 330 330
349 348 348 347 344 344 345 344 342 342 339 339 338 341 342 341 346 347 347 346 344 345 345 346 346 346 345 346 341 346 346 340 346 346 345 343 341 338 334 331 332 329 329
346 347 348 347 349 348 348 347 343 347 347 345 345 337 340 341 340 350 349 347 346 346 347 346 345 345 344 347 343 347 345 348 347 346 342 343 344 345 345 346 347 340 337
338 345 347 349 349 349 345 346 345 346 346 342 343 346 344 343 342 339 348 347 346 345 344 346 344 346 348 346 347 348 348 347 347 348 343 344 344 346 346 346 347 342 347
344 338 348 350 347 349 349 349 345 345 349 347 343 345 346 347 342 346 340 339 343 345 344 344 346 346 344 346 347 348 349 348 349 346 348 348 345 347 347 346 347 347 349
344 344 347 349 348 348 346 345 347 343 347 347 347 347 344 342 347 348 345 348 349 347 348 346 342 346 349 348 349 348 348 348 349 347 345 347 350 349 348 346 347 347 348
348 345 345 345 347 344 348 346 343 343 351 348 349 349 346 348 347 343 345 343 346 342 344 346 343 349 349 349 346 343 345 346 346 344 340 344 348 349 346 348 348 348 349
344 344 344 350 345 346 349 353 351 344 345 345 347 348 348 347 346 347 348 346 343 340 339 345 344 344 345 346 345 341 338 339 339 342 342 344 346 348 353 351 349 350 350
346 348 345 345 347 348 347 347 348 347 344 344 347 346 350 349 351 349 348 348 346 339 340 341 341 341 341 343 345 346 345 343 342 346 347 350 349 351 353 352 352 350 351
346 348 346 349 346 344 343 346 349 351 346 347 346 345 348 349 347 345 343 342 342 342 343 344 345 345 346 347 346 344 342 343 345 347 346 348 350 351 352 352 351 350 351
344 344 344 345 341 341 340 340 342 346 347 345 342 343 341 343 347 346 346 343 342 345 346 346 344 344 340 340 340 340 342 346 347 348 347 346 347 346 343 347 350 350 350
344 344 344 340 342 340 341 338 339 341 342 345 343 342 341 342 344 343 344 342 342 342 342 341 336 338 340 340 340 340 342 345 346 342 339 343 344 339 341 347 348 347 350
343 342 342 340 333 330 336 340 340 340 340 340 342 343 343 343 343 342 342 340 338 337 333 331 337 339 339 340 342 342 342 341 341 339 332 326 335 333 340 343 337 335 345
341 340 338 335 332 335 337 337 338 341 341 342 341 342 342 342 341 338 336 334 329 326 323 333 333 340 340 337 336 333 335 333 335 330 330 327 334 331 327 331 319 316 322

GFSMA_850_thetae_114.txt.gz
Theta_e
336 338 337 338 341 343 342 341 343 344 343 343 341 339 341 336 330 336 335 335 339 342 344 345 345 346 344 344 344 345 347 347 347 346 344 344 346 343 339 340 342 343 342
338 339 335 339 342 343 345 343 344 345 344 343 343 340 339 338 339 334 334 338 341 342 344 344 344 344 344 344 345 346 347 347 346 345 345 343 344 346 343 338 337 338 342
342 343 343 343 341 340 343 345 345 344 341 343 344 342 339 341 343 344 345 343 342 342 345 346 342 342 341 342 343 344 345 345 344 344 345 343 342 345 346 343 338 337 339
344 343 343 343 343 344 344 345 345 344 343 343 344 343 343 339 343 345 346 347 346 346 346 349 349 348 346 343 341 341 342 344 343 343 345 345 341 342 347 346 342 337 338
342 344 345 344 342 345 345 344 345 344 344 344 345 344 344 345 343 340 342 344 347 346 347 348 348 350 350 348 343 341 341 341 344 345 346 345 340 338 343 348 345 338 338
344 344 340 342 346 344 345 345 346 347 345 345 345 345 344 344 344 338 342 344 346 347 347 347 345 346 351 350 347 342 342 341 342 341 344 346 341 334 341 346 348 344 337
346 348 344 342 344 344 345 345 347 343 342 344 346 345 344 344 344 344 345 346 343 344 346 346 346 348 348 350 348 343 345 346 345 343 340 344 342 336 334 342 348 348 344
346 345 340 344 345 340 343 347 349 345 343 345 348 345 342 343 344 345 345 346 345 344 344 345 346 346 348 348 347 345 347 347 345 346 342 343 344 341 333 340 344 347 348
345 346 342 344 344 340 344 348 349 346 347 345 347 347 349 348 346 344 345 344 344 343 344 345 343 344 346 345 343 346 347 346 345 345 343 341 344 344 333 339 341 344 346
344 345 346 344 344 346 343 345 347 350 349 349 348 345 344 344 343 345 344 343 342 343 343 343 340 337 338 341 340 342 346 347 346 344 343 336 339 343 332 339 338 341 343
346 345 345 345 343 348 347 344 345 346 349 347 347 345 344 344 339 343 337 337 342 341 341 341 335 334 338 337 341 346 346 347 345 343 345 342 333 337 330 334 336 336 339
346 347 347 347 345 341 344 344 345 343 347 345 349 347 343 342 342 341 337 336 336 339 337 339 340 341 337 335 342 345 347 348 342 344 345 345 335 329 329 330 331 331 332
346 346 348 346 344 344 345 342 340 342 343 344 343 346 344 344 341 343 343 344 343 343 342 343 343 344 339 340 345 346 344 342 345 346 345 342 340 338 334 333 331 331 331
345 340 345 344 350 343 341 341 340 344 342 342 340 342 343 343 344 343 345 343 343 342 344 345 343 345 344 345 346 347 346 348 346 346 346 342 344 344 346 347 341 338 337
346 348 347 345 345 346 347 347 345 341 340 343 344 341 343 344 344 346 348 343 347 344 345 346 346 344 347 346 346 347 348 349 349 348 348 345 343 345 345 346 346 345 346
342 343 346 346 347 347 345 345 344 343 345 339 342 340 344 343 345 341 345 343 346 344 341 343 347 347 348 346 347 347 349 348 349 347 347 346 345 345 346 349 348 347 348
340 338 346 346 348 348 349 349 348 344 347 347 341 341 345 346 346 341 341 343 344 343 343 341 346 347 348 345 347 348 348 349 347 346 345 347 347 347 347 348 348 348 347
341 341 342 347 346 347 350 346 345 345 343 344 346 346 346 342 342 346 347 346 348 346 344 345 344 345 345 347 344 346 347 348 347 346 342 340 345 348 347 348 347 348 348
343 343 344 346 346 347 345 344 344 343 343 347 345 347 347 346 345 346 345 345 345 344 343 342 342 344 347 346 344 342 339 337 340 340 343 343 345 347 352 349 349 349 350
340 344 343 342 345 346 344 345 345 343 345 347 345 346 347 349 349 345 346 345 345 345 340 338 343 342 340 339 340 342 341 341 341 342 348 349 352 353 352 351 349 350 351
345 347 345 343 346 345 344 345 344 344 343 344 345 347 348 347 345 346 346 344 339 337 338 339 341 341 343 345 345 343 342 342 344 345 347 349 349 351 350 351 351 349 350
344 344 346 345 344 343 345 345 344 344 348 344 344 343 340 344 345 344 343 341 341 341 340 341 343 344 344 340 340 340 342 343 345 345 345 345 346 343 346 350 350 350 351
347 344 347 343 342 342 341 342 341 344 345 348 344 342 342 340 341 345 343 345 345 342 343 343 341 337 338 339 340 340 341 345 344 343 342 337 340 341 347 346 349 349 348
346 345 344 342 342 341 341 340 341 340 340 341 344 345 343 341 341 343 343 344 342 343 341 339 334 337 339 340 340 341 341 342 342 340 338 327 327 335 343 342 335 337 343
343 344 343 344 343 342 340 337 337 340 340 340 341 342 342 342 343 343 342 341 339 337 333 330 334 337 338 339 340 341 339 337 337 335 332 322 322 322 328 334 322 318 320
343 343 342 342 342 340 336 333 337 338 338 339 341 341 342 342 341 340 337 335 331 326 326 331 333 337 338 338 338 336 333 333 326 323 321 324 325 322 320 322 315 311 309

GFSMA_850_thetae_117.txt.gz
Theta_e
338 338 335 339 341 342 341 341 343 344 343 341 339 341 338 334 334 335 335 339 342 343 345 345 345 345 344 345 346 346 346 346 345 345 344 342 343 344 343 338 338 340 342
338 335 340 340 341 341 343 344 344 344 344 343 341 340 339 338 335 335 339 341 342 343 343 342 342 342 343 343 344 345 345 343 343 343 345 344 342 345 345 342 337 337 341
342 341 341 339 339 340 344 345 344 342 341 344 342 341 340 342 343 343 344 343 343 346 347 348 347 345 344 342 342 341 342 345 343 344 345 345 340 342 346 345 339 336 339
342 338 339 340 344 344 344 344 344 343 342 343 343 342 341 341 343 344 346 346 345 346 346 347 350 349 349 347 342 341 341 342 343 344 345 344 339 338 344 347 341 336 337
343 339 341 341 341 345 344 344 344 343 344 344 344 343 343 343 343 344 344 345 346 347 345 344 344 348 350 349 346 342 343 344 343 343 342 344 339 336 342 347 345 336 335
340 343 341 341 342 347 344 346 346 345 344 344 344 344 344 343 345 345 343 344 345 346 345 345 345 346 346 350 349 343 346 345 344 344 341 342 340 335 340 344 347 342 334
345 343 343 342 345 345 343 348 347 342 343 344 346 344 344 344 343 344 344 344 344 343 343 344 344 345 347 348 345 345 347 346 346 343 341 343 344 339 336 342 346 346 343
343 345 341 341 344 341 342 346 347 342 343 345 346 344 343 344 344 344 345 345 345 345 342 344 344 343 344 344 344 345 345 346 346 344 343 337 342 343 334 341 343 346 345
343 344 341 343 344 340 340 347 348 344 341 346 346 348 346 345 344 344 345 345 344 343 342 344 342 338 340 338 339 342 343 346 346 344 343 340 338 342 332 339 341 343 346
343 345 342 342 344 343 341 343 347 349 348 345 346 345 343 344 344 344 343 343 343 341 341 342 339 336 334 339 341 343 345 346 346 344 344 343 337 336 330 338 339 341 342
345 345 344 345 343 347 344 344 345 347 347 345 345 345 344 343 339 341 339 339 336 340 338 339 339 341 338 336 341 345 345 344 341 344 345 345 338 333 331 332 336 337 339
345 346 345 344 344 343 346 344 343 343 346 346 347 345 342 342 341 339 338 341 341 340 340 343 342 341 339 343 343 342 341 343 345 346 347 345 340 335 332 332 332 332 333
345 345 346 346 344 346 343 346 342 344 341 344 344 345 344 342 341 341 343 344 343 342 344 344 343 344 343 345 344 345 346 348 348 347 346 342 343 345 344 345 341 337 336
345 344 344 348 346 343 343 344 342 339 342 342 342 340 343 343 343 343 340 342 342 342 343 342 341 343 344 344 345 346 346 345 348 345 343 343 343 343 344 345 345 345 346
346 345 342 345 345 345 343 343 342 341 342 342 342 340 340 342 342 341 347 343 344 343 343 342 344 344 343 345 345 345 347 347 348 347 346 345 344 345 346 347 347 346 347
346 345 347 346 346 343 345 346 345 344 342 344 347 345 344 345 344 341 340 344 342 342 343 343 343 345 346 345 346 344 348 349 347 346 344 345 344 347 346 345 345 348 347
342 341 341 344 346 345 347 345 346 343 345 344 344 343 344 347 346 344 343 344 345 345 345 343 344 344 346 345 345 345 349 348 348 347 345 345 342 347 347 346 344 346 347
340 338 339 344 346 347 347 348 348 347 343 345 345 343 342 342 341 343 346 346 346 347 346 343 345 342 345 344 346 345 344 342 342 338 337 341 341 344 344 348 347 348 348
339 341 342 342 345 346 345 348 345 343 343 342 344 344 346 347 346 345 344 344 344 344 343 342 341 343 344 343 343 342 337 341 341 342 346 348 351 347 347 349 349 349 348
344 343 344 344 345 345 345 344 344 343 343 343 345 344 346 346 346 347 344 347 344 344 343 339 336 338 340 339 339 340 342 341 344 346 348 347 347 350 349 346 348 350 349
345 344 346 344 342 344 345 345 344 345 340 342 345 343 345 344 345 344 345 346 345 338 338 339 340 341 342 342 341 340 340 342 345 345 345 344 344 346 348 347 348 347 347
343 347 347 347 345 345 345 344 344 344 343 341 343 343 344 346 341 342 342 342 341 341 341 342 342 343 342 338 339 340 341 343 343 342 341 340 345 346 347 347 347 347 348
343 344 344 343 346 343 344 342 342 342 342 342 342 342 342 341 340 340 343 342 343 343 341 341 342 340 336 337 339 340 341 341 342 342 340 332 341 344 337 333 336 341 344
345 343 344 343 343 342 341 341 341 341 340 340 340 344 344 343 342 340 341 342 342 341 341 340 339 336 335 337 339 340 341 340 339 338 335 330 325 335 337 325 322 319 321
343 343 345 344 343 343 343 341 339 337 340 340 339 339 339 339 341 341 342 342 341 341 339 337 333 332 334 337 338 340 339 335 331 330 326 319 322 325 337 332 314 310 313
342 343 343 344 343 343 342 342 340 335 335 335 335 336 336 340 341 341 340 339 338 335 331 329 332 333 334 336 338 336 334 332 328 322 320 320 319 318 321 325 311 307 309

GFSMA_850_thetae_120.txt.gz
Theta_e
338 338 335 340 341 341 341 342 343 343 342 340 340 338 335 332 334 336 339 342 343 344 344 344 343 344 344 344 344 344 344 343 343 343 343 344 340 343 344 343 338 336 339
338 337 339 341 341 342 343 343 343 343 343 342 340 339 334 335 336 339 341 342 343 344 344 343 343 343 342 342 341 341 341 343 343 344 343 344 340 341 345 345 339 336 339
339 341 340 340 340 343 343 343 343 340 342 343 341 339 342 344 345 343 343 344 345 346 347 348 348 348 347 344 342 341 341 342 342 342 342 343 339 339 343 346 339 336 336
339 338 339 340 342 344 344 344 343 342 342 342 342 341 340 342 344 344 344 345 345 345 345 345 346 348 350 349 344 342 345 344 343 342 341 341 338 336 342 346 342 336 337
341 338 341 342 344 343 344 344 343 343 344 343 343 343 342 342 343 343 343 345 346 345 344 344 344 344 346 350 349 343 346 345 343 339 340 342 340 335 341 345 345 336 334
340 340 340 340 343 343 344 345 344 344 344 344 344 344 343 344 344 344 342 344 344 345 345 344 344 345 347 348 349 345 346 346 343 341 337 342 343 339 338 343 345 341 334
344 342 341 341 342 344 343 346 343 343 343 344 344 344 343 344 343 344 344 344 344 345 343 343 344 344 346 346 346 347 345 346 344 342 342 337 340 341 335 341 345 345 342
343 346 341 341 344 341 342 345 345 342 342 344 346 344 343 343 343 343 344 344 344 345 344 343 343 340 341 340 337 342 344 346 344 342 343 342 336 339 332 339 341 345 344
344 344 344 343 342 343 339 344 346 343 341 345 345 346 345 344 343 343 343 344 344 342 342 343 342 338 338 337 340 342 345 345 345 342 344 344 336 330 329 337 339 342 344
344 346 342 341 344 343 338 342 347 345 345 344 345 344 343 343 344 344 343 343 343 342 341 340 339 341 340 336 343 345 345 344 341 344 345 345 334 328 328 331 335 337 340
343 342 343 344 343 344 344 342 343 346 347 345 344 344 344 342 341 338 340 337 336 335 338 342 338 336 336 343 345 343 338 342 345 346 344 342 336 331 330 330 331 332 333
343 344 344 343 343 343 346 345 343 344 345 346 345 345 342 341 340 340 340 343 342 342 341 343 343 343 345 343 344 345 345 347 346 345 343 343 345 345 342 338 338 336 335
344 344 343 345 344 344 344 344 343 343 342 343 344 344 345 343 342 341 342 342 342 341 344 343 344 343 344 344 344 344 345 346 346 342 343 343 343 344 345 345 345 346 346
345 346 345 344 344 345 344 342 343 340 340 341 341 342 341 343 342 342 342 342 341 341 341 340 339 342 343 343 344 345 344 346 344 344 344 343 342 345 345 345 346 345 346
345 345 345 344 344 345 343 342 343 343 342 342 342 341 341 342 342 342 342 345 344 342 342 341 342 342 344 345 346 343 343 347 342 343 344 345 344 345 346 345 344 344 348
341 346 345 344 342 345 344 343 345 345 344 343 344 343 343 343 344 343 340 340 342 342 343 343 344 344 346 346 346 347 349 349 348 347 346 344 342 342 344 345 342 343 346
344 343 345 345 345 346 345 344 345 345 344 345 345 341 343 343 346 346 344 343 344 344 345 344 345 344 343 343 345 345 344 343 342 341 341 338 338 339 339 341 344 346 347
342 341 341 341 340 346 346 346 345 347 346 345 345 345 343 343 343 344 346 346 346 346 346 346 344 343 341 341 343 344 342 339 341 342 340 342 344 344 344 346 347 347 347
343 340 340 340 341 346 346 346 346 346 344 343 342 344 344 347 348 347 347 346 346 345 343 342 341 340 341 342 340 339 342 343 345 347 347 347 348 349 348 348 346 346 347
344 340 342 343 341 344 346 345 345 345 343 343 342 344 345 345 345 347 346 344 347 346 346 344 341 338 339 339 339 341 341 345 346 346 345 345 345 346 348 348 347 347 347
341 343 345 345 344 344 344 344 343 344 344 342 341 343 344 344 344 344 344 343 345 344 338 339 339 340 340 341 340 339 341 343 343 342 341 343 344 345 346 346 345 345 346
343 344 346 346 346 344 341 342 343 344 344 344 341 342 343 342 345 345 341 342 341 341 341 342 341 342 341 338 337 339 340 341 342 339 337 339 339 339 336 338 338 343 344
345 344 343 343 344 344 344 342 342 343 344 344 341 341 343 342 342 340 339 341 342 341 342 342 341 341 339 336 338 339 340 340 339 339 333 331 337 337 329 326 321 323 333
344 344 344 344 344 343 342 342 342 341 341 341 342 342 341 342 341 340 341 339 340 341 340 340 340 338 335 335 338 339 340 339 336 335 330 327 329 332 325 318 313 316 323
343 344 345 344 343 344 342 338 341 339 339 340 340 339 339 340 341 341 340 341 341 341 340 339 336 333 332 334 336 337 339 335 331 330 325 323 322 330 329 327 312 309 312
343 341 342 341 343 344 340 335 341 340 338 337 336 337 337 336 333 338 340 341 341 340 337 334 331 331 331 332 335 336 335 333 328 324 320 319 320 318 327 327 316 308 308

GFSMA_850_thetae_123.txt.gz
Theta_e
338 335 340 341 341 341 342 343 343 343 341 340 338 334 333 334 337 340 342 343 343 342 342 342 341 342 341 341 341 341 341 343 343 343 342 343 340 340 345 345 337 335 339
336 338 340 340 341 342 342 343 343 343 342 340 338 334 336 338 340 341 342 342 343 344 344 345 346 346 345 343 341 341 343 342 342 342 340 342 338 339 344 345 336 333 336
341 340 340 340 342 343 342 343 341 341 342 340 339 342 341 341 341 342 344 346 346 346 347 347 347 348 349 348 344 343 345 343 341 338 341 340 338 338 343 344 336 332 335
340 339 338 341 343 344 344 344 342 341 342 341 338 340 342 344 343 343 344 345 345 345 343 344 344 345 346 349 349 343 346 345 342 337 338 342 340 336 342 344 337 333 335
338 341 342 342 343 344 344 343 343 343 343 343 342 339 338 341 342 343 343 344 345 344 344 345 345 345 345 348 350 345 346 346 343 340 336 341 341 335 341 344 342 334 334
339 342 341 342 343 342 344 344 343 344 344 344 344 344 343 343 343 342 343 343 344 343 343 343 343 344 345 347 348 347 346 346 343 342 338 338 341 333 338 343 344 342 335
343 340 341 340 343 342 342 345 343 344 343 345 344 344 343 343 343 343 344 344 344 344 344 344 344 339 341 343 338 339 345 346 344 342 342 336 336 332 336 338 343 343 342
344 344 341 342 343 342 342 343 344 342 343 344 345 343 347 343 342 343 343 343 344 344 342 342 343 341 338 339 338 342 344 346 344 343 344 336 331 330 334 335 339 342 343
341 344 343 342 343 342 339 342 345 343 342 345 345 348 347 346 343 343 343 343 343 343 341 341 340 339 340 339 338 345 345 345 342 344 345 338 329 329 329 332 334 339 341
343 346 341 343 343 343 341 340 347 346 344 344 344 344 343 343 347 347 341 339 339 339 338 339 339 338 337 336 344 345 341 341 345 344 342 338 332 330 330 329 329 331 335
344 346 343 343 342 344 343 340 343 347 347 345 344 344 343 342 341 340 342 340 340 337 342 340 339 342 344 344 343 342 346 347 345 343 343 344 341 339 338 342 343 339 335
342 343 343 343 343 342 343 344 342 344 345 346 346 345 342 341 340 340 342 343 342 342 343 343 344 344 345 343 345 345 345 346 345 342 342 343 344 344 345 345 344 346 347
343 343 344 344 342 342 342 343 345 343 343 343 344 344 345 344 343 342 341 341 341 341 343 343 341 342 342 343 345 346 346 346 342 344 343 342 341 344 343 344 345 346 346
345 344 345 344 343 343 344 343 342 343 341 342 342 342 342 342 342 342 342 344 345 345 341 341 340 342 343 345 346 345 346 346 346 345 344 344 344 344 345 345 344 344 347
345 345 346 345 345 345 345 345 343 342 341 340 341 342 341 341 341 341 341 342 346 345 344 345 347 342 344 346 346 346 347 346 347 345 346 345 343 341 343 345 345 344 347
344 342 342 344 345 343 344 344 344 342 342 342 341 342 342 343 343 343 343 341 341 343 342 346 349 344 346 348 345 345 344 344 344 344 343 341 338 338 339 338 339 345 346
345 343 344 345 345 345 344 345 343 343 344 345 342 344 340 343 344 345 345 343 343 343 347 348 344 345 343 343 344 344 343 343 340 339 340 340 342 343 342 343 346 345 347
344 345 342 342 343 343 345 346 344 344 343 343 343 344 344 344 341 342 342 342 343 343 347 349 346 343 342 342 343 342 342 345 342 343 345 346 346 347 346 347 347 347 347
345 344 340 340 340 339 342 345 344 345 345 345 344 343 344 344 343 347 344 345 345 344 344 341 346 341 338 341 341 341 343 345 345 345 345 345 345 346 348 348 346 346 347
344 345 343 340 342 342 341 346 346 344 343 344 343 343 342 343 345 343 344 344 344 344 345 345 346 344 340 341 342 344 345 345 343 343 343 343 343 344 345 347 347 346 347
344 344 345 343 343 344 343 344 345 345 344 343 343 342 343 344 344 344 344 343 343 342 344 338 347 348 347 343 342 340 346 343 342 340 340 340 339 340 342 342 342 343 344
343 343 343 342 344 344 345 342 343 343 344 344 344 344 340 343 344 344 346 343 342 341 340 340 341 340 342 340 337 339 345 346 341 338 338 336 336 337 337 337 331 331 335
343 342 342 344 345 344 345 345 343 343 343 344 344 343 342 342 343 343 342 341 341 341 340 340 340 340 341 337 336 339 340 341 339 337 337 332 331 333 328 326 323 324 326
343 343 344 346 344 343 343 342 343 342 341 342 342 343 343 342 343 343 341 341 341 340 342 342 340 340 338 333 337 339 339 340 338 336 331 332 326 327 324 321 313 313 318
343 343 341 343 344 344 344 342 343 342 340 340 341 341 341 342 342 342 341 341 341 341 342 341 340 337 333 334 336 338 339 341 339 331 328 326 325 325 325 325 320 309 310
344 343 343 342 341 341 341 343 343 342 335 337 337 338 339 339 337 335 335 337 340 341 340 338 334 332 332 332 334 336 335 332 332 327 324 321 321 325 325 325 326 313 307

GFSMA_850_thetae_126.txt.gz
Theta_e
338 343 341 346 346 348 348 348 349 348 347 343 343 343 341 341 340 340 342 341 340 341 342 343 344 344 343 343 341 343 344 343 342 340 340 340 338 337 344 342 334 335 337
336 345 345 346 348 349 348 349 349 347 344 341 341 342 341 342 339 341 342 343 344 346 347 347 348 348 349 348 345 344 345 345 342 338 341 341 337 338 344 339 333 335 336
341 342 347 348 349 347 344 346 348 346 343 340 343 345 344 343 342 343 345 345 346 345 343 343 344 345 345 347 350 344 346 345 343 340 338 342 337 339 344 337 333 335 334
340 343 347 349 350 352 352 349 346 345 344 341 344 343 344 344 345 345 346 346 347 346 348 344 344 344 345 347 348 348 345 346 344 342 337 340 336 339 344 342 334 334 333
338 347 349 349 348 353 352 347 347 345 345 343 341 343 345 345 345 345 347 345 349 349 347 347 343 344 343 345 348 348 346 346 344 343 339 339 334 339 343 343 340 333 333
343 347 348 347 351 352 351 351 350 350 348 346 342 343 345 345 345 345 345 347 349 348 350 344 350 351 340 341 343 339 343 345 346 343 344 335 332 337 341 344 342 339 333
345 341 349 347 350 351 349 353 349 350 350 350 348 346 346 346 345 346 347 347 349 349 346 347 348 347 347 340 340 340 341 344 345 343 345 338 329 334 336 341 343 342 341
344 343 341 347 346 351 348 346 348 350 351 351 352 347 346 346 344 346 348 349 350 349 348 347 344 344 341 343 339 344 344 344 342 345 346 340 328 329 333 336 339 341 342
349 344 341 346 345 348 350 350 350 345 349 350 347 353 348 347 347 349 349 349 347 348 347 347 345 343 341 339 342 347 340 341 345 345 341 338 331 330 330 331 332 335 339
351 350 342 342 342 349 346 349 351 349 348 350 350 349 345 345 347 345 347 346 346 345 344 346 346 345 338 345 346 340 343 346 346 343 344 343 340 339 343 341 338 335 333
349 351 342 341 341 349 349 345 350 346 352 351 349 350 347 347 344 346 343 344 347 345 347 348 349 350 350 346 351 350 346 346 346 342 343 344 344 345 345 345 346 345 341
348 348 350 343 348 349 346 349 349 345 347 350 351 349 348 347 347 345 345 346 345 347 348 349 349 347 348 351 350 345 345 346 344 344 342 342 343 344 345 345 345 345 346
348 349 344 344 347 344 343 350 347 347 347 349 350 350 350 349 348 347 346 344 344 344 346 347 347 349 350 349 348 345 344 347 346 346 344 345 344 344 345 346 345 346 346
350 351 352 351 351 350 351 350 349 350 351 348 352 348 349 348 348 348 347 345 341 344 344 343 347 347 348 350 348 345 350 346 344 343 344 346 345 343 343 346 347 347 348
351 349 347 351 350 351 350 350 351 351 351 350 350 350 347 347 348 346 347 346 345 341 342 348 344 349 349 350 347 354 348 346 345 346 346 344 339 337 338 340 342 343 344
345 345 346 347 350 350 350 348 350 351 351 350 349 349 349 346 348 348 347 347 347 345 342 345 345 348 350 350 348 351 349 343 344 340 339 339 341 342 341 340 346 345 346
344 343 344 342 345 349 349 349 346 345 351 351 351 350 351 351 347 346 347 346 346 346 344 343 347 348 347 348 346 347 352 347 340 340 341 342 344 345 343 345 347 347 347
342 345 345 344 342 343 349 349 348 351 351 351 351 351 351 349 350 350 347 347 347 349 347 349 349 348 348 350 348 345 350 348 343 343 344 345 345 347 347 345 346 345 346
341 344 345 343 340 340 342 348 344 349 350 351 351 351 351 351 350 347 349 350 349 350 350 350 349 350 348 347 348 348 348 346 344 343 344 344 343 344 346 347 347 346 346
340 339 344 345 343 339 341 342 346 349 350 351 350 350 350 350 350 343 345 346 347 349 346 350 348 347 347 349 348 349 347 347 344 339 340 341 341 342 342 343 344 345 345
347 342 344 346 345 345 347 348 345 344 345 350 351 348 348 348 344 344 344 344 348 345 348 348 346 346 347 348 347 348 347 347 345 343 337 332 333 337 338 338 338 338 338
344 346 348 348 347 347 347 344 344 344 347 349 350 350 349 345 341 344 345 345 344 342 343 348 346 346 349 349 346 346 348 347 343 343 336 331 332 333 333 334 334 333 330
346 346 345 346 347 346 343 344 345 343 343 347 346 347 348 350 343 343 343 343 343 342 342 341 344 349 348 348 344 340 347 346 346 343 338 333 326 324 327 326 323 321 320
346 346 346 346 344 346 344 343 343 344 343 343 344 343 346 347 343 343 343 344 342 340 340 342 343 343 343 342 335 343 343 342 340 337 336 338 330 321 322 323 320 315 313
345 344 343 342 343 344 344 344 343 343 342 342 341 342 342 345 342 342 344 343 343 342 341 341 342 341 339 334 333 341 341 340 340 337 331 333 330 324 322 317 324 322 312
344 343 342 342 343 343 342 342 340 343 342 340 337 338 340 341 341 341 339 339 339 340 341 341 340 337 334 333 335 337 339 337 336 335 328 326 327 327 325 322 318 319 315

GFSMA_850_thetae_129.txt.gz
Theta_e
344 345 347 348 346 347 344 346 348 348 346 344 344 342 341 341 340 341 338 337 339 342 345 346 347 348 348 349 347 343 346 345 342 337 339 341 336 341 343 333 334 334 337
346 347 347 346 346 347 346 347 350 348 343 341 344 342 342 342 343 342 343 341 344 345 345 343 344 344 345 346 348 348 345 346 344 339 339 342 335 342 341 333 334 334 335
346 346 345 348 347 345 346 349 349 347 342 341 345 345 343 342 343 346 345 345 346 346 343 345 344 344 344 345 347 349 346 346 344 341 337 341 335 342 342 334 334 331 335
351 347 349 348 346 351 349 348 348 346 342 342 344 344 343 344 346 345 346 346 348 348 350 350 345 344 344 343 345 348 347 345 345 343 340 338 334 340 344 338 333 331 328
349 350 347 348 353 353 348 345 345 345 344 342 343 344 345 345 345 345 346 347 349 350 351 352 351 352 346 342 341 338 340 345 346 343 344 333 332 338 343 342 335 334 327
349 349 346 350 349 353 349 352 350 348 347 344 343 342 344 344 344 344 345 345 347 350 350 352 352 353 350 346 342 338 341 344 345 343 345 335 330 336 340 343 341 336 334
350 349 350 348 351 353 352 353 351 347 349 348 346 344 345 344 344 344 344 345 347 349 350 351 352 350 350 348 345 342 344 342 342 345 346 338 329 333 335 339 342 341 336
350 352 347 351 349 351 354 356 354 355 349 350 353 348 345 347 344 344 345 346 349 350 350 349 349 349 350 348 345 345 338 343 345 344 342 337 330 330 331 335 339 342 342
350 353 350 352 346 351 355 351 353 350 354 349 346 352 352 343 338 347 350 349 350 348 348 347 347 348 344 347 347 346 343 344 346 343 343 340 338 337 336 335 335 337 341
350 350 351 352 351 354 351 352 353 352 346 354 350 349 346 349 347 346 347 346 347 345 346 348 348 350 345 349 350 344 345 345 346 342 344 344 345 344 344 344 342 338 335
352 350 351 352 353 350 353 349 352 352 354 352 351 350 352 348 347 346 342 343 348 345 346 348 348 348 352 351 347 347 345 345 345 343 342 342 343 344 345 345 345 346 343
351 350 352 351 352 352 351 353 356 352 351 351 348 350 347 347 345 345 345 344 343 346 343 349 345 345 344 348 351 343 344 345 347 346 344 345 343 343 344 346 346 346 346
347 350 347 352 350 350 346 351 354 349 353 351 356 350 347 344 346 345 344 343 342 342 344 343 344 345 346 349 349 346 344 346 345 345 345 345 345 344 343 345 346 347 347
348 351 353 351 351 351 351 352 350 352 351 352 354 353 351 348 345 345 343 343 342 340 344 348 344 344 345 349 348 338 348 347 346 346 347 346 343 339 339 341 346 348 346
349 352 351 352 352 351 351 351 350 350 351 353 351 351 350 347 345 346 345 345 344 342 342 348 344 350 347 346 348 353 349 344 343 343 339 340 339 341 341 341 341 340 343
353 346 350 352 352 352 352 353 350 350 352 349 349 349 350 346 347 347 346 345 347 344 342 341 342 349 349 351 349 351 349 344 345 338 339 342 344 345 343 346 347 346 347
353 353 351 353 352 353 351 350 348 350 351 353 352 350 351 351 349 345 350 346 345 345 347 342 347 350 347 346 352 351 349 348 347 341 341 343 345 347 346 346 346 347 347
353 353 351 353 353 353 353 352 351 350 351 350 351 350 351 350 351 351 348 345 345 348 349 349 348 349 350 352 351 347 350 346 345 341 343 343 343 345 347 347 346 345 346
353 352 354 352 353 352 351 352 351 351 351 351 350 349 349 351 350 349 350 352 351 351 352 349 349 350 349 349 352 350 349 348 343 341 340 342 341 341 342 344 346 346 346
352 352 352 352 351 352 350 351 351 352 352 353 351 351 351 352 351 347 345 344 344 347 348 344 345 349 350 347 348 348 350 348 342 338 339 336 337 338 339 339 340 343 343
351 353 352 352 351 351 350 351 352 351 351 351 352 352 351 351 349 349 347 348 348 348 348 349 350 347 348 348 348 348 346 347 346 344 341 334 331 332 334 334 335 335 334
346 345 346 348 348 349 348 348 347 347 350 350 349 349 350 349 347 343 342 344 344 343 344 343 345 348 347 346 345 348 348 347 346 346 342 334 329 329 330 329 330 331 328
346 349 345 346 346 346 347 345 345 344 345 349 349 348 348 351 349 349 342 342 344 344 343 342 341 347 346 345 347 348 347 347 347 346 341 336 330 326 324 325 324 323 319
345 346 347 345 345 342 343 342 340 345 344 346 344 346 348 348 350 349 346 348 349 346 341 341 345 346 342 341 342 344 343 345 343 343 342 339 334 324 326 321 322 323 320
348 347 346 346 345 344 342 342 343 344 344 344 343 342 342 342 343 343 342 345 345 345 342 342 342 342 342 342 340 337 343 341 342 340 337 338 336 329 325 322 319 320 322
343 344 346 345 344 343 342 343 343 343 342 342 342 342 341 341 342 342 342 343 342 343 340 339 341 341 339 337 335 334 336 340 339 338 335 332 331 330 326 325 324 323 316